<?xml version='1.0' encoding='UTF-8'?>
<gpx version="1.1" creator="https://www.komoot.de" xmlns="http://www.topografix.com/GPX/1/1" xmlns:xsi="http://www.w3.org/2001/XMLSchema-instance" xsi:schemaLocation="http://www.topografix.com/GPX/1/1 http://www.topografix.com/GPX/1/1/gpx.xsd">
  <metadata>
    <name>117 km-RTF-RV-Nieder-Weisel 2026V0504</name>
    <author>
      <link href="https://www.komoot.de">
        <text>komoot</text>
        <type>text/html</type>
      </link>
    </author>
  </metadata>
  <wpt lat="50.528545" lon="8.748818">
    <name>Kontrollpunkt 1 Garbenteich</name>
    <desc>Alle Strecken</desc>
    <sym>Flag, Blue</sym>
  </wpt>
  <wpt lat="50.640313" lon="8.916265">
    <name>Kontrollpunkt 3 Lumda</name>
    <desc>117 km Strecke</desc>
    <sym>Flag, Blue</sym>
  </wpt>
  <wpt lat="50.410138" lon="8.909645">
    <name>Kontrollpunkt 2 Grund-Schwalhe</name>
    <desc>72 km + 117 km Strecken</desc>
    <sym>Flag, Blue</sym>
  </wpt>
  <trk>
    <name>117 km-RTF-RV-Nieder-Weisel 2026V0504</name>
    <trkseg>
      <trkpt lat="50.414551" lon="8.686898">
        <ele>173.918934</ele>
        <time>2026-05-04T11:55:53.897Z</time>
      </trkpt>
      <trkpt lat="50.414623" lon="8.686891">
        <ele>173.918934</ele>
        <time>2026-05-04T11:55:54.903Z</time>
      </trkpt>
      <trkpt lat="50.415134" lon="8.687011">
        <ele>173.918934</ele>
        <time>2026-05-04T11:56:02.451Z</time>
      </trkpt>
      <trkpt lat="50.415178" lon="8.687021">
        <ele>173.918934</ele>
        <time>2026-05-04T11:56:03.123Z</time>
      </trkpt>
      <trkpt lat="50.415458" lon="8.687062">
        <ele>173.941001</ele>
        <time>2026-05-04T11:56:07.547Z</time>
      </trkpt>
      <trkpt lat="50.415680" lon="8.687160">
        <ele>174.276219</ele>
        <time>2026-05-04T11:56:11.347Z</time>
      </trkpt>
      <trkpt lat="50.415943" lon="8.687353">
        <ele>174.698242</ele>
        <time>2026-05-04T11:56:16.181Z</time>
      </trkpt>
      <trkpt lat="50.416322" lon="8.686269">
        <ele>175.843487</ele>
        <time>2026-05-04T11:56:32.665Z</time>
      </trkpt>
      <trkpt lat="50.416504" lon="8.685766">
        <ele>176.379250</ele>
        <time>2026-05-04T11:56:39.060Z</time>
      </trkpt>
      <trkpt lat="50.416773" lon="8.684972">
        <ele>177.104522</ele>
        <time>2026-05-04T11:56:48.566Z</time>
      </trkpt>
      <trkpt lat="50.417034" lon="8.685200">
        <ele>177.469867</ele>
        <time>2026-05-04T11:56:53.322Z</time>
      </trkpt>
      <trkpt lat="50.417384" lon="8.685546">
        <ele>177.975792</ele>
        <time>2026-05-04T11:56:59.647Z</time>
      </trkpt>
      <trkpt lat="50.417711" lon="8.684781">
        <ele>178.693702</ele>
        <time>2026-05-04T11:57:08.505Z</time>
      </trkpt>
      <trkpt lat="50.417822" lon="8.684421">
        <ele>179.046157</ele>
        <time>2026-05-04T11:57:12.324Z</time>
      </trkpt>
      <trkpt lat="50.417841" lon="8.684359">
        <ele>179.107807</ele>
        <time>2026-05-04T11:57:12.977Z</time>
      </trkpt>
      <trkpt lat="50.417871" lon="8.684273">
        <ele>179.195666</ele>
        <time>2026-05-04T11:57:13.922Z</time>
      </trkpt>
      <trkpt lat="50.418195" lon="8.683009">
        <ele>180.416566</ele>
        <time>2026-05-04T11:57:31.597Z</time>
      </trkpt>
      <trkpt lat="50.418346" lon="8.682407">
        <ele>180.996315</ele>
        <time>2026-05-04T11:57:40.638Z</time>
      </trkpt>
      <trkpt lat="50.418371" lon="8.682309">
        <ele>181.090910</ele>
        <time>2026-05-04T11:57:42.120Z</time>
      </trkpt>
      <trkpt lat="50.418843" lon="8.681481">
        <ele>182.223813</ele>
        <time>2026-05-04T11:57:57.758Z</time>
      </trkpt>
      <trkpt lat="50.419228" lon="8.680796">
        <ele>183.178792</ele>
        <time>2026-05-04T11:58:10.482Z</time>
      </trkpt>
      <trkpt lat="50.419185" lon="8.680600">
        <ele>183.395517</ele>
        <time>2026-05-04T11:58:12.720Z</time>
      </trkpt>
      <trkpt lat="50.419065" lon="8.679673">
        <ele>184.328004</ele>
        <time>2026-05-04T11:58:22.397Z</time>
      </trkpt>
      <trkpt lat="50.419046" lon="8.678860">
        <ele>184.896482</ele>
        <time>2026-05-04T11:58:30.586Z</time>
      </trkpt>
      <trkpt lat="50.418990" lon="8.677666">
        <ele>185.733066</ele>
        <time>2026-05-04T11:58:42.275Z</time>
      </trkpt>
      <trkpt lat="50.418994" lon="8.676574">
        <ele>186.437290</ele>
        <time>2026-05-04T11:58:52.734Z</time>
      </trkpt>
      <trkpt lat="50.419040" lon="8.674703">
        <ele>187.496869</ele>
        <time>2026-05-04T11:59:09.599Z</time>
      </trkpt>
      <trkpt lat="50.419103" lon="8.673506">
        <ele>188.268234</ele>
        <time>2026-05-04T11:59:21.341Z</time>
      </trkpt>
      <trkpt lat="50.419134" lon="8.673383">
        <ele>188.360574</ele>
        <time>2026-05-04T11:59:22.736Z</time>
      </trkpt>
      <trkpt lat="50.419170" lon="8.673236">
        <ele>188.470514</ele>
        <time>2026-05-04T11:59:24.351Z</time>
      </trkpt>
      <trkpt lat="50.419454" lon="8.672604">
        <ele>189.010402</ele>
        <time>2026-05-04T11:59:31.816Z</time>
      </trkpt>
      <trkpt lat="50.419501" lon="8.672321">
        <ele>189.214565</ele>
        <time>2026-05-04T11:59:34.644Z</time>
      </trkpt>
      <trkpt lat="50.419487" lon="8.672121">
        <ele>189.355025</ele>
        <time>2026-05-04T11:59:36.630Z</time>
      </trkpt>
      <trkpt lat="50.419465" lon="8.671865">
        <ele>189.535356</ele>
        <time>2026-05-04T11:59:39.196Z</time>
      </trkpt>
      <trkpt lat="50.419453" lon="8.671686">
        <ele>189.661006</ele>
        <time>2026-05-04T11:59:41.003Z</time>
      </trkpt>
      <trkpt lat="50.419460" lon="8.671437">
        <ele>189.860844</ele>
        <time>2026-05-04T11:59:43.517Z</time>
      </trkpt>
      <trkpt lat="50.419515" lon="8.671139">
        <ele>190.147210</ele>
        <time>2026-05-04T11:59:46.623Z</time>
      </trkpt>
      <trkpt lat="50.419816" lon="8.670071">
        <ele>191.225120</ele>
        <time>2026-05-04T11:59:57.963Z</time>
      </trkpt>
      <trkpt lat="50.421457" lon="8.664661">
        <ele>198.302612</ele>
        <time>2026-05-04T12:01:05.988Z</time>
      </trkpt>
      <trkpt lat="50.422091" lon="8.662528">
        <ele>202.059631</ele>
        <time>2026-05-04T12:01:36.342Z</time>
      </trkpt>
      <trkpt lat="50.422744" lon="8.660335">
        <ele>206.781439</ele>
        <time>2026-05-04T12:02:08.973Z</time>
      </trkpt>
      <trkpt lat="50.423154" lon="8.658990">
        <ele>210.069640</ele>
        <time>2026-05-04T12:02:31.989Z</time>
      </trkpt>
      <trkpt lat="50.423361" lon="8.658326">
        <ele>211.395569</ele>
        <time>2026-05-04T12:02:43.722Z</time>
      </trkpt>
      <trkpt lat="50.423553" lon="8.657186">
        <ele>213.239527</ele>
        <time>2026-05-04T12:02:59.905Z</time>
      </trkpt>
      <trkpt lat="50.423635" lon="8.656560">
        <ele>214.238933</ele>
        <time>2026-05-04T12:03:07.092Z</time>
      </trkpt>
      <trkpt lat="50.423844" lon="8.656957">
        <ele>215.044277</ele>
        <time>2026-05-04T12:03:12.216Z</time>
      </trkpt>
      <trkpt lat="50.423985" lon="8.657183">
        <ele>215.080088</ele>
        <time>2026-05-04T12:03:15.114Z</time>
      </trkpt>
      <trkpt lat="50.425320" lon="8.659324">
        <ele>214.963232</ele>
        <time>2026-05-04T12:03:36.870Z</time>
      </trkpt>
      <trkpt lat="50.425298" lon="8.659493">
        <ele>214.885464</ele>
        <time>2026-05-04T12:03:38.444Z</time>
      </trkpt>
      <trkpt lat="50.425519" lon="8.659642">
        <ele>214.715252</ele>
        <time>2026-05-04T12:03:40.873Z</time>
      </trkpt>
      <trkpt lat="50.426651" lon="8.661561">
        <ele>213.710283</ele>
        <time>2026-05-04T12:03:57.409Z</time>
      </trkpt>
      <trkpt lat="50.426686" lon="8.661687">
        <ele>213.677662</ele>
        <time>2026-05-04T12:03:58.420Z</time>
      </trkpt>
      <trkpt lat="50.426690" lon="8.662001">
        <ele>213.603131</ele>
        <time>2026-05-04T12:04:00.632Z</time>
      </trkpt>
      <trkpt lat="50.426782" lon="8.662090">
        <ele>213.562874</ele>
        <time>2026-05-04T12:04:01.930Z</time>
      </trkpt>
      <trkpt lat="50.426828" lon="8.662132">
        <ele>213.543050</ele>
        <time>2026-05-04T12:04:02.513Z</time>
      </trkpt>
      <trkpt lat="50.426901" lon="8.662209">
        <ele>213.510288</ele>
        <time>2026-05-04T12:04:03.626Z</time>
      </trkpt>
      <trkpt lat="50.426950" lon="8.662151">
        <ele>213.487427</ele>
        <time>2026-05-04T12:04:04.315Z</time>
      </trkpt>
      <trkpt lat="50.427040" lon="8.662144">
        <ele>213.453860</ele>
        <time>2026-05-04T12:04:05.458Z</time>
      </trkpt>
      <trkpt lat="50.427548" lon="8.662935">
        <ele>213.163987</ele>
        <time>2026-05-04T12:04:13.747Z</time>
      </trkpt>
      <trkpt lat="50.427666" lon="8.663060">
        <ele>213.084340</ele>
        <time>2026-05-04T12:04:15.318Z</time>
      </trkpt>
      <trkpt lat="50.427746" lon="8.663050">
        <ele>213.039439</ele>
        <time>2026-05-04T12:04:16.181Z</time>
      </trkpt>
      <trkpt lat="50.428018" lon="8.663429">
        <ele>212.835951</ele>
        <time>2026-05-04T12:04:21.338Z</time>
      </trkpt>
      <trkpt lat="50.428209" lon="8.663627">
        <ele>212.707888</ele>
        <time>2026-05-04T12:04:24.531Z</time>
      </trkpt>
      <trkpt lat="50.428955" lon="8.664129">
        <ele>212.253773</ele>
        <time>2026-05-04T12:04:36.116Z</time>
      </trkpt>
      <trkpt lat="50.429048" lon="8.664182">
        <ele>212.256916</ele>
        <time>2026-05-04T12:04:37.576Z</time>
      </trkpt>
      <trkpt lat="50.429394" lon="8.664267">
        <ele>212.455643</ele>
        <time>2026-05-04T12:04:41.616Z</time>
      </trkpt>
      <trkpt lat="50.429653" lon="8.664225">
        <ele>212.603395</ele>
        <time>2026-05-04T12:04:44.994Z</time>
      </trkpt>
      <trkpt lat="50.429857" lon="8.664175">
        <ele>212.720557</ele>
        <time>2026-05-04T12:04:47.805Z</time>
      </trkpt>
      <trkpt lat="50.430019" lon="8.664176">
        <ele>212.812485</ele>
        <time>2026-05-04T12:04:50.134Z</time>
      </trkpt>
      <trkpt lat="50.430478" lon="8.664301">
        <ele>213.076834</ele>
        <time>2026-05-04T12:04:57.315Z</time>
      </trkpt>
      <trkpt lat="50.430779" lon="8.664377">
        <ele>213.250506</ele>
        <time>2026-05-04T12:05:02.164Z</time>
      </trkpt>
      <trkpt lat="50.431122" lon="8.664352">
        <ele>213.521218</ele>
        <time>2026-05-04T12:05:07.656Z</time>
      </trkpt>
      <trkpt lat="50.431204" lon="8.664325">
        <ele>213.587273</ele>
        <time>2026-05-04T12:05:08.975Z</time>
      </trkpt>
      <trkpt lat="50.431561" lon="8.664304">
        <ele>213.868928</ele>
        <time>2026-05-04T12:05:14.599Z</time>
      </trkpt>
      <trkpt lat="50.432078" lon="8.664407">
        <ele>214.279798</ele>
        <time>2026-05-04T12:05:22.247Z</time>
      </trkpt>
      <trkpt lat="50.432506" lon="8.664493">
        <ele>214.619985</ele>
        <time>2026-05-04T12:05:27.851Z</time>
      </trkpt>
      <trkpt lat="50.432613" lon="8.664514">
        <ele>214.660861</ele>
        <time>2026-05-04T12:05:29.149Z</time>
      </trkpt>
      <trkpt lat="50.433352" lon="8.664626">
        <ele>214.581278</ele>
        <time>2026-05-04T12:05:37.352Z</time>
      </trkpt>
      <trkpt lat="50.433622" lon="8.664665">
        <ele>214.552213</ele>
        <time>2026-05-04T12:05:40.233Z</time>
      </trkpt>
      <trkpt lat="50.434724" lon="8.664858">
        <ele>214.619369</ele>
        <time>2026-05-04T12:05:52.979Z</time>
      </trkpt>
      <trkpt lat="50.434745" lon="8.664971">
        <ele>214.648718</ele>
        <time>2026-05-04T12:05:53.979Z</time>
      </trkpt>
      <trkpt lat="50.434813" lon="8.665021">
        <ele>214.678110</ele>
        <time>2026-05-04T12:05:54.981Z</time>
      </trkpt>
      <trkpt lat="50.434866" lon="8.664995">
        <ele>214.699846</ele>
        <time>2026-05-04T12:05:55.737Z</time>
      </trkpt>
      <trkpt lat="50.434906" lon="8.664884">
        <ele>214.731643</ele>
        <time>2026-05-04T12:05:56.850Z</time>
      </trkpt>
      <trkpt lat="50.435187" lon="8.664917">
        <ele>214.841944</ele>
        <time>2026-05-04T12:06:00.825Z</time>
      </trkpt>
      <trkpt lat="50.435329" lon="8.664940">
        <ele>214.897823</ele>
        <time>2026-05-04T12:06:02.895Z</time>
      </trkpt>
      <trkpt lat="50.435490" lon="8.664965">
        <ele>214.961151</ele>
        <time>2026-05-04T12:06:05.288Z</time>
      </trkpt>
      <trkpt lat="50.436514" lon="8.665128">
        <ele>214.741316</ele>
        <time>2026-05-04T12:06:19.347Z</time>
      </trkpt>
      <trkpt lat="50.437252" lon="8.665237">
        <ele>214.063377</ele>
        <time>2026-05-04T12:06:26.615Z</time>
      </trkpt>
      <trkpt lat="50.437525" lon="8.665479">
        <ele>213.776650</ele>
        <time>2026-05-04T12:06:29.351Z</time>
      </trkpt>
      <trkpt lat="50.437605" lon="8.665589">
        <ele>213.679392</ele>
        <time>2026-05-04T12:06:30.258Z</time>
      </trkpt>
      <trkpt lat="50.437702" lon="8.665843">
        <ele>213.487521</ele>
        <time>2026-05-04T12:06:31.894Z</time>
      </trkpt>
      <trkpt lat="50.437758" lon="8.666144">
        <ele>213.166314</ele>
        <time>2026-05-04T12:06:33.621Z</time>
      </trkpt>
      <trkpt lat="50.437782" lon="8.666262">
        <ele>213.039429</ele>
        <time>2026-05-04T12:06:34.291Z</time>
      </trkpt>
      <trkpt lat="50.437803" lon="8.666367">
        <ele>212.926697</ele>
        <time>2026-05-04T12:06:34.905Z</time>
      </trkpt>
      <trkpt lat="50.437826" lon="8.666487">
        <ele>212.798333</ele>
        <time>2026-05-04T12:06:35.591Z</time>
      </trkpt>
      <trkpt lat="50.437901" lon="8.666446">
        <ele>212.670611</ele>
        <time>2026-05-04T12:06:36.582Z</time>
      </trkpt>
      <trkpt lat="50.438038" lon="8.666356">
        <ele>212.431769</ele>
        <time>2026-05-04T12:06:38.429Z</time>
      </trkpt>
      <trkpt lat="50.438128" lon="8.666345">
        <ele>212.286588</ele>
        <time>2026-05-04T12:06:39.557Z</time>
      </trkpt>
      <trkpt lat="50.439830" lon="8.666135">
        <ele>209.851011</ele>
        <time>2026-05-04T12:07:02.655Z</time>
      </trkpt>
      <trkpt lat="50.440368" lon="8.665999">
        <ele>209.221972</ele>
        <time>2026-05-04T12:07:10.095Z</time>
      </trkpt>
      <trkpt lat="50.441268" lon="8.665705">
        <ele>208.754182</ele>
        <time>2026-05-04T12:07:22.715Z</time>
      </trkpt>
      <trkpt lat="50.441348" lon="8.665702">
        <ele>208.797946</ele>
        <time>2026-05-04T12:07:23.894Z</time>
      </trkpt>
      <trkpt lat="50.441412" lon="8.665656">
        <ele>208.836440</ele>
        <time>2026-05-04T12:07:24.973Z</time>
      </trkpt>
      <trkpt lat="50.441477" lon="8.665616">
        <ele>208.874620</ele>
        <time>2026-05-04T12:07:26.032Z</time>
      </trkpt>
      <trkpt lat="50.441566" lon="8.665562">
        <ele>208.926801</ele>
        <time>2026-05-04T12:07:27.527Z</time>
      </trkpt>
      <trkpt lat="50.441604" lon="8.665474">
        <ele>208.963832</ele>
        <time>2026-05-04T12:07:28.597Z</time>
      </trkpt>
      <trkpt lat="50.441939" lon="8.665268">
        <ele>209.160588</ele>
        <time>2026-05-04T12:07:34.739Z</time>
      </trkpt>
      <trkpt lat="50.442916" lon="8.664554">
        <ele>210.660507</ele>
        <time>2026-05-04T12:07:58.484Z</time>
      </trkpt>
      <trkpt lat="50.444679" lon="8.663154">
        <ele>216.711312</ele>
        <time>2026-05-04T12:08:51.996Z</time>
      </trkpt>
      <trkpt lat="50.444839" lon="8.663076">
        <ele>217.250973</ele>
        <time>2026-05-04T12:08:56.583Z</time>
      </trkpt>
      <trkpt lat="50.445106" lon="8.662872">
        <ele>218.207443</ele>
        <time>2026-05-04T12:09:04.578Z</time>
      </trkpt>
      <trkpt lat="50.445263" lon="8.662843">
        <ele>218.716661</ele>
        <time>2026-05-04T12:09:08.817Z</time>
      </trkpt>
      <trkpt lat="50.445277" lon="8.662770">
        <ele>218.873051</ele>
        <time>2026-05-04T12:09:10.097Z</time>
      </trkpt>
      <trkpt lat="50.445286" lon="8.662696">
        <ele>219.027593</ele>
        <time>2026-05-04T12:09:11.376Z</time>
      </trkpt>
      <trkpt lat="50.445323" lon="8.662667">
        <ele>219.160799</ele>
        <time>2026-05-04T12:09:12.491Z</time>
      </trkpt>
      <trkpt lat="50.445392" lon="8.662626">
        <ele>219.398444</ele>
        <time>2026-05-04T12:09:14.430Z</time>
      </trkpt>
      <trkpt lat="50.445506" lon="8.662471">
        <ele>219.884185</ele>
        <time>2026-05-04T12:09:18.397Z</time>
      </trkpt>
      <trkpt lat="50.447255" lon="8.660848">
        <ele>225.035138</ele>
        <time>2026-05-04T12:10:08.391Z</time>
      </trkpt>
      <trkpt lat="50.448386" lon="8.659906">
        <ele>226.588527</ele>
        <time>2026-05-04T12:10:32.136Z</time>
      </trkpt>
      <trkpt lat="50.448910" lon="8.659529">
        <ele>227.311202</ele>
        <time>2026-05-04T12:10:43.094Z</time>
      </trkpt>
      <trkpt lat="50.449131" lon="8.659395">
        <ele>227.986241</ele>
        <time>2026-05-04T12:10:48.032Z</time>
      </trkpt>
      <trkpt lat="50.451509" lon="8.657828">
        <ele>236.095303</ele>
        <time>2026-05-04T12:11:45.829Z</time>
      </trkpt>
      <trkpt lat="50.452148" lon="8.657557">
        <ele>238.464462</ele>
        <time>2026-05-04T12:12:02.989Z</time>
      </trkpt>
      <trkpt lat="50.452191" lon="8.657497">
        <ele>238.670348</ele>
        <time>2026-05-04T12:12:04.422Z</time>
      </trkpt>
      <trkpt lat="50.452312" lon="8.657484">
        <ele>238.889490</ele>
        <time>2026-05-04T12:12:07.350Z</time>
      </trkpt>
      <trkpt lat="50.452675" lon="8.657342">
        <ele>239.273735</ele>
        <time>2026-05-04T12:12:15.698Z</time>
      </trkpt>
      <trkpt lat="50.452916" lon="8.657196">
        <ele>239.539054</ele>
        <time>2026-05-04T12:12:20.645Z</time>
      </trkpt>
      <trkpt lat="50.453084" lon="8.656936">
        <ele>239.781315</ele>
        <time>2026-05-04T12:12:24.457Z</time>
      </trkpt>
      <trkpt lat="50.453278" lon="8.656507">
        <ele>240.125441</ele>
        <time>2026-05-04T12:12:28.793Z</time>
      </trkpt>
      <trkpt lat="50.453828" lon="8.656231">
        <ele>240.536916</ele>
        <time>2026-05-04T12:12:34.266Z</time>
      </trkpt>
      <trkpt lat="50.454565" lon="8.655862">
        <ele>239.211700</ele>
        <time>2026-05-04T12:12:40.767Z</time>
      </trkpt>
      <trkpt lat="50.454613" lon="8.655815">
        <ele>239.114796</ele>
        <time>2026-05-04T12:12:41.244Z</time>
      </trkpt>
      <trkpt lat="50.455098" lon="8.654830">
        <ele>237.756594</ele>
        <time>2026-05-04T12:12:48.264Z</time>
      </trkpt>
      <trkpt lat="50.455317" lon="8.654399">
        <ele>237.946867</ele>
        <time>2026-05-04T12:12:52.003Z</time>
      </trkpt>
      <trkpt lat="50.455652" lon="8.653813">
        <ele>238.730988</ele>
        <time>2026-05-04T12:12:59.053Z</time>
      </trkpt>
      <trkpt lat="50.456646" lon="8.652105">
        <ele>241.138157</ele>
        <time>2026-05-04T12:13:29.872Z</time>
      </trkpt>
      <trkpt lat="50.457079" lon="8.651322">
        <ele>242.333988</ele>
        <time>2026-05-04T12:13:42.935Z</time>
      </trkpt>
      <trkpt lat="50.457104" lon="8.651184">
        <ele>242.499420</ele>
        <time>2026-05-04T12:13:44.582Z</time>
      </trkpt>
      <trkpt lat="50.457186" lon="8.651187">
        <ele>242.647966</ele>
        <time>2026-05-04T12:13:45.938Z</time>
      </trkpt>
      <trkpt lat="50.457358" lon="8.651207">
        <ele>242.960318</ele>
        <time>2026-05-04T12:13:48.730Z</time>
      </trkpt>
      <trkpt lat="50.457433" lon="8.651215">
        <ele>243.096459</ele>
        <time>2026-05-04T12:13:49.899Z</time>
      </trkpt>
      <trkpt lat="50.457977" lon="8.651245">
        <ele>243.376037</ele>
        <time>2026-05-04T12:13:56.929Z</time>
      </trkpt>
      <trkpt lat="50.458767" lon="8.651135">
        <ele>242.523063</ele>
        <time>2026-05-04T12:14:04.619Z</time>
      </trkpt>
      <trkpt lat="50.459398" lon="8.650937">
        <ele>241.831017</ele>
        <time>2026-05-04T12:14:10.342Z</time>
      </trkpt>
      <trkpt lat="50.459906" lon="8.650721">
        <ele>241.055148</ele>
        <time>2026-05-04T12:14:14.976Z</time>
      </trkpt>
      <trkpt lat="50.459991" lon="8.650714">
        <ele>240.919919</ele>
        <time>2026-05-04T12:14:15.741Z</time>
      </trkpt>
      <trkpt lat="50.460078" lon="8.650802">
        <ele>240.755520</ele>
        <time>2026-05-04T12:14:16.654Z</time>
      </trkpt>
      <trkpt lat="50.460324" lon="8.651497">
        <ele>239.951238</ele>
        <time>2026-05-04T12:14:21.142Z</time>
      </trkpt>
      <trkpt lat="50.460382" lon="8.651591">
        <ele>239.818837</ele>
        <time>2026-05-04T12:14:21.894Z</time>
      </trkpt>
      <trkpt lat="50.460445" lon="8.651598">
        <ele>239.718495</ele>
        <time>2026-05-04T12:14:22.494Z</time>
      </trkpt>
      <trkpt lat="50.460730" lon="8.651453">
        <ele>239.242544</ele>
        <time>2026-05-04T12:14:25.385Z</time>
      </trkpt>
      <trkpt lat="50.461148" lon="8.651125">
        <ele>238.622577</ele>
        <time>2026-05-04T12:14:29.963Z</time>
      </trkpt>
      <trkpt lat="50.461540" lon="8.650721">
        <ele>238.140446</ele>
        <time>2026-05-04T12:14:34.548Z</time>
      </trkpt>
      <trkpt lat="50.461635" lon="8.650686">
        <ele>238.040102</ele>
        <time>2026-05-04T12:14:35.495Z</time>
      </trkpt>
      <trkpt lat="50.461746" lon="8.650694">
        <ele>237.925834</ele>
        <time>2026-05-04T12:14:36.581Z</time>
      </trkpt>
      <trkpt lat="50.462249" lon="8.651131">
        <ele>237.334734</ele>
        <time>2026-05-04T12:14:42.332Z</time>
      </trkpt>
      <trkpt lat="50.462626" lon="8.651412">
        <ele>236.927035</ele>
        <time>2026-05-04T12:14:46.317Z</time>
      </trkpt>
      <trkpt lat="50.462922" lon="8.651574">
        <ele>236.679829</ele>
        <time>2026-05-04T12:14:49.251Z</time>
      </trkpt>
      <trkpt lat="50.463691" lon="8.651734">
        <ele>236.068052</ele>
        <time>2026-05-04T12:14:57.017Z</time>
      </trkpt>
      <trkpt lat="50.463737" lon="8.651742">
        <ele>236.031552</ele>
        <time>2026-05-04T12:14:57.502Z</time>
      </trkpt>
      <trkpt lat="50.464516" lon="8.651890">
        <ele>235.510509</ele>
        <time>2026-05-04T12:15:05.836Z</time>
      </trkpt>
      <trkpt lat="50.464738" lon="8.651926">
        <ele>235.438023</ele>
        <time>2026-05-04T12:15:08.322Z</time>
      </trkpt>
      <trkpt lat="50.464770" lon="8.651932">
        <ele>235.427556</ele>
        <time>2026-05-04T12:15:08.683Z</time>
      </trkpt>
      <trkpt lat="50.465139" lon="8.651997">
        <ele>235.306959</ele>
        <time>2026-05-04T12:15:12.905Z</time>
      </trkpt>
      <trkpt lat="50.466046" lon="8.652161">
        <ele>235.010433</ele>
        <time>2026-05-04T12:15:22.686Z</time>
      </trkpt>
      <trkpt lat="50.466826" lon="8.652308">
        <ele>235.379676</ele>
        <time>2026-05-04T12:15:32.092Z</time>
      </trkpt>
      <trkpt lat="50.466913" lon="8.652324">
        <ele>235.425388</ele>
        <time>2026-05-04T12:15:33.291Z</time>
      </trkpt>
      <trkpt lat="50.466998" lon="8.652339">
        <ele>235.470024</ele>
        <time>2026-05-04T12:15:34.455Z</time>
      </trkpt>
      <trkpt lat="50.467128" lon="8.652361">
        <ele>235.538258</ele>
        <time>2026-05-04T12:15:36.284Z</time>
      </trkpt>
      <trkpt lat="50.467713" lon="8.652462">
        <ele>235.845383</ele>
        <time>2026-05-04T12:15:45.202Z</time>
      </trkpt>
      <trkpt lat="50.467742" lon="8.652468">
        <ele>235.860648</ele>
        <time>2026-05-04T12:15:45.670Z</time>
      </trkpt>
      <trkpt lat="50.467860" lon="8.652493">
        <ele>235.922784</ele>
        <time>2026-05-04T12:15:47.645Z</time>
      </trkpt>
      <trkpt lat="50.468417" lon="8.652589">
        <ele>236.034745</ele>
        <time>2026-05-04T12:15:56.470Z</time>
      </trkpt>
      <trkpt lat="50.468919" lon="8.652677">
        <ele>236.129515</ele>
        <time>2026-05-04T12:16:03.474Z</time>
      </trkpt>
      <trkpt lat="50.469060" lon="8.652703">
        <ele>236.156151</ele>
        <time>2026-05-04T12:16:05.152Z</time>
      </trkpt>
      <trkpt lat="50.469499" lon="8.652981">
        <ele>236.244956</ele>
        <time>2026-05-04T12:16:10.078Z</time>
      </trkpt>
      <trkpt lat="50.469861" lon="8.653123">
        <ele>235.853843</ele>
        <time>2026-05-04T12:16:13.589Z</time>
      </trkpt>
      <trkpt lat="50.470440" lon="8.653339">
        <ele>234.796709</ele>
        <time>2026-05-04T12:16:18.871Z</time>
      </trkpt>
      <trkpt lat="50.470705" lon="8.653446">
        <ele>234.310666</ele>
        <time>2026-05-04T12:16:21.277Z</time>
      </trkpt>
      <trkpt lat="50.471174" lon="8.653601">
        <ele>233.459302</ele>
        <time>2026-05-04T12:16:25.487Z</time>
      </trkpt>
      <trkpt lat="50.471966" lon="8.653642">
        <ele>232.264954</ele>
        <time>2026-05-04T12:16:32.342Z</time>
      </trkpt>
      <trkpt lat="50.472266" lon="8.653606">
        <ele>231.841808</ele>
        <time>2026-05-04T12:16:35.081Z</time>
      </trkpt>
      <trkpt lat="50.472310" lon="8.653630">
        <ele>231.776304</ele>
        <time>2026-05-04T12:16:35.518Z</time>
      </trkpt>
      <trkpt lat="50.472415" lon="8.653917">
        <ele>231.479992</ele>
        <time>2026-05-04T12:16:37.570Z</time>
      </trkpt>
      <trkpt lat="50.472538" lon="8.654287">
        <ele>231.106351</ele>
        <time>2026-05-04T12:16:40.210Z</time>
      </trkpt>
      <trkpt lat="50.472636" lon="8.654455">
        <ele>230.902368</ele>
        <time>2026-05-04T12:16:41.690Z</time>
      </trkpt>
      <trkpt lat="50.472918" lon="8.654611">
        <ele>230.498505</ele>
        <time>2026-05-04T12:16:44.813Z</time>
      </trkpt>
      <trkpt lat="50.473437" lon="8.654898">
        <ele>229.924505</ele>
        <time>2026-05-04T12:16:50.407Z</time>
      </trkpt>
      <trkpt lat="50.474038" lon="8.655195">
        <ele>229.267233</ele>
        <time>2026-05-04T12:16:57.237Z</time>
      </trkpt>
      <trkpt lat="50.474458" lon="8.655296">
        <ele>228.823967</ele>
        <time>2026-05-04T12:17:01.101Z</time>
      </trkpt>
      <trkpt lat="50.474449" lon="8.655437">
        <ele>228.729881</ele>
        <time>2026-05-04T12:17:01.887Z</time>
      </trkpt>
      <trkpt lat="50.474648" lon="8.655517">
        <ele>228.323675</ele>
        <time>2026-05-04T12:17:03.634Z</time>
      </trkpt>
      <trkpt lat="50.474709" lon="8.655533">
        <ele>228.178848</ele>
        <time>2026-05-04T12:17:04.163Z</time>
      </trkpt>
      <trkpt lat="50.475795" lon="8.655812">
        <ele>225.601883</ele>
        <time>2026-05-04T12:17:13.355Z</time>
      </trkpt>
      <trkpt lat="50.476716" lon="8.656123">
        <ele>224.145933</ele>
        <time>2026-05-04T12:17:21.556Z</time>
      </trkpt>
      <trkpt lat="50.477252" lon="8.656287">
        <ele>223.770476</ele>
        <time>2026-05-04T12:17:26.901Z</time>
      </trkpt>
      <trkpt lat="50.477624" lon="8.656275">
        <ele>223.514647</ele>
        <time>2026-05-04T12:17:31.088Z</time>
      </trkpt>
      <trkpt lat="50.478059" lon="8.656193">
        <ele>223.223813</ele>
        <time>2026-05-04T12:17:37.268Z</time>
      </trkpt>
      <trkpt lat="50.478521" lon="8.656318">
        <ele>223.342536</ele>
        <time>2026-05-04T12:17:44.572Z</time>
      </trkpt>
      <trkpt lat="50.478714" lon="8.656401">
        <ele>223.393211</ele>
        <time>2026-05-04T12:17:47.423Z</time>
      </trkpt>
      <trkpt lat="50.478802" lon="8.656475">
        <ele>223.418487</ele>
        <time>2026-05-04T12:17:48.739Z</time>
      </trkpt>
      <trkpt lat="50.479466" lon="8.656825">
        <ele>223.595853</ele>
        <time>2026-05-04T12:17:57.201Z</time>
      </trkpt>
      <trkpt lat="50.480230" lon="8.657066">
        <ele>223.427867</ele>
        <time>2026-05-04T12:18:05.559Z</time>
      </trkpt>
      <trkpt lat="50.481457" lon="8.657334">
        <ele>222.759276</ele>
        <time>2026-05-04T12:18:18.697Z</time>
      </trkpt>
      <trkpt lat="50.482019" lon="8.657362">
        <ele>221.862135</ele>
        <time>2026-05-04T12:18:24.358Z</time>
      </trkpt>
      <trkpt lat="50.483855" lon="8.657266">
        <ele>218.152757</ele>
        <time>2026-05-04T12:18:40.182Z</time>
      </trkpt>
      <trkpt lat="50.485869" lon="8.657068">
        <ele>213.973010</ele>
        <time>2026-05-04T12:18:57.026Z</time>
      </trkpt>
      <trkpt lat="50.488121" lon="8.657044">
        <ele>212.723662</ele>
        <time>2026-05-04T12:19:22.351Z</time>
      </trkpt>
      <trkpt lat="50.488594" lon="8.657042">
        <ele>212.749024</ele>
        <time>2026-05-04T12:19:29.001Z</time>
      </trkpt>
      <trkpt lat="50.490153" lon="8.656992">
        <ele>212.921076</ele>
        <time>2026-05-04T12:19:49.511Z</time>
      </trkpt>
      <trkpt lat="50.491652" lon="8.656947">
        <ele>211.595937</ele>
        <time>2026-05-04T12:20:04.418Z</time>
      </trkpt>
      <trkpt lat="50.491851" lon="8.657014">
        <ele>211.344305</ele>
        <time>2026-05-04T12:20:06.246Z</time>
      </trkpt>
      <trkpt lat="50.492040" lon="8.657091">
        <ele>211.102897</ele>
        <time>2026-05-04T12:20:07.978Z</time>
      </trkpt>
      <trkpt lat="50.492132" lon="8.657129">
        <ele>210.985283</ele>
        <time>2026-05-04T12:20:08.826Z</time>
      </trkpt>
      <trkpt lat="50.492507" lon="8.657277">
        <ele>210.217151</ele>
        <time>2026-05-04T12:20:12.273Z</time>
      </trkpt>
      <trkpt lat="50.492637" lon="8.657198">
        <ele>209.832495</ele>
        <time>2026-05-04T12:20:13.509Z</time>
      </trkpt>
      <trkpt lat="50.492746" lon="8.657369">
        <ele>209.407486</ele>
        <time>2026-05-04T12:20:14.845Z</time>
      </trkpt>
      <trkpt lat="50.492816" lon="8.657407">
        <ele>209.203101</ele>
        <time>2026-05-04T12:20:15.480Z</time>
      </trkpt>
      <trkpt lat="50.492887" lon="8.657445">
        <ele>208.996106</ele>
        <time>2026-05-04T12:20:16.118Z</time>
      </trkpt>
      <trkpt lat="50.492940" lon="8.657507">
        <ele>208.813775</ele>
        <time>2026-05-04T12:20:16.675Z</time>
      </trkpt>
      <trkpt lat="50.492959" lon="8.657658">
        <ele>208.543524</ele>
        <time>2026-05-04T12:20:17.505Z</time>
      </trkpt>
      <trkpt lat="50.492877" lon="8.658070">
        <ele>207.785588</ele>
        <time>2026-05-04T12:20:19.812Z</time>
      </trkpt>
      <trkpt lat="50.492821" lon="8.658457">
        <ele>207.088763</ele>
        <time>2026-05-04T12:20:21.911Z</time>
      </trkpt>
      <trkpt lat="50.492734" lon="8.658903">
        <ele>206.269720</ele>
        <time>2026-05-04T12:20:24.301Z</time>
      </trkpt>
      <trkpt lat="50.492528" lon="8.660005">
        <ele>203.874962</ele>
        <time>2026-05-04T12:20:29.971Z</time>
      </trkpt>
      <trkpt lat="50.492466" lon="8.660331">
        <ele>203.129490</ele>
        <time>2026-05-04T12:20:31.624Z</time>
      </trkpt>
      <trkpt lat="50.492453" lon="8.660404">
        <ele>202.963405</ele>
        <time>2026-05-04T12:20:31.996Z</time>
      </trkpt>
      <trkpt lat="50.492442" lon="8.660459">
        <ele>202.837089</ele>
        <time>2026-05-04T12:20:32.280Z</time>
      </trkpt>
      <trkpt lat="50.492311" lon="8.661138">
        <ele>201.282548</ele>
        <time>2026-05-04T12:20:35.825Z</time>
      </trkpt>
      <trkpt lat="50.492120" lon="8.662059">
        <ele>199.544305</ele>
        <time>2026-05-04T12:20:41.019Z</time>
      </trkpt>
      <trkpt lat="50.491950" lon="8.662535">
        <ele>199.431220</ele>
        <time>2026-05-04T12:20:44.355Z</time>
      </trkpt>
      <trkpt lat="50.491906" lon="8.662714">
        <ele>199.391466</ele>
        <time>2026-05-04T12:20:45.664Z</time>
      </trkpt>
      <trkpt lat="50.491908" lon="8.662833">
        <ele>199.366805</ele>
        <time>2026-05-04T12:20:46.553Z</time>
      </trkpt>
      <trkpt lat="50.491959" lon="8.662925">
        <ele>199.341525</ele>
        <time>2026-05-04T12:20:47.483Z</time>
      </trkpt>
      <trkpt lat="50.492167" lon="8.663037">
        <ele>199.269930</ele>
        <time>2026-05-04T12:20:50.203Z</time>
      </trkpt>
      <trkpt lat="50.492464" lon="8.663104">
        <ele>199.172226</ele>
        <time>2026-05-04T12:20:54.158Z</time>
      </trkpt>
      <trkpt lat="50.493158" lon="8.663201">
        <ele>199.082986</ele>
        <time>2026-05-04T12:21:03.730Z</time>
      </trkpt>
      <trkpt lat="50.493407" lon="8.663313">
        <ele>199.216133</ele>
        <time>2026-05-04T12:21:07.224Z</time>
      </trkpt>
      <trkpt lat="50.493654" lon="8.663502">
        <ele>199.357360</ele>
        <time>2026-05-04T12:21:11.166Z</time>
      </trkpt>
      <trkpt lat="50.494167" lon="8.664139">
        <ele>199.693448</ele>
        <time>2026-05-04T12:21:20.869Z</time>
      </trkpt>
      <trkpt lat="50.494457" lon="8.664481">
        <ele>199.879827</ele>
        <time>2026-05-04T12:21:25.400Z</time>
      </trkpt>
      <trkpt lat="50.494673" lon="8.664939">
        <ele>199.823228</ele>
        <time>2026-05-04T12:21:29.263Z</time>
      </trkpt>
      <trkpt lat="50.494886" lon="8.665465">
        <ele>199.680284</ele>
        <time>2026-05-04T12:21:33.924Z</time>
      </trkpt>
      <trkpt lat="50.495008" lon="8.665755">
        <ele>199.600578</ele>
        <time>2026-05-04T12:21:36.440Z</time>
      </trkpt>
      <trkpt lat="50.495163" lon="8.666077">
        <ele>199.508008</ele>
        <time>2026-05-04T12:21:38.977Z</time>
      </trkpt>
      <trkpt lat="50.495316" lon="8.666349">
        <ele>199.424771</ele>
        <time>2026-05-04T12:21:41.241Z</time>
      </trkpt>
      <trkpt lat="50.495415" lon="8.666524">
        <ele>199.371083</ele>
        <time>2026-05-04T12:21:42.677Z</time>
      </trkpt>
      <trkpt lat="50.495472" lon="8.666579">
        <ele>199.346981</ele>
        <time>2026-05-04T12:21:43.308Z</time>
      </trkpt>
      <trkpt lat="50.495499" lon="8.666605">
        <ele>199.335570</ele>
        <time>2026-05-04T12:21:43.663Z</time>
      </trkpt>
      <trkpt lat="50.496080" lon="8.666637">
        <ele>199.761232</ele>
        <time>2026-05-04T12:21:50.136Z</time>
      </trkpt>
      <trkpt lat="50.496679" lon="8.666698">
        <ele>200.466156</ele>
        <time>2026-05-04T12:21:58.923Z</time>
      </trkpt>
      <trkpt lat="50.496685" lon="8.666840">
        <ele>200.572470</ele>
        <time>2026-05-04T12:22:00.390Z</time>
      </trkpt>
      <trkpt lat="50.496700" lon="8.667269">
        <ele>200.893437</ele>
        <time>2026-05-04T12:22:05.170Z</time>
      </trkpt>
      <trkpt lat="50.496707" lon="8.667400">
        <ele>200.991644</ele>
        <time>2026-05-04T12:22:06.701Z</time>
      </trkpt>
      <trkpt lat="50.496725" lon="8.667623">
        <ele>201.159571</ele>
        <time>2026-05-04T12:22:09.512Z</time>
      </trkpt>
      <trkpt lat="50.496918" lon="8.667552">
        <ele>201.403827</ele>
        <time>2026-05-04T12:22:13.566Z</time>
      </trkpt>
      <trkpt lat="50.497386" lon="8.667344">
        <ele>203.323388</ele>
        <time>2026-05-04T12:22:24.203Z</time>
      </trkpt>
      <trkpt lat="50.497718" lon="8.667310">
        <ele>204.636542</ele>
        <time>2026-05-04T12:22:32.339Z</time>
      </trkpt>
      <trkpt lat="50.497869" lon="8.667346">
        <ele>205.239342</ele>
        <time>2026-05-04T12:22:36.353Z</time>
      </trkpt>
      <trkpt lat="50.498002" lon="8.667409">
        <ele>205.787594</ele>
        <time>2026-05-04T12:22:40.047Z</time>
      </trkpt>
      <trkpt lat="50.498214" lon="8.667582">
        <ele>206.730355</ele>
        <time>2026-05-04T12:22:46.241Z</time>
      </trkpt>
      <trkpt lat="50.498366" lon="8.667920">
        <ele>207.769602</ele>
        <time>2026-05-04T12:22:53.078Z</time>
      </trkpt>
      <trkpt lat="50.498512" lon="8.668448">
        <ele>209.343513</ele>
        <time>2026-05-04T12:23:03.012Z</time>
      </trkpt>
      <trkpt lat="50.498570" lon="8.668677">
        <ele>210.071476</ele>
        <time>2026-05-04T12:23:07.446Z</time>
      </trkpt>
      <trkpt lat="50.498711" lon="8.669130">
        <ele>211.560935</ele>
        <time>2026-05-04T12:23:16.576Z</time>
      </trkpt>
      <trkpt lat="50.499261" lon="8.670262">
        <ele>215.767825</ele>
        <time>2026-05-04T12:23:40.416Z</time>
      </trkpt>
      <trkpt lat="50.499542" lon="8.670771">
        <ele>217.699834</ele>
        <time>2026-05-04T12:23:51.886Z</time>
      </trkpt>
      <trkpt lat="50.500242" lon="8.671912">
        <ele>222.084303</ele>
        <time>2026-05-04T12:24:17.626Z</time>
      </trkpt>
      <trkpt lat="50.500376" lon="8.672289">
        <ele>223.278762</ele>
        <time>2026-05-04T12:24:24.749Z</time>
      </trkpt>
      <trkpt lat="50.500761" lon="8.673936">
        <ele>227.641911</ele>
        <time>2026-05-04T12:24:53.150Z</time>
      </trkpt>
      <trkpt lat="50.501107" lon="8.674790">
        <ele>230.047289</ele>
        <time>2026-05-04T12:25:07.934Z</time>
      </trkpt>
      <trkpt lat="50.501232" lon="8.674925">
        <ele>230.613687</ele>
        <time>2026-05-04T12:25:11.297Z</time>
      </trkpt>
      <trkpt lat="50.501794" lon="8.676011">
        <ele>233.757128</ele>
        <time>2026-05-04T12:25:30.561Z</time>
      </trkpt>
      <trkpt lat="50.502348" lon="8.677057">
        <ele>236.760495</ele>
        <time>2026-05-04T12:25:49.884Z</time>
      </trkpt>
      <trkpt lat="50.502997" lon="8.678317">
        <ele>240.730320</ele>
        <time>2026-05-04T12:26:17.524Z</time>
      </trkpt>
      <trkpt lat="50.503206" lon="8.678748">
        <ele>242.098532</ele>
        <time>2026-05-04T12:26:26.692Z</time>
      </trkpt>
      <trkpt lat="50.503316" lon="8.678973">
        <ele>242.814950</ele>
        <time>2026-05-04T12:26:31.305Z</time>
      </trkpt>
      <trkpt lat="50.503694" lon="8.679591">
        <ele>244.752192</ele>
        <time>2026-05-04T12:26:43.893Z</time>
      </trkpt>
      <trkpt lat="50.504140" lon="8.680227">
        <ele>244.725282</ele>
        <time>2026-05-04T12:26:54.254Z</time>
      </trkpt>
      <trkpt lat="50.504605" lon="8.680775">
        <ele>244.699311</ele>
        <time>2026-05-04T12:27:00.003Z</time>
      </trkpt>
      <trkpt lat="50.504650" lon="8.680637">
        <ele>244.694903</ele>
        <time>2026-05-04T12:27:05.995Z</time>
      </trkpt>
      <trkpt lat="50.504605" lon="8.680775">
        <ele>244.690495</ele>
        <time>2026-05-04T12:27:11.908Z</time>
      </trkpt>
      <trkpt lat="50.504639" lon="8.680812">
        <ele>244.688647</ele>
        <time>2026-05-04T12:27:12.303Z</time>
      </trkpt>
      <trkpt lat="50.505082" lon="8.681311">
        <ele>243.817257</ele>
        <time>2026-05-04T12:27:19.176Z</time>
      </trkpt>
      <trkpt lat="50.505510" lon="8.681755">
        <ele>241.862098</ele>
        <time>2026-05-04T12:27:23.273Z</time>
      </trkpt>
      <trkpt lat="50.505641" lon="8.681820">
        <ele>241.338316</ele>
        <time>2026-05-04T12:27:24.328Z</time>
      </trkpt>
      <trkpt lat="50.506171" lon="8.682264">
        <ele>239.048492</ele>
        <time>2026-05-04T12:27:28.995Z</time>
      </trkpt>
      <trkpt lat="50.506620" lon="8.682462">
        <ele>237.120965</ele>
        <time>2026-05-04T12:27:32.512Z</time>
      </trkpt>
      <trkpt lat="50.506862" lon="8.682511">
        <ele>235.935841</ele>
        <time>2026-05-04T12:27:34.309Z</time>
      </trkpt>
      <trkpt lat="50.507230" lon="8.682527">
        <ele>234.147744</ele>
        <time>2026-05-04T12:27:37.044Z</time>
      </trkpt>
      <trkpt lat="50.509357" lon="8.681881">
        <ele>224.364802</ele>
        <time>2026-05-04T12:27:53.641Z</time>
      </trkpt>
      <trkpt lat="50.509771" lon="8.681707">
        <ele>222.565414</ele>
        <time>2026-05-04T12:27:57.008Z</time>
      </trkpt>
      <trkpt lat="50.510675" lon="8.681190">
        <ele>219.148344</ele>
        <time>2026-05-04T12:28:04.667Z</time>
      </trkpt>
      <trkpt lat="50.511750" lon="8.680575">
        <ele>215.375233</ele>
        <time>2026-05-04T12:28:13.933Z</time>
      </trkpt>
      <trkpt lat="50.512032" lon="8.680443">
        <ele>214.565720</ele>
        <time>2026-05-04T12:28:16.356Z</time>
      </trkpt>
      <trkpt lat="50.513410" lon="8.679803">
        <ele>210.612516</ele>
        <time>2026-05-04T12:28:28.380Z</time>
      </trkpt>
      <trkpt lat="50.513966" lon="8.679576">
        <ele>209.230906</ele>
        <time>2026-05-04T12:28:33.209Z</time>
      </trkpt>
      <trkpt lat="50.514457" lon="8.679286">
        <ele>207.971831</ele>
        <time>2026-05-04T12:28:37.654Z</time>
      </trkpt>
      <trkpt lat="50.514811" lon="8.678935">
        <ele>206.967219</ele>
        <time>2026-05-04T12:28:41.240Z</time>
      </trkpt>
      <trkpt lat="50.516268" lon="8.677490">
        <ele>203.400612</ele>
        <time>2026-05-04T12:28:56.417Z</time>
      </trkpt>
      <trkpt lat="50.518118" lon="8.676091">
        <ele>199.228492</ele>
        <time>2026-05-04T12:29:14.410Z</time>
      </trkpt>
      <trkpt lat="50.518799" lon="8.675594">
        <ele>197.542873</ele>
        <time>2026-05-04T12:29:20.889Z</time>
      </trkpt>
      <trkpt lat="50.519340" lon="8.675313">
        <ele>196.243283</ele>
        <time>2026-05-04T12:29:25.780Z</time>
      </trkpt>
      <trkpt lat="50.520002" lon="8.675074">
        <ele>194.676628</ele>
        <time>2026-05-04T12:29:31.562Z</time>
      </trkpt>
      <trkpt lat="50.520786" lon="8.674970">
        <ele>192.730834</ele>
        <time>2026-05-04T12:29:38.264Z</time>
      </trkpt>
      <trkpt lat="50.521835" lon="8.674937">
        <ele>190.060896</ele>
        <time>2026-05-04T12:29:47.159Z</time>
      </trkpt>
      <trkpt lat="50.522602" lon="8.674943">
        <ele>187.712496</ele>
        <time>2026-05-04T12:29:53.498Z</time>
      </trkpt>
      <trkpt lat="50.522905" lon="8.674946">
        <ele>186.784763</ele>
        <time>2026-05-04T12:29:55.967Z</time>
      </trkpt>
      <trkpt lat="50.522963" lon="8.675071">
        <ele>186.483531</ele>
        <time>2026-05-04T12:29:56.765Z</time>
      </trkpt>
      <trkpt lat="50.523505" lon="8.675053">
        <ele>184.830202</ele>
        <time>2026-05-04T12:30:01.097Z</time>
      </trkpt>
      <trkpt lat="50.524007" lon="8.674959">
        <ele>183.365703</ele>
        <time>2026-05-04T12:30:05.105Z</time>
      </trkpt>
      <trkpt lat="50.524013" lon="8.675003">
        <ele>183.282825</ele>
        <time>2026-05-04T12:30:05.335Z</time>
      </trkpt>
      <trkpt lat="50.524667" lon="8.674888">
        <ele>181.376468</ele>
        <time>2026-05-04T12:30:10.736Z</time>
      </trkpt>
      <trkpt lat="50.525521" lon="8.674725">
        <ele>179.290981</ele>
        <time>2026-05-04T12:30:18.076Z</time>
      </trkpt>
      <trkpt lat="50.526479" lon="8.674351">
        <ele>177.799584</ele>
        <time>2026-05-04T12:30:27.180Z</time>
      </trkpt>
      <trkpt lat="50.526755" lon="8.674209">
        <ele>177.360825</ele>
        <time>2026-05-04T12:30:29.931Z</time>
      </trkpt>
      <trkpt lat="50.526970" lon="8.674074">
        <ele>177.015728</ele>
        <time>2026-05-04T12:30:32.172Z</time>
      </trkpt>
      <trkpt lat="50.527915" lon="8.673550">
        <ele>176.778507</ele>
        <time>2026-05-04T12:30:42.940Z</time>
      </trkpt>
      <trkpt lat="50.527952" lon="8.673506">
        <ele>176.767526</ele>
        <time>2026-05-04T12:30:43.471Z</time>
      </trkpt>
      <trkpt lat="50.528035" lon="8.674039">
        <ele>176.684937</ele>
        <time>2026-05-04T12:30:47.689Z</time>
      </trkpt>
      <trkpt lat="50.528274" lon="8.675593">
        <ele>176.985258</ele>
        <time>2026-05-04T12:31:00.825Z</time>
      </trkpt>
      <trkpt lat="50.528517" lon="8.676220">
        <ele>177.282938</ele>
        <time>2026-05-04T12:31:07.383Z</time>
      </trkpt>
      <trkpt lat="50.528631" lon="8.676619">
        <ele>177.460266</ele>
        <time>2026-05-04T12:31:11.438Z</time>
      </trkpt>
      <trkpt lat="50.528671" lon="8.676696">
        <ele>177.500576</ele>
        <time>2026-05-04T12:31:12.374Z</time>
      </trkpt>
      <trkpt lat="50.528616" lon="8.676902">
        <ele>177.591149</ele>
        <time>2026-05-04T12:31:14.476Z</time>
      </trkpt>
      <trkpt lat="50.528613" lon="8.677239">
        <ele>177.727772</ele>
        <time>2026-05-04T12:31:17.651Z</time>
      </trkpt>
      <trkpt lat="50.528802" lon="8.678007">
        <ele>178.217289</ele>
        <time>2026-05-04T12:31:25.570Z</time>
      </trkpt>
      <trkpt lat="50.529102" lon="8.680005">
        <ele>179.437709</ele>
        <time>2026-05-04T12:31:45.324Z</time>
      </trkpt>
      <trkpt lat="50.529274" lon="8.681121">
        <ele>179.524284</ele>
        <time>2026-05-04T12:31:54.854Z</time>
      </trkpt>
      <trkpt lat="50.529462" lon="8.682846">
        <ele>179.654043</ele>
        <time>2026-05-04T12:32:07.274Z</time>
      </trkpt>
      <trkpt lat="50.529569" lon="8.683836">
        <ele>179.705740</ele>
        <time>2026-05-04T12:32:14.697Z</time>
      </trkpt>
      <trkpt lat="50.529517" lon="8.683881">
        <ele>179.710546</ele>
        <time>2026-05-04T12:32:15.481Z</time>
      </trkpt>
      <trkpt lat="50.529501" lon="8.683970">
        <ele>179.715308</ele>
        <time>2026-05-04T12:32:16.261Z</time>
      </trkpt>
      <trkpt lat="50.529533" lon="8.684055">
        <ele>179.720393</ele>
        <time>2026-05-04T12:32:17.065Z</time>
      </trkpt>
      <trkpt lat="50.529595" lon="8.684073">
        <ele>179.725499</ele>
        <time>2026-05-04T12:32:17.888Z</time>
      </trkpt>
      <trkpt lat="50.529606" lon="8.684187">
        <ele>179.731435</ele>
        <time>2026-05-04T12:32:18.825Z</time>
      </trkpt>
      <trkpt lat="50.529556" lon="8.684199">
        <ele>179.735531</ele>
        <time>2026-05-04T12:32:19.498Z</time>
      </trkpt>
      <trkpt lat="50.529565" lon="8.684288">
        <ele>179.740171</ele>
        <time>2026-05-04T12:32:20.247Z</time>
      </trkpt>
      <trkpt lat="50.529686" lon="8.685470">
        <ele>179.795472</ele>
        <time>2026-05-04T12:32:29.847Z</time>
      </trkpt>
      <trkpt lat="50.529782" lon="8.686478">
        <ele>179.799161</ele>
        <time>2026-05-04T12:32:37.435Z</time>
      </trkpt>
      <trkpt lat="50.529956" lon="8.687282">
        <ele>179.802235</ele>
        <time>2026-05-04T12:32:43.301Z</time>
      </trkpt>
      <trkpt lat="50.530019" lon="8.687508">
        <ele>179.803128</ele>
        <time>2026-05-04T12:32:45.011Z</time>
      </trkpt>
      <trkpt lat="50.530109" lon="8.687719">
        <ele>179.804048</ele>
        <time>2026-05-04T12:32:46.878Z</time>
      </trkpt>
      <trkpt lat="50.530642" lon="8.688680">
        <ele>180.358250</ele>
        <time>2026-05-04T12:32:58.066Z</time>
      </trkpt>
      <trkpt lat="50.530885" lon="8.689225">
        <ele>180.746734</ele>
        <time>2026-05-04T12:33:04.938Z</time>
      </trkpt>
      <trkpt lat="50.531135" lon="8.690087">
        <ele>181.299654</ele>
        <time>2026-05-04T12:33:14.742Z</time>
      </trkpt>
      <trkpt lat="50.531288" lon="8.690996">
        <ele>181.357987</ele>
        <time>2026-05-04T12:33:23.427Z</time>
      </trkpt>
      <trkpt lat="50.531540" lon="8.692759">
        <ele>181.092991</ele>
        <time>2026-05-04T12:33:35.514Z</time>
      </trkpt>
      <trkpt lat="50.531786" lon="8.694521">
        <ele>180.762305</ele>
        <time>2026-05-04T12:33:46.714Z</time>
      </trkpt>
      <trkpt lat="50.532067" lon="8.696537">
        <ele>181.124288</ele>
        <time>2026-05-04T12:34:03.389Z</time>
      </trkpt>
      <trkpt lat="50.532353" lon="8.699449">
        <ele>184.238753</ele>
        <time>2026-05-04T12:34:36.688Z</time>
      </trkpt>
      <trkpt lat="50.532425" lon="8.700215">
        <ele>185.357248</ele>
        <time>2026-05-04T12:34:46.578Z</time>
      </trkpt>
      <trkpt lat="50.532550" lon="8.701531">
        <ele>187.273752</ele>
        <time>2026-05-04T12:35:03.325Z</time>
      </trkpt>
      <trkpt lat="50.532607" lon="8.701914">
        <ele>187.814640</ele>
        <time>2026-05-04T12:35:08.207Z</time>
      </trkpt>
      <trkpt lat="50.532630" lon="8.701958">
        <ele>187.892974</ele>
        <time>2026-05-04T12:35:08.881Z</time>
      </trkpt>
      <trkpt lat="50.532678" lon="8.701948">
        <ele>187.997717</ele>
        <time>2026-05-04T12:35:12.284Z</time>
      </trkpt>
      <trkpt lat="50.532711" lon="8.702007">
        <ele>188.105782</ele>
        <time>2026-05-04T12:35:13.239Z</time>
      </trkpt>
      <trkpt lat="50.532796" lon="8.702582">
        <ele>188.917536</ele>
        <time>2026-05-04T12:35:20.164Z</time>
      </trkpt>
      <trkpt lat="50.532846" lon="8.703193">
        <ele>189.764625</ele>
        <time>2026-05-04T12:35:27.223Z</time>
      </trkpt>
      <trkpt lat="50.532908" lon="8.703194">
        <ele>189.898754</ele>
        <time>2026-05-04T12:35:28.326Z</time>
      </trkpt>
      <trkpt lat="50.532916" lon="8.703322">
        <ele>190.075609</ele>
        <time>2026-05-04T12:35:29.795Z</time>
      </trkpt>
      <trkpt lat="50.532856" lon="8.703363">
        <ele>190.217119</ele>
        <time>2026-05-04T12:35:30.975Z</time>
      </trkpt>
      <trkpt lat="50.532819" lon="8.703502">
        <ele>190.424334</ele>
        <time>2026-05-04T12:35:32.724Z</time>
      </trkpt>
      <trkpt lat="50.532845" lon="8.703601">
        <ele>190.571626</ele>
        <time>2026-05-04T12:35:34.016Z</time>
      </trkpt>
      <trkpt lat="50.532939" lon="8.703658">
        <ele>190.789554</ele>
        <time>2026-05-04T12:35:35.906Z</time>
      </trkpt>
      <trkpt lat="50.533039" lon="8.705195">
        <ele>193.067071</ele>
        <time>2026-05-04T12:35:54.998Z</time>
      </trkpt>
      <trkpt lat="50.533104" lon="8.706486">
        <ele>194.994421</ele>
        <time>2026-05-04T12:36:11.623Z</time>
      </trkpt>
      <trkpt lat="50.533102" lon="8.708300">
        <ele>196.561369</ele>
        <time>2026-05-04T12:36:32.091Z</time>
      </trkpt>
      <trkpt lat="50.533101" lon="8.708852">
        <ele>196.999541</ele>
        <time>2026-05-04T12:36:36.914Z</time>
      </trkpt>
      <trkpt lat="50.533114" lon="8.709048">
        <ele>197.155968</ele>
        <time>2026-05-04T12:36:38.543Z</time>
      </trkpt>
      <trkpt lat="50.533178" lon="8.709306">
        <ele>197.375808</ele>
        <time>2026-05-04T12:36:40.803Z</time>
      </trkpt>
      <trkpt lat="50.533335" lon="8.709898">
        <ele>197.638617</ele>
        <time>2026-05-04T12:36:45.678Z</time>
      </trkpt>
      <trkpt lat="50.533604" lon="8.711121">
        <ele>197.985900</ele>
        <time>2026-05-04T12:36:55.092Z</time>
      </trkpt>
      <trkpt lat="50.533718" lon="8.711932">
        <ele>198.208787</ele>
        <time>2026-05-04T12:37:02.641Z</time>
      </trkpt>
      <trkpt lat="50.533890" lon="8.713424">
        <ele>200.058978</ele>
        <time>2026-05-04T12:37:18.957Z</time>
      </trkpt>
      <trkpt lat="50.533926" lon="8.713729">
        <ele>200.491937</ele>
        <time>2026-05-04T12:37:22.771Z</time>
      </trkpt>
      <trkpt lat="50.534012" lon="8.714328">
        <ele>201.349009</ele>
        <time>2026-05-04T12:37:30.862Z</time>
      </trkpt>
      <trkpt lat="50.534052" lon="8.714602">
        <ele>201.741381</ele>
        <time>2026-05-04T12:37:34.711Z</time>
      </trkpt>
      <trkpt lat="50.534104" lon="8.714922">
        <ele>202.202361</ele>
        <time>2026-05-04T12:37:39.335Z</time>
      </trkpt>
      <trkpt lat="50.534175" lon="8.715411">
        <ele>203.086563</ele>
        <time>2026-05-04T12:37:46.270Z</time>
      </trkpt>
      <trkpt lat="50.534273" lon="8.715898">
        <ele>203.992314</ele>
        <time>2026-05-04T12:37:53.190Z</time>
      </trkpt>
      <trkpt lat="50.534429" lon="8.716479">
        <ele>205.110638</ele>
        <time>2026-05-04T12:38:01.673Z</time>
      </trkpt>
      <trkpt lat="50.534599" lon="8.717145">
        <ele>206.383193</ele>
        <time>2026-05-04T12:38:11.301Z</time>
      </trkpt>
      <trkpt lat="50.534610" lon="8.717184">
        <ele>206.458846</ele>
        <time>2026-05-04T12:38:11.852Z</time>
      </trkpt>
      <trkpt lat="50.534834" lon="8.718084">
        <ele>207.631874</ele>
        <time>2026-05-04T12:38:23.906Z</time>
      </trkpt>
      <trkpt lat="50.534986" lon="8.718825">
        <ele>208.212803</ele>
        <time>2026-05-04T12:38:32.184Z</time>
      </trkpt>
      <trkpt lat="50.535100" lon="8.719387">
        <ele>208.652939</ele>
        <time>2026-05-04T12:38:37.625Z</time>
      </trkpt>
      <trkpt lat="50.535269" lon="8.720014">
        <ele>209.161057</ele>
        <time>2026-05-04T12:38:43.298Z</time>
      </trkpt>
      <trkpt lat="50.535384" lon="8.720297">
        <ele>209.399514</ele>
        <time>2026-05-04T12:38:45.870Z</time>
      </trkpt>
      <trkpt lat="50.535736" lon="8.720910">
        <ele>209.893805</ele>
        <time>2026-05-04T12:38:51.926Z</time>
      </trkpt>
      <trkpt lat="50.536416" lon="8.722047">
        <ele>210.827914</ele>
        <time>2026-05-04T12:39:07.008Z</time>
      </trkpt>
      <trkpt lat="50.536826" lon="8.722734">
        <ele>211.698195</ele>
        <time>2026-05-04T12:39:18.332Z</time>
      </trkpt>
      <trkpt lat="50.536999" lon="8.723036">
        <ele>212.155482</ele>
        <time>2026-05-04T12:39:23.176Z</time>
      </trkpt>
      <trkpt lat="50.537160" lon="8.723391">
        <ele>212.646003</ele>
        <time>2026-05-04T12:39:28.267Z</time>
      </trkpt>
      <trkpt lat="50.537275" lon="8.723733">
        <ele>213.081188</ele>
        <time>2026-05-04T12:39:32.765Z</time>
      </trkpt>
      <trkpt lat="50.537433" lon="8.724365">
        <ele>213.845048</ele>
        <time>2026-05-04T12:39:40.322Z</time>
      </trkpt>
      <trkpt lat="50.537507" lon="8.724695">
        <ele>214.228227</ele>
        <time>2026-05-04T12:39:43.974Z</time>
      </trkpt>
      <trkpt lat="50.537795" lon="8.725989">
        <ele>214.447945</ele>
        <time>2026-05-04T12:39:56.875Z</time>
      </trkpt>
      <trkpt lat="50.537942" lon="8.726879">
        <ele>214.595309</ele>
        <time>2026-05-04T12:40:03.745Z</time>
      </trkpt>
      <trkpt lat="50.538050" lon="8.727691">
        <ele>214.392488</ele>
        <time>2026-05-04T12:40:08.927Z</time>
      </trkpt>
      <trkpt lat="50.538149" lon="8.728733">
        <ele>213.386152</ele>
        <time>2026-05-04T12:40:14.894Z</time>
      </trkpt>
      <trkpt lat="50.538215" lon="8.729295">
        <ele>212.840266</ele>
        <time>2026-05-04T12:40:18.056Z</time>
      </trkpt>
      <trkpt lat="50.538389" lon="8.730528">
        <ele>211.906617</ele>
        <time>2026-05-04T12:40:25.458Z</time>
      </trkpt>
      <trkpt lat="50.538595" lon="8.731570">
        <ele>211.693008</ele>
        <time>2026-05-04T12:40:32.818Z</time>
      </trkpt>
      <trkpt lat="50.538533" lon="8.731607">
        <ele>211.672585</ele>
        <time>2026-05-04T12:40:33.926Z</time>
      </trkpt>
      <trkpt lat="50.538490" lon="8.731747">
        <ele>211.642147</ele>
        <time>2026-05-04T12:40:35.508Z</time>
      </trkpt>
      <trkpt lat="50.538439" lon="8.732116">
        <ele>211.568228</ele>
        <time>2026-05-04T12:40:39.586Z</time>
      </trkpt>
      <trkpt lat="50.538496" lon="8.732196">
        <ele>211.544703</ele>
        <time>2026-05-04T12:40:40.886Z</time>
      </trkpt>
      <trkpt lat="50.538562" lon="8.732306">
        <ele>211.515091</ele>
        <time>2026-05-04T12:40:42.550Z</time>
      </trkpt>
      <trkpt lat="50.538513" lon="8.732452">
        <ele>211.482772</ele>
        <time>2026-05-04T12:40:43.970Z</time>
      </trkpt>
      <trkpt lat="50.538498" lon="8.732605">
        <ele>211.452468</ele>
        <time>2026-05-04T12:40:45.255Z</time>
      </trkpt>
      <trkpt lat="50.538534" lon="8.733242">
        <ele>211.629665</ele>
        <time>2026-05-04T12:40:50.737Z</time>
      </trkpt>
      <trkpt lat="50.538603" lon="8.734677">
        <ele>212.238371</ele>
        <time>2026-05-04T12:41:01.943Z</time>
      </trkpt>
      <trkpt lat="50.538639" lon="8.735510">
        <ele>212.591524</ele>
        <time>2026-05-04T12:41:10.140Z</time>
      </trkpt>
      <trkpt lat="50.538723" lon="8.736168">
        <ele>213.513096</ele>
        <time>2026-05-04T12:41:17.895Z</time>
      </trkpt>
      <trkpt lat="50.538867" lon="8.737027">
        <ele>214.827006</ele>
        <time>2026-05-04T12:41:29.230Z</time>
      </trkpt>
      <trkpt lat="50.538916" lon="8.737531">
        <ele>215.581091</ele>
        <time>2026-05-04T12:41:36.127Z</time>
      </trkpt>
      <trkpt lat="50.538913" lon="8.738360">
        <ele>216.807221</ele>
        <time>2026-05-04T12:41:46.735Z</time>
      </trkpt>
      <trkpt lat="50.538864" lon="8.738867">
        <ele>217.576454</ele>
        <time>2026-05-04T12:41:53.048Z</time>
      </trkpt>
      <trkpt lat="50.538667" lon="8.739920">
        <ele>219.222950</ele>
        <time>2026-05-04T12:42:06.584Z</time>
      </trkpt>
      <trkpt lat="50.538483" lon="8.741077">
        <ele>221.011948</ele>
        <time>2026-05-04T12:42:21.271Z</time>
      </trkpt>
      <trkpt lat="50.538452" lon="8.741073">
        <ele>221.068412</ele>
        <time>2026-05-04T12:42:21.863Z</time>
      </trkpt>
      <trkpt lat="50.538253" lon="8.742197">
        <ele>221.965214</ele>
        <time>2026-05-04T12:42:35.662Z</time>
      </trkpt>
      <trkpt lat="50.538166" lon="8.742599">
        <ele>222.291615</ele>
        <time>2026-05-04T12:42:40.156Z</time>
      </trkpt>
      <trkpt lat="50.537974" lon="8.743358">
        <ele>222.919497</ele>
        <time>2026-05-04T12:42:47.662Z</time>
      </trkpt>
      <trkpt lat="50.537904" lon="8.743638">
        <ele>223.150758</ele>
        <time>2026-05-04T12:42:50.009Z</time>
      </trkpt>
      <trkpt lat="50.537732" lon="8.744110">
        <ele>223.086542</ele>
        <time>2026-05-04T12:42:53.598Z</time>
      </trkpt>
      <trkpt lat="50.537466" lon="8.744653">
        <ele>222.872794</ele>
        <time>2026-05-04T12:42:57.921Z</time>
      </trkpt>
      <trkpt lat="50.537240" lon="8.745017">
        <ele>222.714141</ele>
        <time>2026-05-04T12:43:01.197Z</time>
      </trkpt>
      <trkpt lat="50.537028" lon="8.745285">
        <ele>222.580734</ele>
        <time>2026-05-04T12:43:03.978Z</time>
      </trkpt>
      <trkpt lat="50.536746" lon="8.745576">
        <ele>222.415300</ele>
        <time>2026-05-04T12:43:07.502Z</time>
      </trkpt>
      <trkpt lat="50.536293" lon="8.745949">
        <ele>222.438376</ele>
        <time>2026-05-04T12:43:13.120Z</time>
      </trkpt>
      <trkpt lat="50.535834" lon="8.746275">
        <ele>222.569465</ele>
        <time>2026-05-04T12:43:19.681Z</time>
      </trkpt>
      <trkpt lat="50.535644" lon="8.746402">
        <ele>222.623202</ele>
        <time>2026-05-04T12:43:22.554Z</time>
      </trkpt>
      <trkpt lat="50.534930" lon="8.746836">
        <ele>222.856670</ele>
        <time>2026-05-04T12:43:32.826Z</time>
      </trkpt>
      <trkpt lat="50.534360" lon="8.747138">
        <ele>223.508051</ele>
        <time>2026-05-04T12:43:40.972Z</time>
      </trkpt>
      <trkpt lat="50.534102" lon="8.747275">
        <ele>223.802954</ele>
        <time>2026-05-04T12:43:44.957Z</time>
      </trkpt>
      <trkpt lat="50.533823" lon="8.747395">
        <ele>224.116202</ele>
        <time>2026-05-04T12:43:49.470Z</time>
      </trkpt>
      <trkpt lat="50.533718" lon="8.747439">
        <ele>224.233883</ele>
        <time>2026-05-04T12:43:51.249Z</time>
      </trkpt>
      <trkpt lat="50.532924" lon="8.747642">
        <ele>225.241998</ele>
        <time>2026-05-04T12:44:05.353Z</time>
      </trkpt>
      <trkpt lat="50.532294" lon="8.747789">
        <ele>226.205110</ele>
        <time>2026-05-04T12:44:16.511Z</time>
      </trkpt>
      <trkpt lat="50.531952" lon="8.747871">
        <ele>226.728257</ele>
        <time>2026-05-04T12:44:22.260Z</time>
      </trkpt>
      <trkpt lat="50.531825" lon="8.747900">
        <ele>226.922320</ele>
        <time>2026-05-04T12:44:24.335Z</time>
      </trkpt>
      <trkpt lat="50.531712" lon="8.747927">
        <ele>227.095159</ele>
        <time>2026-05-04T12:44:26.135Z</time>
      </trkpt>
      <trkpt lat="50.531271" lon="8.748029">
        <ele>227.782200</ele>
        <time>2026-05-04T12:44:32.914Z</time>
      </trkpt>
      <trkpt lat="50.530994" lon="8.748094">
        <ele>228.224703</ele>
        <time>2026-05-04T12:44:37.190Z</time>
      </trkpt>
      <trkpt lat="50.530843" lon="8.748129">
        <ele>228.465860</ele>
        <time>2026-05-04T12:44:39.528Z</time>
      </trkpt>
      <trkpt lat="50.530803" lon="8.748138">
        <ele>228.529703</ele>
        <time>2026-05-04T12:44:40.152Z</time>
      </trkpt>
      <trkpt lat="50.530378" lon="8.748228">
        <ele>229.207261</ele>
        <time>2026-05-04T12:44:47.016Z</time>
      </trkpt>
      <trkpt lat="50.529661" lon="8.748382">
        <ele>230.331956</ele>
        <time>2026-05-04T12:45:00.731Z</time>
      </trkpt>
      <trkpt lat="50.529641" lon="8.748386">
        <ele>230.343489</ele>
        <time>2026-05-04T12:45:01.109Z</time>
      </trkpt>
      <trkpt lat="50.529044" lon="8.748508">
        <ele>230.687867</ele>
        <time>2026-05-04T12:45:12.366Z</time>
      </trkpt>
      <trkpt lat="50.529006" lon="8.748516">
        <ele>230.709798</ele>
        <time>2026-05-04T12:45:13.018Z</time>
      </trkpt>
      <trkpt lat="50.528798" lon="8.748559">
        <ele>230.829806</ele>
        <time>2026-05-04T12:45:16.300Z</time>
      </trkpt>
      <trkpt lat="50.528676" lon="8.748620">
        <ele>230.903036</ele>
        <time>2026-05-04T12:45:18.135Z</time>
      </trkpt>
      <trkpt lat="50.528545" lon="8.748818">
        <ele>231.006958</ele>
        <time>2026-05-04T12:45:20.492Z</time>
      </trkpt>
      <trkpt lat="50.528466" lon="8.749103">
        <ele>231.120020</ele>
        <time>2026-05-04T12:45:22.755Z</time>
      </trkpt>
      <trkpt lat="50.528388" lon="8.749585">
        <ele>231.300887</ele>
        <time>2026-05-04T12:45:25.923Z</time>
      </trkpt>
      <trkpt lat="50.528187" lon="8.751068">
        <ele>229.454466</ele>
        <time>2026-05-04T12:45:34.137Z</time>
      </trkpt>
      <trkpt lat="50.528065" lon="8.752222">
        <ele>227.848039</ele>
        <time>2026-05-04T12:45:40.337Z</time>
      </trkpt>
      <trkpt lat="50.528077" lon="8.752368">
        <ele>227.645885</ele>
        <time>2026-05-04T12:45:41.149Z</time>
      </trkpt>
      <trkpt lat="50.528136" lon="8.752493">
        <ele>227.451070</ele>
        <time>2026-05-04T12:45:42.020Z</time>
      </trkpt>
      <trkpt lat="50.528301" lon="8.752705">
        <ele>227.256606</ele>
        <time>2026-05-04T12:45:43.932Z</time>
      </trkpt>
      <trkpt lat="50.528507" lon="8.752932">
        <ele>227.027026</ele>
        <time>2026-05-04T12:45:46.280Z</time>
      </trkpt>
      <trkpt lat="50.528530" lon="8.752960">
        <ele>227.000479</ele>
        <time>2026-05-04T12:45:46.555Z</time>
      </trkpt>
      <trkpt lat="50.529890" lon="8.754550">
        <ele>225.849463</ele>
        <time>2026-05-04T12:46:04.585Z</time>
      </trkpt>
      <trkpt lat="50.530227" lon="8.754885">
        <ele>225.875365</ele>
        <time>2026-05-04T12:46:09.261Z</time>
      </trkpt>
      <trkpt lat="50.530447" lon="8.755030">
        <ele>225.890864</ele>
        <time>2026-05-04T12:46:12.118Z</time>
      </trkpt>
      <trkpt lat="50.530550" lon="8.755143">
        <ele>225.899023</ele>
        <time>2026-05-04T12:46:13.656Z</time>
      </trkpt>
      <trkpt lat="50.530565" lon="8.755260">
        <ele>225.903953</ele>
        <time>2026-05-04T12:46:14.559Z</time>
      </trkpt>
      <trkpt lat="50.530528" lon="8.755567">
        <ele>225.916859</ele>
        <time>2026-05-04T12:46:16.937Z</time>
      </trkpt>
      <trkpt lat="50.530420" lon="8.755943">
        <ele>225.933901</ele>
        <time>2026-05-04T12:46:20.238Z</time>
      </trkpt>
      <trkpt lat="50.530397" lon="8.756167">
        <ele>226.004110</ele>
        <time>2026-05-04T12:46:22.261Z</time>
      </trkpt>
      <trkpt lat="50.530704" lon="8.756280">
        <ele>226.409893</ele>
        <time>2026-05-04T12:46:27.140Z</time>
      </trkpt>
      <trkpt lat="50.530740" lon="8.756293">
        <ele>226.457430</ele>
        <time>2026-05-04T12:46:27.740Z</time>
      </trkpt>
      <trkpt lat="50.530921" lon="8.756359">
        <ele>226.696555</ele>
        <time>2026-05-04T12:46:30.735Z</time>
      </trkpt>
      <trkpt lat="50.531442" lon="8.756760">
        <ele>227.443037</ele>
        <time>2026-05-04T12:46:39.985Z</time>
      </trkpt>
      <trkpt lat="50.531562" lon="8.756513">
        <ele>227.697368</ele>
        <time>2026-05-04T12:46:43.219Z</time>
      </trkpt>
      <trkpt lat="50.532134" lon="8.757117">
        <ele>228.691033</ele>
        <time>2026-05-04T12:46:55.149Z</time>
      </trkpt>
      <trkpt lat="50.532406" lon="8.757409">
        <ele>229.252686</ele>
        <time>2026-05-04T12:47:01.149Z</time>
      </trkpt>
      <trkpt lat="50.533217" lon="8.758281">
        <ele>230.928151</ele>
        <time>2026-05-04T12:47:18.781Z</time>
      </trkpt>
      <trkpt lat="50.534008" lon="8.759133">
        <ele>231.684784</ele>
        <time>2026-05-04T12:47:33.355Z</time>
      </trkpt>
      <trkpt lat="50.535342" lon="8.760538">
        <ele>231.570270</ele>
        <time>2026-05-04T12:47:52.790Z</time>
      </trkpt>
      <trkpt lat="50.535471" lon="8.760687">
        <ele>231.376107</ele>
        <time>2026-05-04T12:47:54.344Z</time>
      </trkpt>
      <trkpt lat="50.535410" lon="8.760918">
        <ele>231.183205</ele>
        <time>2026-05-04T12:47:55.864Z</time>
      </trkpt>
      <trkpt lat="50.535403" lon="8.760924">
        <ele>231.173534</ele>
        <time>2026-05-04T12:47:55.946Z</time>
      </trkpt>
      <trkpt lat="50.535627" lon="8.761188">
        <ele>230.833961</ele>
        <time>2026-05-04T12:47:58.550Z</time>
      </trkpt>
      <trkpt lat="50.535653" lon="8.761125">
        <ele>230.776035</ele>
        <time>2026-05-04T12:47:58.978Z</time>
      </trkpt>
      <trkpt lat="50.535898" lon="8.760538">
        <ele>230.234490</ele>
        <time>2026-05-04T12:48:02.921Z</time>
      </trkpt>
      <trkpt lat="50.536217" lon="8.759832">
        <ele>229.034584</ele>
        <time>2026-05-04T12:48:07.569Z</time>
      </trkpt>
      <trkpt lat="50.536562" lon="8.759181">
        <ele>227.640194</ele>
        <time>2026-05-04T12:48:12.015Z</time>
      </trkpt>
      <trkpt lat="50.536808" lon="8.758786">
        <ele>226.730435</ele>
        <time>2026-05-04T12:48:14.974Z</time>
      </trkpt>
      <trkpt lat="50.537123" lon="8.758307">
        <ele>225.596564</ele>
        <time>2026-05-04T12:48:18.634Z</time>
      </trkpt>
      <trkpt lat="50.537975" lon="8.757223">
        <ele>223.209969</ele>
        <time>2026-05-04T12:48:27.911Z</time>
      </trkpt>
      <trkpt lat="50.539443" lon="8.755468">
        <ele>220.899504</ele>
        <time>2026-05-04T12:48:44.604Z</time>
      </trkpt>
      <trkpt lat="50.539804" lon="8.755019">
        <ele>220.627864</ele>
        <time>2026-05-04T12:48:50.528Z</time>
      </trkpt>
      <trkpt lat="50.539872" lon="8.754935">
        <ele>220.576830</ele>
        <time>2026-05-04T12:48:51.771Z</time>
      </trkpt>
      <trkpt lat="50.540594" lon="8.754034">
        <ele>221.560887</ele>
        <time>2026-05-04T12:49:07.241Z</time>
      </trkpt>
      <trkpt lat="50.540649" lon="8.754103">
        <ele>221.667268</ele>
        <time>2026-05-04T12:49:08.535Z</time>
      </trkpt>
      <trkpt lat="50.540754" lon="8.754117">
        <ele>221.826633</ele>
        <time>2026-05-04T12:49:10.498Z</time>
      </trkpt>
      <trkpt lat="50.540841" lon="8.754025">
        <ele>221.985159</ele>
        <time>2026-05-04T12:49:12.482Z</time>
      </trkpt>
      <trkpt lat="50.542669" lon="8.755776">
        <ele>224.786657</ele>
        <time>2026-05-04T12:49:48.198Z</time>
      </trkpt>
      <trkpt lat="50.543371" lon="8.756520">
        <ele>225.480244</ele>
        <time>2026-05-04T12:49:59.483Z</time>
      </trkpt>
      <trkpt lat="50.543300" lon="8.756625">
        <ele>225.519133</ele>
        <time>2026-05-04T12:50:00.648Z</time>
      </trkpt>
      <trkpt lat="50.543739" lon="8.757134">
        <ele>225.736781</ele>
        <time>2026-05-04T12:50:07.189Z</time>
      </trkpt>
      <trkpt lat="50.544294" lon="8.758051">
        <ele>226.118107</ele>
        <time>2026-05-04T12:50:17.665Z</time>
      </trkpt>
      <trkpt lat="50.544613" lon="8.758763">
        <ele>227.074747</ele>
        <time>2026-05-04T12:50:26.037Z</time>
      </trkpt>
      <trkpt lat="50.544845" lon="8.759397">
        <ele>227.878123</ele>
        <time>2026-05-04T12:50:33.909Z</time>
      </trkpt>
      <trkpt lat="50.544867" lon="8.759564">
        <ele>228.065405</ele>
        <time>2026-05-04T12:50:35.864Z</time>
      </trkpt>
      <trkpt lat="50.545774" lon="8.762866">
        <ele>234.035840</ele>
        <time>2026-05-04T12:51:23.165Z</time>
      </trkpt>
      <trkpt lat="50.546250" lon="8.764133">
        <ele>237.877453</ele>
        <time>2026-05-04T12:51:45.912Z</time>
      </trkpt>
      <trkpt lat="50.547815" lon="8.767257">
        <ele>249.884638</ele>
        <time>2026-05-04T12:52:54.850Z</time>
      </trkpt>
      <trkpt lat="50.548513" lon="8.768639">
        <ele>255.061600</ele>
        <time>2026-05-04T12:53:29.651Z</time>
      </trkpt>
      <trkpt lat="50.548581" lon="8.768705">
        <ele>255.419392</ele>
        <time>2026-05-04T12:53:32.020Z</time>
      </trkpt>
      <trkpt lat="50.548974" lon="8.769486">
        <ele>258.254370</ele>
        <time>2026-05-04T12:53:47.915Z</time>
      </trkpt>
      <trkpt lat="50.549005" lon="8.769610">
        <ele>258.633563</ele>
        <time>2026-05-04T12:53:49.660Z</time>
      </trkpt>
      <trkpt lat="50.548975" lon="8.769827">
        <ele>259.265521</ele>
        <time>2026-05-04T12:53:52.456Z</time>
      </trkpt>
      <trkpt lat="50.549016" lon="8.769906">
        <ele>259.253889</ele>
        <time>2026-05-04T12:53:53.701Z</time>
      </trkpt>
      <trkpt lat="50.549091" lon="8.769807">
        <ele>259.138062</ele>
        <time>2026-05-04T12:53:55.394Z</time>
      </trkpt>
      <trkpt lat="50.549157" lon="8.769867">
        <ele>259.047874</ele>
        <time>2026-05-04T12:53:56.719Z</time>
      </trkpt>
      <trkpt lat="50.549249" lon="8.769833">
        <ele>258.936053</ele>
        <time>2026-05-04T12:53:58.124Z</time>
      </trkpt>
      <trkpt lat="50.549309" lon="8.769954">
        <ele>258.820656</ele>
        <time>2026-05-04T12:53:59.514Z</time>
      </trkpt>
      <trkpt lat="50.549568" lon="8.770470">
        <ele>258.326258</ele>
        <time>2026-05-04T12:54:03.713Z</time>
      </trkpt>
      <trkpt lat="50.549867" lon="8.771095">
        <ele>257.738057</ele>
        <time>2026-05-04T12:54:07.865Z</time>
      </trkpt>
      <trkpt lat="50.549959" lon="8.771305">
        <ele>257.546279</ele>
        <time>2026-05-04T12:54:09.184Z</time>
      </trkpt>
      <trkpt lat="50.550095" lon="8.771634">
        <ele>257.251184</ele>
        <time>2026-05-04T12:54:11.198Z</time>
      </trkpt>
      <trkpt lat="50.550135" lon="8.771749">
        <ele>257.084094</ele>
        <time>2026-05-04T12:54:11.868Z</time>
      </trkpt>
      <trkpt lat="50.550199" lon="8.771933">
        <ele>256.627195</ele>
        <time>2026-05-04T12:54:12.935Z</time>
      </trkpt>
      <trkpt lat="50.550238" lon="8.772049">
        <ele>256.341340</ele>
        <time>2026-05-04T12:54:13.600Z</time>
      </trkpt>
      <trkpt lat="50.550461" lon="8.772712">
        <ele>254.707381</ele>
        <time>2026-05-04T12:54:17.373Z</time>
      </trkpt>
      <trkpt lat="50.550554" lon="8.772920">
        <ele>254.153403</ele>
        <time>2026-05-04T12:54:18.660Z</time>
      </trkpt>
      <trkpt lat="50.551101" lon="8.773701">
        <ele>251.621642</ele>
        <time>2026-05-04T12:54:24.702Z</time>
      </trkpt>
      <trkpt lat="50.551217" lon="8.773735">
        <ele>251.217158</ele>
        <time>2026-05-04T12:54:25.646Z</time>
      </trkpt>
      <trkpt lat="50.551576" lon="8.773721">
        <ele>249.407047</ele>
        <time>2026-05-04T12:54:28.472Z</time>
      </trkpt>
      <trkpt lat="50.551649" lon="8.773769">
        <ele>248.984377</ele>
        <time>2026-05-04T12:54:29.078Z</time>
      </trkpt>
      <trkpt lat="50.551688" lon="8.773836">
        <ele>248.675931</ele>
        <time>2026-05-04T12:54:29.519Z</time>
      </trkpt>
      <trkpt lat="50.551709" lon="8.773977">
        <ele>248.184331</ele>
        <time>2026-05-04T12:54:30.220Z</time>
      </trkpt>
      <trkpt lat="50.551652" lon="8.774234">
        <ele>247.260317</ele>
        <time>2026-05-04T12:54:31.528Z</time>
      </trkpt>
      <trkpt lat="50.551497" lon="8.774957">
        <ele>244.670134</ele>
        <time>2026-05-04T12:54:35.102Z</time>
      </trkpt>
      <trkpt lat="50.551480" lon="8.775514">
        <ele>242.777198</ele>
        <time>2026-05-04T12:54:37.662Z</time>
      </trkpt>
      <trkpt lat="50.551472" lon="8.775832">
        <ele>241.696889</ele>
        <time>2026-05-04T12:54:39.121Z</time>
      </trkpt>
      <trkpt lat="50.551437" lon="8.776079">
        <ele>240.931904</ele>
        <time>2026-05-04T12:54:40.288Z</time>
      </trkpt>
      <trkpt lat="50.551306" lon="8.776504">
        <ele>239.590311</ele>
        <time>2026-05-04T12:54:42.478Z</time>
      </trkpt>
      <trkpt lat="50.550798" lon="8.777796">
        <ele>235.275071</ele>
        <time>2026-05-04T12:54:49.739Z</time>
      </trkpt>
      <trkpt lat="50.550598" lon="8.778209">
        <ele>233.800240</ele>
        <time>2026-05-04T12:54:52.537Z</time>
      </trkpt>
      <trkpt lat="50.550489" lon="8.778355">
        <ele>233.401880</ele>
        <time>2026-05-04T12:54:53.837Z</time>
      </trkpt>
      <trkpt lat="50.550263" lon="8.778587">
        <ele>233.559658</ele>
        <time>2026-05-04T12:54:56.499Z</time>
      </trkpt>
      <trkpt lat="50.550226" lon="8.778673">
        <ele>233.598246</ele>
        <time>2026-05-04T12:54:57.204Z</time>
      </trkpt>
      <trkpt lat="50.550234" lon="8.778778">
        <ele>233.637538</ele>
        <time>2026-05-04T12:54:57.975Z</time>
      </trkpt>
      <trkpt lat="50.550327" lon="8.779067">
        <ele>233.757899</ele>
        <time>2026-05-04T12:55:00.614Z</time>
      </trkpt>
      <trkpt lat="50.550453" lon="8.779457">
        <ele>233.920456</ele>
        <time>2026-05-04T12:55:04.820Z</time>
      </trkpt>
      <trkpt lat="50.550564" lon="8.779753">
        <ele>234.048156</ele>
        <time>2026-05-04T12:55:08.422Z</time>
      </trkpt>
      <trkpt lat="50.550680" lon="8.779898">
        <ele>234.134777</ele>
        <time>2026-05-04T12:55:11.006Z</time>
      </trkpt>
      <trkpt lat="50.551147" lon="8.780062">
        <ele>234.414565</ele>
        <time>2026-05-04T12:55:20.211Z</time>
      </trkpt>
      <trkpt lat="50.551239" lon="8.780092">
        <ele>234.464931</ele>
        <time>2026-05-04T12:55:22.003Z</time>
      </trkpt>
      <trkpt lat="50.551596" lon="8.780166">
        <ele>234.653515</ele>
        <time>2026-05-04T12:55:28.399Z</time>
      </trkpt>
      <trkpt lat="50.551758" lon="8.780171">
        <ele>234.738375</ele>
        <time>2026-05-04T12:55:31.081Z</time>
      </trkpt>
      <trkpt lat="50.552239" lon="8.780158">
        <ele>234.990323</ele>
        <time>2026-05-04T12:55:38.031Z</time>
      </trkpt>
      <trkpt lat="50.552506" lon="8.780149">
        <ele>235.130190</ele>
        <time>2026-05-04T12:55:41.140Z</time>
      </trkpt>
      <trkpt lat="50.552951" lon="8.780127">
        <ele>235.363362</ele>
        <time>2026-05-04T12:55:45.631Z</time>
      </trkpt>
      <trkpt lat="50.553233" lon="8.780154">
        <ele>234.854102</ele>
        <time>2026-05-04T12:55:48.308Z</time>
      </trkpt>
      <trkpt lat="50.553555" lon="8.780278">
        <ele>234.233394</ele>
        <time>2026-05-04T12:55:51.286Z</time>
      </trkpt>
      <trkpt lat="50.553911" lon="8.780517">
        <ele>233.508700</ele>
        <time>2026-05-04T12:55:54.609Z</time>
      </trkpt>
      <trkpt lat="50.553995" lon="8.780566">
        <ele>233.340961</ele>
        <time>2026-05-04T12:55:55.373Z</time>
      </trkpt>
      <trkpt lat="50.554269" lon="8.780899">
        <ele>232.692768</ele>
        <time>2026-05-04T12:55:58.301Z</time>
      </trkpt>
      <trkpt lat="50.554319" lon="8.781031">
        <ele>232.509945</ele>
        <time>2026-05-04T12:55:59.134Z</time>
      </trkpt>
      <trkpt lat="50.554389" lon="8.781239">
        <ele>232.229929</ele>
        <time>2026-05-04T12:56:00.420Z</time>
      </trkpt>
      <trkpt lat="50.554433" lon="8.781439">
        <ele>231.985002</ele>
        <time>2026-05-04T12:56:01.582Z</time>
      </trkpt>
      <trkpt lat="50.554451" lon="8.781661">
        <ele>231.802967</ele>
        <time>2026-05-04T12:56:02.837Z</time>
      </trkpt>
      <trkpt lat="50.554422" lon="8.781922">
        <ele>231.587451</ele>
        <time>2026-05-04T12:56:04.347Z</time>
      </trkpt>
      <trkpt lat="50.554373" lon="8.782095">
        <ele>231.433386</ele>
        <time>2026-05-04T12:56:05.446Z</time>
      </trkpt>
      <trkpt lat="50.554239" lon="8.782583">
        <ele>231.000969</ele>
        <time>2026-05-04T12:56:08.565Z</time>
      </trkpt>
      <trkpt lat="50.554175" lon="8.782932">
        <ele>230.705509</ele>
        <time>2026-05-04T12:56:10.781Z</time>
      </trkpt>
      <trkpt lat="50.554138" lon="8.783417">
        <ele>230.308181</ele>
        <time>2026-05-04T12:56:13.911Z</time>
      </trkpt>
      <trkpt lat="50.554173" lon="8.785089">
        <ele>229.410878</ele>
        <time>2026-05-04T12:56:24.851Z</time>
      </trkpt>
      <trkpt lat="50.554198" lon="8.785472">
        <ele>229.291289</ele>
        <time>2026-05-04T12:56:27.193Z</time>
      </trkpt>
      <trkpt lat="50.554251" lon="8.785711">
        <ele>229.212662</ele>
        <time>2026-05-04T12:56:28.800Z</time>
      </trkpt>
      <trkpt lat="50.554356" lon="8.785994">
        <ele>229.110869</ele>
        <time>2026-05-04T12:56:31.001Z</time>
      </trkpt>
      <trkpt lat="50.554479" lon="8.786238">
        <ele>229.014124</ele>
        <time>2026-05-04T12:56:33.229Z</time>
      </trkpt>
      <trkpt lat="50.554646" lon="8.786575">
        <ele>228.881376</ele>
        <time>2026-05-04T12:56:36.372Z</time>
      </trkpt>
      <trkpt lat="50.554714" lon="8.786711">
        <ele>228.827621</ele>
        <time>2026-05-04T12:56:37.705Z</time>
      </trkpt>
      <trkpt lat="50.554829" lon="8.786944">
        <ele>228.852579</ele>
        <time>2026-05-04T12:56:39.953Z</time>
      </trkpt>
      <trkpt lat="50.555098" lon="8.787514">
        <ele>228.946122</ele>
        <time>2026-05-04T12:56:45.432Z</time>
      </trkpt>
      <trkpt lat="50.555167" lon="8.787728">
        <ele>228.977737</ele>
        <time>2026-05-04T12:56:47.428Z</time>
      </trkpt>
      <trkpt lat="50.555238" lon="8.788151">
        <ele>229.035375</ele>
        <time>2026-05-04T12:56:51.397Z</time>
      </trkpt>
      <trkpt lat="50.555243" lon="8.788569">
        <ele>229.090452</ele>
        <time>2026-05-04T12:56:55.184Z</time>
      </trkpt>
      <trkpt lat="50.555043" lon="8.790832">
        <ele>229.234564</ele>
        <time>2026-05-04T12:57:11.832Z</time>
      </trkpt>
      <trkpt lat="50.554887" lon="8.792102">
        <ele>229.271724</ele>
        <time>2026-05-04T12:57:21.976Z</time>
      </trkpt>
      <trkpt lat="50.554878" lon="8.792291">
        <ele>229.332033</ele>
        <time>2026-05-04T12:57:23.536Z</time>
      </trkpt>
      <trkpt lat="50.554890" lon="8.792450">
        <ele>229.386824</ele>
        <time>2026-05-04T12:57:24.887Z</time>
      </trkpt>
      <trkpt lat="50.554962" lon="8.792800">
        <ele>229.512712</ele>
        <time>2026-05-04T12:57:28.030Z</time>
      </trkpt>
      <trkpt lat="50.555050" lon="8.793017">
        <ele>229.600804</ele>
        <time>2026-05-04T12:57:30.199Z</time>
      </trkpt>
      <trkpt lat="50.555120" lon="8.793165">
        <ele>229.663941</ele>
        <time>2026-05-04T12:57:31.720Z</time>
      </trkpt>
      <trkpt lat="50.555659" lon="8.794635">
        <ele>230.247506</ele>
        <time>2026-05-04T12:57:46.671Z</time>
      </trkpt>
      <trkpt lat="50.555903" lon="8.795064">
        <ele>230.587936</ele>
        <time>2026-05-04T12:57:52.103Z</time>
      </trkpt>
      <trkpt lat="50.556601" lon="8.796376">
        <ele>231.599678</ele>
        <time>2026-05-04T12:58:08.183Z</time>
      </trkpt>
      <trkpt lat="50.556848" lon="8.796864">
        <ele>231.999820</ele>
        <time>2026-05-04T12:58:14.113Z</time>
      </trkpt>
      <trkpt lat="50.556942" lon="8.797042">
        <ele>232.216070</ele>
        <time>2026-05-04T12:58:16.421Z</time>
      </trkpt>
      <trkpt lat="50.557119" lon="8.797410">
        <ele>232.647296</ele>
        <time>2026-05-04T12:58:21.136Z</time>
      </trkpt>
      <trkpt lat="50.557191" lon="8.797671">
        <ele>232.913134</ele>
        <time>2026-05-04T12:58:24.103Z</time>
      </trkpt>
      <trkpt lat="50.557202" lon="8.797866">
        <ele>233.096032</ele>
        <time>2026-05-04T12:58:26.173Z</time>
      </trkpt>
      <trkpt lat="50.557140" lon="8.798834">
        <ele>234.004983</ele>
        <time>2026-05-04T12:58:36.919Z</time>
      </trkpt>
      <trkpt lat="50.557144" lon="8.799260">
        <ele>234.403022</ele>
        <time>2026-05-04T12:58:41.743Z</time>
      </trkpt>
      <trkpt lat="50.557219" lon="8.799609">
        <ele>234.693870</ele>
        <time>2026-05-04T12:58:45.727Z</time>
      </trkpt>
      <trkpt lat="50.557329" lon="8.799890">
        <ele>234.914482</ele>
        <time>2026-05-04T12:58:49.118Z</time>
      </trkpt>
      <trkpt lat="50.557736" lon="8.800720">
        <ele>235.615285</ele>
        <time>2026-05-04T12:58:59.543Z</time>
      </trkpt>
      <trkpt lat="50.557888" lon="8.801024">
        <ele>235.873858</ele>
        <time>2026-05-04T12:59:03.214Z</time>
      </trkpt>
      <trkpt lat="50.558190" lon="8.801684">
        <ele>236.417508</ele>
        <time>2026-05-04T12:59:10.676Z</time>
      </trkpt>
      <trkpt lat="50.558674" lon="8.802746">
        <ele>236.502275</ele>
        <time>2026-05-04T12:59:21.006Z</time>
      </trkpt>
      <trkpt lat="50.558782" lon="8.803040">
        <ele>236.515861</ele>
        <time>2026-05-04T12:59:23.413Z</time>
      </trkpt>
      <trkpt lat="50.559106" lon="8.804803">
        <ele>236.826492</ele>
        <time>2026-05-04T12:59:36.519Z</time>
      </trkpt>
      <trkpt lat="50.559232" lon="8.805267">
        <ele>237.046512</ele>
        <time>2026-05-04T12:59:40.752Z</time>
      </trkpt>
      <trkpt lat="50.559461" lon="8.805920">
        <ele>237.371732</ele>
        <time>2026-05-04T12:59:47.746Z</time>
      </trkpt>
      <trkpt lat="50.559961" lon="8.806956">
        <ele>237.943963</ele>
        <time>2026-05-04T13:00:01.259Z</time>
      </trkpt>
      <trkpt lat="50.560158" lon="8.807300">
        <ele>238.153081</ele>
        <time>2026-05-04T13:00:05.528Z</time>
      </trkpt>
      <trkpt lat="50.560197" lon="8.807347">
        <ele>238.187991</ele>
        <time>2026-05-04T13:00:06.190Z</time>
      </trkpt>
      <trkpt lat="50.560576" lon="8.807665">
        <ele>238.493243</ele>
        <time>2026-05-04T13:00:12.003Z</time>
      </trkpt>
      <trkpt lat="50.560875" lon="8.807871">
        <ele>238.725221</ele>
        <time>2026-05-04T13:00:16.334Z</time>
      </trkpt>
      <trkpt lat="50.561211" lon="8.807991">
        <ele>238.970102</ele>
        <time>2026-05-04T13:00:20.886Z</time>
      </trkpt>
      <trkpt lat="50.562496" lon="8.808226">
        <ele>240.268766</ele>
        <time>2026-05-04T13:00:39.347Z</time>
      </trkpt>
      <trkpt lat="50.562550" lon="8.808240">
        <ele>240.325843</ele>
        <time>2026-05-04T13:00:40.235Z</time>
      </trkpt>
      <trkpt lat="50.563119" lon="8.808471">
        <ele>240.938686</ele>
        <time>2026-05-04T13:00:49.888Z</time>
      </trkpt>
      <trkpt lat="50.563801" lon="8.808905">
        <ele>242.265529</ele>
        <time>2026-05-04T13:01:02.950Z</time>
      </trkpt>
      <trkpt lat="50.564109" lon="8.809053">
        <ele>242.851385</ele>
        <time>2026-05-04T13:01:08.915Z</time>
      </trkpt>
      <trkpt lat="50.564794" lon="8.809136">
        <ele>244.101268</ele>
        <time>2026-05-04T13:01:21.462Z</time>
      </trkpt>
      <trkpt lat="50.565099" lon="8.809198">
        <ele>244.234852</ele>
        <time>2026-05-04T13:01:26.813Z</time>
      </trkpt>
      <trkpt lat="50.565375" lon="8.809330">
        <ele>244.245229</ele>
        <time>2026-05-04T13:01:31.599Z</time>
      </trkpt>
      <trkpt lat="50.566213" lon="8.809781">
        <ele>244.277091</ele>
        <time>2026-05-04T13:01:42.524Z</time>
      </trkpt>
      <trkpt lat="50.567500" lon="8.810311">
        <ele>241.484661</ele>
        <time>2026-05-04T13:01:54.013Z</time>
      </trkpt>
      <trkpt lat="50.568596" lon="8.810792">
        <ele>238.008353</ele>
        <time>2026-05-04T13:02:02.907Z</time>
      </trkpt>
      <trkpt lat="50.569172" lon="8.811028">
        <ele>236.038840</ele>
        <time>2026-05-04T13:02:07.554Z</time>
      </trkpt>
      <trkpt lat="50.569791" lon="8.811283">
        <ele>233.921565</ele>
        <time>2026-05-04T13:02:12.759Z</time>
      </trkpt>
      <trkpt lat="50.570454" lon="8.811441">
        <ele>232.619211</ele>
        <time>2026-05-04T13:02:18.593Z</time>
      </trkpt>
      <trkpt lat="50.570984" lon="8.811375">
        <ele>232.107388</ele>
        <time>2026-05-04T13:02:23.681Z</time>
      </trkpt>
      <trkpt lat="50.571203" lon="8.811379">
        <ele>231.896544</ele>
        <time>2026-05-04T13:02:25.962Z</time>
      </trkpt>
      <trkpt lat="50.571402" lon="8.811533">
        <ele>231.683078</ele>
        <time>2026-05-04T13:02:28.395Z</time>
      </trkpt>
      <trkpt lat="50.571986" lon="8.812381">
        <ele>231.060899</ele>
        <time>2026-05-04T13:02:38.152Z</time>
      </trkpt>
      <trkpt lat="50.572402" lon="8.812881">
        <ele>230.765082</ele>
        <time>2026-05-04T13:02:44.127Z</time>
      </trkpt>
      <trkpt lat="50.572838" lon="8.813315">
        <ele>230.473522</ele>
        <time>2026-05-04T13:02:49.391Z</time>
      </trkpt>
      <trkpt lat="50.573118" lon="8.813538">
        <ele>230.296162</ele>
        <time>2026-05-04T13:02:52.444Z</time>
      </trkpt>
      <trkpt lat="50.573458" lon="8.813732">
        <ele>229.970870</ele>
        <time>2026-05-04T13:02:55.789Z</time>
      </trkpt>
      <trkpt lat="50.573946" lon="8.813907">
        <ele>229.467776</ele>
        <time>2026-05-04T13:03:00.307Z</time>
      </trkpt>
      <trkpt lat="50.574462" lon="8.814185">
        <ele>228.919576</ele>
        <time>2026-05-04T13:03:05.486Z</time>
      </trkpt>
      <trkpt lat="50.574760" lon="8.814293">
        <ele>228.612197</ele>
        <time>2026-05-04T13:03:08.691Z</time>
      </trkpt>
      <trkpt lat="50.575534" lon="8.814427">
        <ele>228.308936</ele>
        <time>2026-05-04T13:03:18.000Z</time>
      </trkpt>
      <trkpt lat="50.575756" lon="8.814468">
        <ele>228.260969</ele>
        <time>2026-05-04T13:03:21.123Z</time>
      </trkpt>
      <trkpt lat="50.575922" lon="8.814487">
        <ele>228.225252</ele>
        <time>2026-05-04T13:03:23.468Z</time>
      </trkpt>
      <trkpt lat="50.576073" lon="8.814503">
        <ele>228.192775</ele>
        <time>2026-05-04T13:03:25.509Z</time>
      </trkpt>
      <trkpt lat="50.576284" lon="8.814471">
        <ele>228.147285</ele>
        <time>2026-05-04T13:03:27.992Z</time>
      </trkpt>
      <trkpt lat="50.576845" lon="8.814222">
        <ele>227.845955</ele>
        <time>2026-05-04T13:03:33.603Z</time>
      </trkpt>
      <trkpt lat="50.577097" lon="8.814248">
        <ele>227.482512</ele>
        <time>2026-05-04T13:03:35.929Z</time>
      </trkpt>
      <trkpt lat="50.577537" lon="8.814545">
        <ele>226.793563</ele>
        <time>2026-05-04T13:03:40.375Z</time>
      </trkpt>
      <trkpt lat="50.577594" lon="8.814585">
        <ele>226.703755</ele>
        <time>2026-05-04T13:03:40.930Z</time>
      </trkpt>
      <trkpt lat="50.577708" lon="8.814406">
        <ele>226.472070</ele>
        <time>2026-05-04T13:03:42.357Z</time>
      </trkpt>
      <trkpt lat="50.577894" lon="8.814232">
        <ele>226.160717</ele>
        <time>2026-05-04T13:03:44.262Z</time>
      </trkpt>
      <trkpt lat="50.578234" lon="8.813974">
        <ele>225.617560</ele>
        <time>2026-05-04T13:03:47.660Z</time>
      </trkpt>
      <trkpt lat="50.578387" lon="8.813859">
        <ele>225.395417</ele>
        <time>2026-05-04T13:03:49.213Z</time>
      </trkpt>
      <trkpt lat="50.578664" lon="8.813624">
        <ele>225.051292</ele>
        <time>2026-05-04T13:03:52.310Z</time>
      </trkpt>
      <trkpt lat="50.579090" lon="8.813192">
        <ele>224.497124</ele>
        <time>2026-05-04T13:03:57.442Z</time>
      </trkpt>
      <trkpt lat="50.579305" lon="8.812947">
        <ele>224.206869</ele>
        <time>2026-05-04T13:03:59.977Z</time>
      </trkpt>
      <trkpt lat="50.579901" lon="8.812171">
        <ele>223.444413</ele>
        <time>2026-05-04T13:04:07.458Z</time>
      </trkpt>
      <trkpt lat="50.580297" lon="8.811569">
        <ele>223.210480</ele>
        <time>2026-05-04T13:04:12.876Z</time>
      </trkpt>
      <trkpt lat="50.581165" lon="8.810331">
        <ele>222.741888</ele>
        <time>2026-05-04T13:04:26.044Z</time>
      </trkpt>
      <trkpt lat="50.581632" lon="8.809598">
        <ele>222.866414</ele>
        <time>2026-05-04T13:04:34.907Z</time>
      </trkpt>
      <trkpt lat="50.582228" lon="8.808442">
        <ele>223.044991</ele>
        <time>2026-05-04T13:04:47.099Z</time>
      </trkpt>
      <trkpt lat="50.582485" lon="8.807739">
        <ele>223.038072</ele>
        <time>2026-05-04T13:04:52.928Z</time>
      </trkpt>
      <trkpt lat="50.582603" lon="8.807273">
        <ele>223.008222</ele>
        <time>2026-05-04T13:04:56.367Z</time>
      </trkpt>
      <trkpt lat="50.582691" lon="8.806837">
        <ele>222.981001</ele>
        <time>2026-05-04T13:04:59.251Z</time>
      </trkpt>
      <trkpt lat="50.582830" lon="8.805803">
        <ele>222.918115</ele>
        <time>2026-05-04T13:05:06.622Z</time>
      </trkpt>
      <trkpt lat="50.582917" lon="8.805197">
        <ele>223.065673</ele>
        <time>2026-05-04T13:05:12.600Z</time>
      </trkpt>
      <trkpt lat="50.583101" lon="8.804484">
        <ele>223.388291</ele>
        <time>2026-05-04T13:05:20.542Z</time>
      </trkpt>
      <trkpt lat="50.583230" lon="8.804025">
        <ele>223.598699</ele>
        <time>2026-05-04T13:05:25.339Z</time>
      </trkpt>
      <trkpt lat="50.583310" lon="8.803653">
        <ele>223.763335</ele>
        <time>2026-05-04T13:05:29.117Z</time>
      </trkpt>
      <trkpt lat="50.583344" lon="8.803562">
        <ele>223.807594</ele>
        <time>2026-05-04T13:05:30.153Z</time>
      </trkpt>
      <trkpt lat="50.583472" lon="8.803374">
        <ele>223.923140</ele>
        <time>2026-05-04T13:05:32.719Z</time>
      </trkpt>
      <trkpt lat="50.583648" lon="8.803068">
        <ele>224.081718</ele>
        <time>2026-05-04T13:05:36.071Z</time>
      </trkpt>
      <trkpt lat="50.583785" lon="8.802709">
        <ele>223.717518</ele>
        <time>2026-05-04T13:05:38.876Z</time>
      </trkpt>
      <trkpt lat="50.583811" lon="8.802561">
        <ele>223.583994</ele>
        <time>2026-05-04T13:05:39.810Z</time>
      </trkpt>
      <trkpt lat="50.583822" lon="8.802167">
        <ele>223.241071</ele>
        <time>2026-05-04T13:05:42.082Z</time>
      </trkpt>
      <trkpt lat="50.583895" lon="8.801974">
        <ele>223.045734</ele>
        <time>2026-05-04T13:05:43.336Z</time>
      </trkpt>
      <trkpt lat="50.584095" lon="8.801741">
        <ele>222.705059</ele>
        <time>2026-05-04T13:05:45.524Z</time>
      </trkpt>
      <trkpt lat="50.584203" lon="8.801684">
        <ele>222.549076</ele>
        <time>2026-05-04T13:05:46.531Z</time>
      </trkpt>
      <trkpt lat="50.584379" lon="8.801660">
        <ele>222.307153</ele>
        <time>2026-05-04T13:05:48.095Z</time>
      </trkpt>
      <trkpt lat="50.584450" lon="8.801647">
        <ele>222.209269</ele>
        <time>2026-05-04T13:05:48.727Z</time>
      </trkpt>
      <trkpt lat="50.584772" lon="8.801425">
        <ele>221.727911</ele>
        <time>2026-05-04T13:05:51.867Z</time>
      </trkpt>
      <trkpt lat="50.584991" lon="8.801230">
        <ele>221.380020</ele>
        <time>2026-05-04T13:05:54.110Z</time>
      </trkpt>
      <trkpt lat="50.585081" lon="8.801150">
        <ele>221.236548</ele>
        <time>2026-05-04T13:05:55.056Z</time>
      </trkpt>
      <trkpt lat="50.585605" lon="8.800728">
        <ele>220.419495</ele>
        <time>2026-05-04T13:06:00.591Z</time>
      </trkpt>
      <trkpt lat="50.585844" lon="8.800544">
        <ele>220.050174</ele>
        <time>2026-05-04T13:06:03.113Z</time>
      </trkpt>
      <trkpt lat="50.586158" lon="8.800284">
        <ele>219.557677</ele>
        <time>2026-05-04T13:06:06.420Z</time>
      </trkpt>
      <trkpt lat="50.586307" lon="8.800155">
        <ele>219.321629</ele>
        <time>2026-05-04T13:06:08.004Z</time>
      </trkpt>
      <trkpt lat="50.586988" lon="8.799783">
        <ele>218.822589</ele>
        <time>2026-05-04T13:06:14.895Z</time>
      </trkpt>
      <trkpt lat="50.587942" lon="8.799356">
        <ele>218.298030</ele>
        <time>2026-05-04T13:06:25.352Z</time>
      </trkpt>
      <trkpt lat="50.588377" lon="8.799304">
        <ele>218.596742</ele>
        <time>2026-05-04T13:06:30.850Z</time>
      </trkpt>
      <trkpt lat="50.589086" lon="8.799393">
        <ele>219.987700</ele>
        <time>2026-05-04T13:06:42.279Z</time>
      </trkpt>
      <trkpt lat="50.589422" lon="8.799361">
        <ele>220.646001</ele>
        <time>2026-05-04T13:06:48.929Z</time>
      </trkpt>
      <trkpt lat="50.590508" lon="8.798966">
        <ele>223.010737</ele>
        <time>2026-05-04T13:07:15.300Z</time>
      </trkpt>
      <trkpt lat="50.591414" lon="8.798475">
        <ele>225.191759</ele>
        <time>2026-05-04T13:07:35.030Z</time>
      </trkpt>
      <trkpt lat="50.591461" lon="8.798594">
        <ele>225.394294</ele>
        <time>2026-05-04T13:07:36.243Z</time>
      </trkpt>
      <trkpt lat="50.591826" lon="8.798458">
        <ele>225.312971</ele>
        <time>2026-05-04T13:07:40.595Z</time>
      </trkpt>
      <trkpt lat="50.591895" lon="8.798492">
        <ele>225.140217</ele>
        <time>2026-05-04T13:07:41.284Z</time>
      </trkpt>
      <trkpt lat="50.592613" lon="8.800497">
        <ele>221.648217</ele>
        <time>2026-05-04T13:07:53.294Z</time>
      </trkpt>
      <trkpt lat="50.592971" lon="8.801762">
        <ele>218.115306</ele>
        <time>2026-05-04T13:08:00.081Z</time>
      </trkpt>
      <trkpt lat="50.593146" lon="8.802134">
        <ele>216.896338</ele>
        <time>2026-05-04T13:08:02.287Z</time>
      </trkpt>
      <trkpt lat="50.593636" lon="8.803646">
        <ele>213.142571</ele>
        <time>2026-05-04T13:08:10.688Z</time>
      </trkpt>
      <trkpt lat="50.594009" lon="8.803327">
        <ele>212.165817</ele>
        <time>2026-05-04T13:08:14.187Z</time>
      </trkpt>
      <trkpt lat="50.594358" lon="8.803028">
        <ele>211.251545</ele>
        <time>2026-05-04T13:08:17.726Z</time>
      </trkpt>
      <trkpt lat="50.594786" lon="8.802321">
        <ele>209.880259</ele>
        <time>2026-05-04T13:08:23.928Z</time>
      </trkpt>
      <trkpt lat="50.595250" lon="8.801686">
        <ele>209.578546</ele>
        <time>2026-05-04T13:08:29.922Z</time>
      </trkpt>
      <trkpt lat="50.595782" lon="8.801153">
        <ele>209.269059</ele>
        <time>2026-05-04T13:08:36.738Z</time>
      </trkpt>
      <trkpt lat="50.596581" lon="8.800589">
        <ele>209.016349</ele>
        <time>2026-05-04T13:08:47.062Z</time>
      </trkpt>
      <trkpt lat="50.598110" lon="8.799742">
        <ele>208.993149</ele>
        <time>2026-05-04T13:09:06.432Z</time>
      </trkpt>
      <trkpt lat="50.598381" lon="8.799558">
        <ele>208.927547</ele>
        <time>2026-05-04T13:09:10.077Z</time>
      </trkpt>
      <trkpt lat="50.598898" lon="8.799101">
        <ele>208.795757</ele>
        <time>2026-05-04T13:09:17.144Z</time>
      </trkpt>
      <trkpt lat="50.599298" lon="8.798653">
        <ele>208.686652</ele>
        <time>2026-05-04T13:09:22.953Z</time>
      </trkpt>
      <trkpt lat="50.599342" lon="8.798758">
        <ele>208.668897</ele>
        <time>2026-05-04T13:09:25.284Z</time>
      </trkpt>
      <trkpt lat="50.599432" lon="8.798656">
        <ele>208.644250</ele>
        <time>2026-05-04T13:09:26.521Z</time>
      </trkpt>
      <trkpt lat="50.600428" lon="8.797525">
        <ele>206.262129</ele>
        <time>2026-05-04T13:09:37.611Z</time>
      </trkpt>
      <trkpt lat="50.600736" lon="8.797175">
        <ele>205.495196</ele>
        <time>2026-05-04T13:09:40.802Z</time>
      </trkpt>
      <trkpt lat="50.601049" lon="8.796847">
        <ele>204.514973</ele>
        <time>2026-05-04T13:09:43.859Z</time>
      </trkpt>
      <trkpt lat="50.601439" lon="8.796487">
        <ele>202.837101</ele>
        <time>2026-05-04T13:09:47.386Z</time>
      </trkpt>
      <trkpt lat="50.601781" lon="8.796237">
        <ele>201.437595</ele>
        <time>2026-05-04T13:09:50.338Z</time>
      </trkpt>
      <trkpt lat="50.602080" lon="8.796073">
        <ele>200.262360</ele>
        <time>2026-05-04T13:09:52.827Z</time>
      </trkpt>
      <trkpt lat="50.602572" lon="8.795901">
        <ele>198.391617</ele>
        <time>2026-05-04T13:09:56.761Z</time>
      </trkpt>
      <trkpt lat="50.602731" lon="8.795870">
        <ele>198.067358</ele>
        <time>2026-05-04T13:09:58.017Z</time>
      </trkpt>
      <trkpt lat="50.603205" lon="8.795844">
        <ele>197.211598</ele>
        <time>2026-05-04T13:10:01.864Z</time>
      </trkpt>
      <trkpt lat="50.603718" lon="8.795931">
        <ele>196.280643</ele>
        <time>2026-05-04T13:10:06.354Z</time>
      </trkpt>
      <trkpt lat="50.606602" lon="8.797110">
        <ele>196.171930</ele>
        <time>2026-05-04T13:10:42.483Z</time>
      </trkpt>
      <trkpt lat="50.607389" lon="8.797404">
        <ele>197.639058</ele>
        <time>2026-05-04T13:10:56.796Z</time>
      </trkpt>
      <trkpt lat="50.607944" lon="8.797563">
        <ele>198.917930</ele>
        <time>2026-05-04T13:11:09.087Z</time>
      </trkpt>
      <trkpt lat="50.608718" lon="8.797660">
        <ele>202.569368</ele>
        <time>2026-05-04T13:11:29.415Z</time>
      </trkpt>
      <trkpt lat="50.609723" lon="8.797636">
        <ele>207.339800</ele>
        <time>2026-05-04T13:11:58.569Z</time>
      </trkpt>
      <trkpt lat="50.610508" lon="8.797605">
        <ele>211.512139</ele>
        <time>2026-05-04T13:12:22.097Z</time>
      </trkpt>
      <trkpt lat="50.610513" lon="8.797799">
        <ele>212.166813</ele>
        <time>2026-05-04T13:12:26.183Z</time>
      </trkpt>
      <trkpt lat="50.610726" lon="8.798008">
        <ele>213.500040</ele>
        <time>2026-05-04T13:12:34.464Z</time>
      </trkpt>
      <trkpt lat="50.610929" lon="8.798684">
        <ele>216.021712</ele>
        <time>2026-05-04T13:12:49.811Z</time>
      </trkpt>
      <trkpt lat="50.611420" lon="8.799664">
        <ele>219.292675</ele>
        <time>2026-05-04T13:13:15.177Z</time>
      </trkpt>
      <trkpt lat="50.612066" lon="8.800877">
        <ele>223.282116</ele>
        <time>2026-05-04T13:13:43.573Z</time>
      </trkpt>
      <trkpt lat="50.612269" lon="8.801445">
        <ele>223.866862</ele>
        <time>2026-05-04T13:13:53.460Z</time>
      </trkpt>
      <trkpt lat="50.612649" lon="8.802083">
        <ele>224.230494</ele>
        <time>2026-05-04T13:14:04.302Z</time>
      </trkpt>
      <trkpt lat="50.612968" lon="8.802546">
        <ele>224.514510</ele>
        <time>2026-05-04T13:14:10.982Z</time>
      </trkpt>
      <trkpt lat="50.613862" lon="8.803515">
        <ele>224.941379</ele>
        <time>2026-05-04T13:14:26.304Z</time>
      </trkpt>
      <trkpt lat="50.614468" lon="8.804103">
        <ele>225.067711</ele>
        <time>2026-05-04T13:14:37.299Z</time>
      </trkpt>
      <trkpt lat="50.614514" lon="8.803956">
        <ele>225.086173</ele>
        <time>2026-05-04T13:14:38.786Z</time>
      </trkpt>
      <trkpt lat="50.614887" lon="8.804315">
        <ele>225.295106</ele>
        <time>2026-05-04T13:14:45.736Z</time>
      </trkpt>
      <trkpt lat="50.616005" lon="8.805439">
        <ele>229.129390</ele>
        <time>2026-05-04T13:15:13.944Z</time>
      </trkpt>
      <trkpt lat="50.616336" lon="8.805805">
        <ele>230.298490</ele>
        <time>2026-05-04T13:15:23.653Z</time>
      </trkpt>
      <trkpt lat="50.616919" lon="8.806486">
        <ele>232.670626</ele>
        <time>2026-05-04T13:15:41.046Z</time>
      </trkpt>
      <trkpt lat="50.617123" lon="8.806681">
        <ele>233.453070</ele>
        <time>2026-05-04T13:15:46.735Z</time>
      </trkpt>
      <trkpt lat="50.618009" lon="8.807321">
        <ele>236.457280</ele>
        <time>2026-05-04T13:16:08.166Z</time>
      </trkpt>
      <trkpt lat="50.619568" lon="8.808481">
        <ele>239.374737</ele>
        <time>2026-05-04T13:16:36.451Z</time>
      </trkpt>
      <trkpt lat="50.620478" lon="8.809377">
        <ele>241.470367</ele>
        <time>2026-05-04T13:16:53.520Z</time>
      </trkpt>
      <trkpt lat="50.621133" lon="8.810119">
        <ele>243.122608</ele>
        <time>2026-05-04T13:17:10.408Z</time>
      </trkpt>
      <trkpt lat="50.621659" lon="8.810716">
        <ele>244.781372</ele>
        <time>2026-05-04T13:17:25.706Z</time>
      </trkpt>
      <trkpt lat="50.622059" lon="8.811242">
        <ele>246.114482</ele>
        <time>2026-05-04T13:17:36.660Z</time>
      </trkpt>
      <trkpt lat="50.622553" lon="8.812065">
        <ele>247.411323</ele>
        <time>2026-05-04T13:17:48.409Z</time>
      </trkpt>
      <trkpt lat="50.622876" lon="8.812648">
        <ele>247.434455</ele>
        <time>2026-05-04T13:17:54.840Z</time>
      </trkpt>
      <trkpt lat="50.623372" lon="8.813525">
        <ele>247.469567</ele>
        <time>2026-05-04T13:18:03.433Z</time>
      </trkpt>
      <trkpt lat="50.623774" lon="8.814253">
        <ele>246.626924</ele>
        <time>2026-05-04T13:18:09.537Z</time>
      </trkpt>
      <trkpt lat="50.624281" lon="8.815143">
        <ele>244.177386</ele>
        <time>2026-05-04T13:18:15.996Z</time>
      </trkpt>
      <trkpt lat="50.624329" lon="8.815209">
        <ele>243.971777</ele>
        <time>2026-05-04T13:18:16.495Z</time>
      </trkpt>
      <trkpt lat="50.624831" lon="8.815945">
        <ele>241.758748</ele>
        <time>2026-05-04T13:18:21.682Z</time>
      </trkpt>
      <trkpt lat="50.624924" lon="8.816151">
        <ele>240.997044</ele>
        <time>2026-05-04T13:18:22.865Z</time>
      </trkpt>
      <trkpt lat="50.625077" lon="8.816627">
        <ele>239.296973</ele>
        <time>2026-05-04T13:18:25.358Z</time>
      </trkpt>
      <trkpt lat="50.625277" lon="8.817594">
        <ele>236.056557</ele>
        <time>2026-05-04T13:18:30.140Z</time>
      </trkpt>
      <trkpt lat="50.625341" lon="8.817904">
        <ele>235.017930</ele>
        <time>2026-05-04T13:18:31.697Z</time>
      </trkpt>
      <trkpt lat="50.625499" lon="8.818675">
        <ele>232.562457</ele>
        <time>2026-05-04T13:18:35.627Z</time>
      </trkpt>
      <trkpt lat="50.625612" lon="8.819351">
        <ele>231.667728</ele>
        <time>2026-05-04T13:18:39.218Z</time>
      </trkpt>
      <trkpt lat="50.625617" lon="8.819514">
        <ele>231.458864</ele>
        <time>2026-05-04T13:18:40.084Z</time>
      </trkpt>
      <trkpt lat="50.625602" lon="8.820024">
        <ele>230.805426</ele>
        <time>2026-05-04T13:18:42.847Z</time>
      </trkpt>
      <trkpt lat="50.625619" lon="8.820147">
        <ele>230.644309</ele>
        <time>2026-05-04T13:18:43.557Z</time>
      </trkpt>
      <trkpt lat="50.625650" lon="8.820221">
        <ele>230.530811</ele>
        <time>2026-05-04T13:18:44.056Z</time>
      </trkpt>
      <trkpt lat="50.626051" lon="8.820692">
        <ele>229.521899</ele>
        <time>2026-05-04T13:18:48.867Z</time>
      </trkpt>
      <trkpt lat="50.626539" lon="8.821294">
        <ele>229.277113</ele>
        <time>2026-05-04T13:18:56.152Z</time>
      </trkpt>
      <trkpt lat="50.626824" lon="8.821771">
        <ele>229.567986</ele>
        <time>2026-05-04T13:19:02.418Z</time>
      </trkpt>
      <trkpt lat="50.626949" lon="8.822021">
        <ele>229.709288</ele>
        <time>2026-05-04T13:19:05.563Z</time>
      </trkpt>
      <trkpt lat="50.627069" lon="8.822146">
        <ele>229.809936</ele>
        <time>2026-05-04T13:19:07.838Z</time>
      </trkpt>
      <trkpt lat="50.627463" lon="8.822455">
        <ele>230.117875</ele>
        <time>2026-05-04T13:19:14.844Z</time>
      </trkpt>
      <trkpt lat="50.627560" lon="8.822571">
        <ele>230.203072</ele>
        <time>2026-05-04T13:19:16.693Z</time>
      </trkpt>
      <trkpt lat="50.627688" lon="8.822794">
        <ele>230.323022</ele>
        <time>2026-05-04T13:19:19.459Z</time>
      </trkpt>
      <trkpt lat="50.627783" lon="8.823019">
        <ele>230.415802</ele>
        <time>2026-05-04T13:19:21.799Z</time>
      </trkpt>
      <trkpt lat="50.628039" lon="8.823641">
        <ele>230.670317</ele>
        <time>2026-05-04T13:19:27.974Z</time>
      </trkpt>
      <trkpt lat="50.628354" lon="8.824368">
        <ele>230.972531</ele>
        <time>2026-05-04T13:19:35.040Z</time>
      </trkpt>
      <trkpt lat="50.628421" lon="8.824486">
        <ele>231.026892</ele>
        <time>2026-05-04T13:19:36.198Z</time>
      </trkpt>
      <trkpt lat="50.628663" lon="8.824698">
        <ele>231.176707</ele>
        <time>2026-05-04T13:19:39.737Z</time>
      </trkpt>
      <trkpt lat="50.628702" lon="8.824730">
        <ele>231.200499</ele>
        <time>2026-05-04T13:19:40.309Z</time>
      </trkpt>
      <trkpt lat="50.628771" lon="8.824796">
        <ele>231.244173</ele>
        <time>2026-05-04T13:19:41.505Z</time>
      </trkpt>
      <trkpt lat="50.629000" lon="8.825232">
        <ele>231.616033</ele>
        <time>2026-05-04T13:19:46.922Z</time>
      </trkpt>
      <trkpt lat="50.629157" lon="8.825403">
        <ele>231.816630</ele>
        <time>2026-05-04T13:19:50.045Z</time>
      </trkpt>
      <trkpt lat="50.629296" lon="8.825471">
        <ele>231.969621</ele>
        <time>2026-05-04T13:19:52.516Z</time>
      </trkpt>
      <trkpt lat="50.629589" lon="8.825519">
        <ele>232.279281</ele>
        <time>2026-05-04T13:19:57.507Z</time>
      </trkpt>
      <trkpt lat="50.629695" lon="8.825572">
        <ele>232.396179</ele>
        <time>2026-05-04T13:19:59.407Z</time>
      </trkpt>
      <trkpt lat="50.630125" lon="8.825979">
        <ele>232.923408</ele>
        <time>2026-05-04T13:20:07.081Z</time>
      </trkpt>
      <trkpt lat="50.630334" lon="8.826151">
        <ele>233.151756</ele>
        <time>2026-05-04T13:20:10.649Z</time>
      </trkpt>
      <trkpt lat="50.630504" lon="8.826263">
        <ele>233.221274</ele>
        <time>2026-05-04T13:20:13.302Z</time>
      </trkpt>
      <trkpt lat="50.630608" lon="8.826332">
        <ele>233.263847</ele>
        <time>2026-05-04T13:20:14.763Z</time>
      </trkpt>
      <trkpt lat="50.631176" lon="8.826721">
        <ele>233.497506</ele>
        <time>2026-05-04T13:20:21.652Z</time>
      </trkpt>
      <trkpt lat="50.631559" lon="8.827056">
        <ele>233.662766</ele>
        <time>2026-05-04T13:20:26.386Z</time>
      </trkpt>
      <trkpt lat="50.632003" lon="8.827437">
        <ele>234.005617</ele>
        <time>2026-05-04T13:20:33.635Z</time>
      </trkpt>
      <trkpt lat="50.632029" lon="8.827459">
        <ele>234.066545</ele>
        <time>2026-05-04T13:20:34.123Z</time>
      </trkpt>
      <trkpt lat="50.632124" lon="8.827540">
        <ele>234.289550</ele>
        <time>2026-05-04T13:20:35.958Z</time>
      </trkpt>
      <trkpt lat="50.632324" lon="8.827709">
        <ele>234.758086</ele>
        <time>2026-05-04T13:20:40.050Z</time>
      </trkpt>
      <trkpt lat="50.632397" lon="8.827598">
        <ele>234.967499</ele>
        <time>2026-05-04T13:20:42.022Z</time>
      </trkpt>
      <trkpt lat="50.632510" lon="8.827546">
        <ele>235.210557</ele>
        <time>2026-05-04T13:20:44.411Z</time>
      </trkpt>
      <trkpt lat="50.633774" lon="8.827658">
        <ele>237.827965</ele>
        <time>2026-05-04T13:21:09.884Z</time>
      </trkpt>
      <trkpt lat="50.634075" lon="8.827606">
        <ele>238.460454</ele>
        <time>2026-05-04T13:21:15.341Z</time>
      </trkpt>
      <trkpt lat="50.634374" lon="8.827565">
        <ele>239.087360</ele>
        <time>2026-05-04T13:21:20.360Z</time>
      </trkpt>
      <trkpt lat="50.634989" lon="8.827613">
        <ele>240.373538</ele>
        <time>2026-05-04T13:21:29.770Z</time>
      </trkpt>
      <trkpt lat="50.635853" lon="8.827496">
        <ele>243.315711</ele>
        <time>2026-05-04T13:21:48.136Z</time>
      </trkpt>
      <trkpt lat="50.637608" lon="8.827692">
        <ele>251.199110</ele>
        <time>2026-05-04T13:22:40.158Z</time>
      </trkpt>
      <trkpt lat="50.637809" lon="8.827685">
        <ele>251.924039</ele>
        <time>2026-05-04T13:22:45.750Z</time>
      </trkpt>
      <trkpt lat="50.638258" lon="8.827670">
        <ele>253.543377</ele>
        <time>2026-05-04T13:22:57.115Z</time>
      </trkpt>
      <trkpt lat="50.639839" lon="8.828316">
        <ele>257.420583</ele>
        <time>2026-05-04T13:23:26.069Z</time>
      </trkpt>
      <trkpt lat="50.640465" lon="8.828565">
        <ele>258.262027</ele>
        <time>2026-05-04T13:23:34.977Z</time>
      </trkpt>
      <trkpt lat="50.641464" lon="8.828726">
        <ele>259.760017</ele>
        <time>2026-05-04T13:23:50.314Z</time>
      </trkpt>
      <trkpt lat="50.641661" lon="8.828840">
        <ele>260.088278</ele>
        <time>2026-05-04T13:23:53.931Z</time>
      </trkpt>
      <trkpt lat="50.642390" lon="8.829858">
        <ele>261.722415</ele>
        <time>2026-05-04T13:24:11.654Z</time>
      </trkpt>
      <trkpt lat="50.642869" lon="8.831350">
        <ele>264.451397</ele>
        <time>2026-05-04T13:24:32.034Z</time>
      </trkpt>
      <trkpt lat="50.642964" lon="8.831527">
        <ele>264.829802</ele>
        <time>2026-05-04T13:24:34.968Z</time>
      </trkpt>
      <trkpt lat="50.643316" lon="8.831945">
        <ele>265.963714</ele>
        <time>2026-05-04T13:24:44.308Z</time>
      </trkpt>
      <trkpt lat="50.643665" lon="8.832145">
        <ele>267.536153</ele>
        <time>2026-05-04T13:24:53.025Z</time>
      </trkpt>
      <trkpt lat="50.644206" lon="8.832315">
        <ele>269.984455</ele>
        <time>2026-05-04T13:25:07.306Z</time>
      </trkpt>
      <trkpt lat="50.646007" lon="8.832845">
        <ele>277.894150</ele>
        <time>2026-05-04T13:25:58.490Z</time>
      </trkpt>
      <trkpt lat="50.646218" lon="8.832883">
        <ele>278.785327</ele>
        <time>2026-05-04T13:26:03.932Z</time>
      </trkpt>
      <trkpt lat="50.646315" lon="8.832865">
        <ele>279.195178</ele>
        <time>2026-05-04T13:26:06.395Z</time>
      </trkpt>
      <trkpt lat="50.646440" lon="8.832816">
        <ele>279.735679</ele>
        <time>2026-05-04T13:26:09.578Z</time>
      </trkpt>
      <trkpt lat="50.647501" lon="8.832127">
        <ele>282.851073</ele>
        <time>2026-05-04T13:26:33.334Z</time>
      </trkpt>
      <trkpt lat="50.648251" lon="8.831503">
        <ele>284.360806</ele>
        <time>2026-05-04T13:26:46.218Z</time>
      </trkpt>
      <trkpt lat="50.648380" lon="8.831420">
        <ele>284.608857</ele>
        <time>2026-05-04T13:26:48.204Z</time>
      </trkpt>
      <trkpt lat="50.648715" lon="8.831314">
        <ele>285.428408</ele>
        <time>2026-05-04T13:26:53.050Z</time>
      </trkpt>
      <trkpt lat="50.648953" lon="8.831321">
        <ele>286.067259</ele>
        <time>2026-05-04T13:26:56.569Z</time>
      </trkpt>
      <trkpt lat="50.650444" lon="8.832318">
        <ele>290.743342</ele>
        <time>2026-05-04T13:27:32.898Z</time>
      </trkpt>
      <trkpt lat="50.650592" lon="8.832315">
        <ele>291.307331</ele>
        <time>2026-05-04T13:27:37.055Z</time>
      </trkpt>
      <trkpt lat="50.651035" lon="8.832050">
        <ele>293.112685</ele>
        <time>2026-05-04T13:27:49.939Z</time>
      </trkpt>
      <trkpt lat="50.651152" lon="8.832161">
        <ele>293.632946</ele>
        <time>2026-05-04T13:27:53.497Z</time>
      </trkpt>
      <trkpt lat="50.651284" lon="8.832445">
        <ele>294.483688</ele>
        <time>2026-05-04T13:27:59.215Z</time>
      </trkpt>
      <trkpt lat="50.651331" lon="8.832557">
        <ele>294.808173</ele>
        <time>2026-05-04T13:28:01.397Z</time>
      </trkpt>
      <trkpt lat="50.651904" lon="8.833895">
        <ele>297.941903</ele>
        <time>2026-05-04T13:28:22.473Z</time>
      </trkpt>
      <trkpt lat="50.652067" lon="8.834379">
        <ele>298.809944</ele>
        <time>2026-05-04T13:28:28.666Z</time>
      </trkpt>
      <trkpt lat="50.652193" lon="8.834964">
        <ele>299.788526</ele>
        <time>2026-05-04T13:28:36.150Z</time>
      </trkpt>
      <trkpt lat="50.652260" lon="8.835489">
        <ele>300.636746</ele>
        <time>2026-05-04T13:28:43.039Z</time>
      </trkpt>
      <trkpt lat="50.652336" lon="8.836514">
        <ele>301.856332</ele>
        <time>2026-05-04T13:28:56.387Z</time>
      </trkpt>
      <trkpt lat="50.652461" lon="8.837209">
        <ele>302.634308</ele>
        <time>2026-05-04T13:29:04.938Z</time>
      </trkpt>
      <trkpt lat="50.652750" lon="8.837983">
        <ele>303.601624</ele>
        <time>2026-05-04T13:29:14.211Z</time>
      </trkpt>
      <trkpt lat="50.652996" lon="8.838430">
        <ele>304.000210</ele>
        <time>2026-05-04T13:29:19.297Z</time>
      </trkpt>
      <trkpt lat="50.653235" lon="8.838506">
        <ele>303.941365</ele>
        <time>2026-05-04T13:29:22.235Z</time>
      </trkpt>
      <trkpt lat="50.653540" lon="8.838496">
        <ele>303.867735</ele>
        <time>2026-05-04T13:29:25.657Z</time>
      </trkpt>
      <trkpt lat="50.653754" lon="8.838606">
        <ele>303.813411</ele>
        <time>2026-05-04T13:29:28.048Z</time>
      </trkpt>
      <trkpt lat="50.653950" lon="8.838810">
        <ele>303.756734</ele>
        <time>2026-05-04T13:29:30.461Z</time>
      </trkpt>
      <trkpt lat="50.655085" lon="8.840332">
        <ele>303.546513</ele>
        <time>2026-05-04T13:29:46.068Z</time>
      </trkpt>
      <trkpt lat="50.655455" lon="8.840897">
        <ele>303.515666</ele>
        <time>2026-05-04T13:29:52.434Z</time>
      </trkpt>
      <trkpt lat="50.656695" lon="8.843506">
        <ele>303.688272</ele>
        <time>2026-05-04T13:30:20.654Z</time>
      </trkpt>
      <trkpt lat="50.656777" lon="8.843988">
        <ele>303.365720</ele>
        <time>2026-05-04T13:30:23.735Z</time>
      </trkpt>
      <trkpt lat="50.656714" lon="8.844595">
        <ele>302.278820</ele>
        <time>2026-05-04T13:30:27.052Z</time>
      </trkpt>
      <trkpt lat="50.656777" lon="8.845243">
        <ele>301.120362</ele>
        <time>2026-05-04T13:30:30.412Z</time>
      </trkpt>
      <trkpt lat="50.656829" lon="8.845523">
        <ele>300.604786</ele>
        <time>2026-05-04T13:30:31.886Z</time>
      </trkpt>
      <trkpt lat="50.656920" lon="8.846091">
        <ele>299.569530</ele>
        <time>2026-05-04T13:30:34.850Z</time>
      </trkpt>
      <trkpt lat="50.656952" lon="8.846316">
        <ele>299.162055</ele>
        <time>2026-05-04T13:30:36.003Z</time>
      </trkpt>
      <trkpt lat="50.657181" lon="8.847721">
        <ele>296.355793</ele>
        <time>2026-05-04T13:30:43.374Z</time>
      </trkpt>
      <trkpt lat="50.657224" lon="8.848758">
        <ele>294.307141</ele>
        <time>2026-05-04T13:30:48.865Z</time>
      </trkpt>
      <trkpt lat="50.657266" lon="8.848762">
        <ele>294.176300</ele>
        <time>2026-05-04T13:30:49.207Z</time>
      </trkpt>
      <trkpt lat="50.657498" lon="8.848783">
        <ele>293.453691</ele>
        <time>2026-05-04T13:30:51.105Z</time>
      </trkpt>
      <trkpt lat="50.657581" lon="8.848771">
        <ele>293.194514</ele>
        <time>2026-05-04T13:30:51.781Z</time>
      </trkpt>
      <trkpt lat="50.657641" lon="8.848724">
        <ele>293.034801</ele>
        <time>2026-05-04T13:30:52.328Z</time>
      </trkpt>
      <trkpt lat="50.657825" lon="8.848174">
        <ele>292.307338</ele>
        <time>2026-05-04T13:30:55.540Z</time>
      </trkpt>
      <trkpt lat="50.657899" lon="8.847789">
        <ele>291.836733</ele>
        <time>2026-05-04T13:30:57.623Z</time>
      </trkpt>
      <trkpt lat="50.657900" lon="8.847009">
        <ele>290.924314</ele>
        <time>2026-05-04T13:31:01.854Z</time>
      </trkpt>
      <trkpt lat="50.657770" lon="8.846290">
        <ele>290.049712</ele>
        <time>2026-05-04T13:31:06.494Z</time>
      </trkpt>
      <trkpt lat="50.657648" lon="8.845787">
        <ele>289.617241</ele>
        <time>2026-05-04T13:31:11.054Z</time>
      </trkpt>
      <trkpt lat="50.657487" lon="8.845116">
        <ele>289.229495</ele>
        <time>2026-05-04T13:31:18.358Z</time>
      </trkpt>
      <trkpt lat="50.657455" lon="8.844884">
        <ele>289.101178</ele>
        <time>2026-05-04T13:31:20.535Z</time>
      </trkpt>
      <trkpt lat="50.657458" lon="8.844637">
        <ele>288.967662</ele>
        <time>2026-05-04T13:31:22.606Z</time>
      </trkpt>
      <trkpt lat="50.657525" lon="8.844039">
        <ele>288.639466</ele>
        <time>2026-05-04T13:31:26.454Z</time>
      </trkpt>
      <trkpt lat="50.657572" lon="8.843745">
        <ele>288.475600</ele>
        <time>2026-05-04T13:31:28.071Z</time>
      </trkpt>
      <trkpt lat="50.657700" lon="8.842904">
        <ele>287.047815</ele>
        <time>2026-05-04T13:31:32.442Z</time>
      </trkpt>
      <trkpt lat="50.657764" lon="8.842604">
        <ele>286.207136</ele>
        <time>2026-05-04T13:31:34.010Z</time>
      </trkpt>
      <trkpt lat="50.657879" lon="8.842257">
        <ele>285.167198</ele>
        <time>2026-05-04T13:31:35.891Z</time>
      </trkpt>
      <trkpt lat="50.658016" lon="8.841892">
        <ele>284.040623</ele>
        <time>2026-05-04T13:31:37.924Z</time>
      </trkpt>
      <trkpt lat="50.658299" lon="8.840823">
        <ele>280.963861</ele>
        <time>2026-05-04T13:31:43.563Z</time>
      </trkpt>
      <trkpt lat="50.658403" lon="8.840272">
        <ele>279.013177</ele>
        <time>2026-05-04T13:31:46.416Z</time>
      </trkpt>
      <trkpt lat="50.658542" lon="8.839528">
        <ele>276.271745</ele>
        <time>2026-05-04T13:31:50.157Z</time>
      </trkpt>
      <trkpt lat="50.658893" lon="8.838668">
        <ele>272.656676</ele>
        <time>2026-05-04T13:31:54.927Z</time>
      </trkpt>
      <trkpt lat="50.659097" lon="8.838265">
        <ele>270.833931</ele>
        <time>2026-05-04T13:31:57.291Z</time>
      </trkpt>
      <trkpt lat="50.659856" lon="8.836790">
        <ele>262.245194</ele>
        <time>2026-05-04T13:32:05.863Z</time>
      </trkpt>
      <trkpt lat="50.660267" lon="8.836020">
        <ele>257.705736</ele>
        <time>2026-05-04T13:32:10.443Z</time>
      </trkpt>
      <trkpt lat="50.660866" lon="8.834952">
        <ele>252.885892</ele>
        <time>2026-05-04T13:32:16.971Z</time>
      </trkpt>
      <trkpt lat="50.661081" lon="8.834741">
        <ele>251.535806</ele>
        <time>2026-05-04T13:32:18.906Z</time>
      </trkpt>
      <trkpt lat="50.661191" lon="8.834616">
        <ele>250.812974</ele>
        <time>2026-05-04T13:32:19.959Z</time>
      </trkpt>
      <trkpt lat="50.662595" lon="8.833623">
        <ele>245.162774</ele>
        <time>2026-05-04T13:32:32.442Z</time>
      </trkpt>
      <trkpt lat="50.662905" lon="8.833360">
        <ele>244.141484</ele>
        <time>2026-05-04T13:32:35.495Z</time>
      </trkpt>
      <trkpt lat="50.663692" lon="8.833376">
        <ele>241.722623</ele>
        <time>2026-05-04T13:32:42.165Z</time>
      </trkpt>
      <trkpt lat="50.666641" lon="8.833001">
        <ele>232.001530</ele>
        <time>2026-05-04T13:33:05.773Z</time>
      </trkpt>
      <trkpt lat="50.667174" lon="8.832937">
        <ele>230.418571</ele>
        <time>2026-05-04T13:33:10.227Z</time>
      </trkpt>
      <trkpt lat="50.667877" lon="8.832836">
        <ele>228.547056</ele>
        <time>2026-05-04T13:33:16.271Z</time>
      </trkpt>
      <trkpt lat="50.667924" lon="8.832832">
        <ele>228.422268</ele>
        <time>2026-05-04T13:33:16.674Z</time>
      </trkpt>
      <trkpt lat="50.669484" lon="8.832629">
        <ele>223.778413</ele>
        <time>2026-05-04T13:33:29.714Z</time>
      </trkpt>
      <trkpt lat="50.670914" lon="8.832448">
        <ele>218.808173</ele>
        <time>2026-05-04T13:33:41.067Z</time>
      </trkpt>
      <trkpt lat="50.671467" lon="8.832349">
        <ele>216.629211</ele>
        <time>2026-05-04T13:33:45.485Z</time>
      </trkpt>
      <trkpt lat="50.672143" lon="8.832110">
        <ele>213.916954</ele>
        <time>2026-05-04T13:33:50.929Z</time>
      </trkpt>
      <trkpt lat="50.672394" lon="8.831991">
        <ele>212.711429</ele>
        <time>2026-05-04T13:33:52.953Z</time>
      </trkpt>
      <trkpt lat="50.672528" lon="8.831858">
        <ele>211.908745</ele>
        <time>2026-05-04T13:33:54.153Z</time>
      </trkpt>
      <trkpt lat="50.672649" lon="8.831661">
        <ele>211.027180</ele>
        <time>2026-05-04T13:33:55.454Z</time>
      </trkpt>
      <trkpt lat="50.672958" lon="8.830770">
        <ele>207.763386</ele>
        <time>2026-05-04T13:34:00.143Z</time>
      </trkpt>
      <trkpt lat="50.673246" lon="8.830269">
        <ele>205.589853</ele>
        <time>2026-05-04T13:34:03.337Z</time>
      </trkpt>
      <trkpt lat="50.673317" lon="8.830127">
        <ele>205.008638</ele>
        <time>2026-05-04T13:34:04.213Z</time>
      </trkpt>
      <trkpt lat="50.673340" lon="8.830026">
        <ele>204.663772</ele>
        <time>2026-05-04T13:34:04.739Z</time>
      </trkpt>
      <trkpt lat="50.673519" lon="8.830033">
        <ele>204.105516</ele>
        <time>2026-05-04T13:34:06.126Z</time>
      </trkpt>
      <trkpt lat="50.673626" lon="8.830252">
        <ele>203.715588</ele>
        <time>2026-05-04T13:34:07.527Z</time>
      </trkpt>
      <trkpt lat="50.673932" lon="8.831637">
        <ele>201.647348</ele>
        <time>2026-05-04T13:34:15.579Z</time>
      </trkpt>
      <trkpt lat="50.674014" lon="8.831694">
        <ele>201.447977</ele>
        <time>2026-05-04T13:34:16.611Z</time>
      </trkpt>
      <trkpt lat="50.674338" lon="8.831810">
        <ele>200.708744</ele>
        <time>2026-05-04T13:34:20.083Z</time>
      </trkpt>
      <trkpt lat="50.674574" lon="8.831952">
        <ele>200.273130</ele>
        <time>2026-05-04T13:34:22.547Z</time>
      </trkpt>
      <trkpt lat="50.674857" lon="8.832340">
        <ele>199.897040</ele>
        <time>2026-05-04T13:34:26.082Z</time>
      </trkpt>
      <trkpt lat="50.675215" lon="8.832230">
        <ele>199.531156</ele>
        <time>2026-05-04T13:34:30.872Z</time>
      </trkpt>
      <trkpt lat="50.675704" lon="8.832134">
        <ele>199.036818</ele>
        <time>2026-05-04T13:34:37.431Z</time>
      </trkpt>
      <trkpt lat="50.676007" lon="8.832147">
        <ele>198.732742</ele>
        <time>2026-05-04T13:34:41.668Z</time>
      </trkpt>
      <trkpt lat="50.676369" lon="8.832175">
        <ele>198.789478</ele>
        <time>2026-05-04T13:34:47.264Z</time>
      </trkpt>
      <trkpt lat="50.676693" lon="8.832143">
        <ele>199.136911</ele>
        <time>2026-05-04T13:34:53.067Z</time>
      </trkpt>
      <trkpt lat="50.677371" lon="8.832090">
        <ele>199.863415</ele>
        <time>2026-05-04T13:35:06.848Z</time>
      </trkpt>
      <trkpt lat="50.677958" lon="8.832093">
        <ele>200.491642</ele>
        <time>2026-05-04T13:35:20.040Z</time>
      </trkpt>
      <trkpt lat="50.678001" lon="8.832871">
        <ele>201.105738</ele>
        <time>2026-05-04T13:35:29.086Z</time>
      </trkpt>
      <trkpt lat="50.678037" lon="8.833526">
        <ele>201.623518</ele>
        <time>2026-05-04T13:35:36.185Z</time>
      </trkpt>
      <trkpt lat="50.678051" lon="8.833833">
        <ele>201.865919</ele>
        <time>2026-05-04T13:35:39.274Z</time>
      </trkpt>
      <trkpt lat="50.678103" lon="8.834370">
        <ele>202.293741</ele>
        <time>2026-05-04T13:35:44.369Z</time>
      </trkpt>
      <trkpt lat="50.678161" lon="8.834680">
        <ele>202.548299</ele>
        <time>2026-05-04T13:35:47.219Z</time>
      </trkpt>
      <trkpt lat="50.678313" lon="8.835168">
        <ele>202.761444</ele>
        <time>2026-05-04T13:35:51.703Z</time>
      </trkpt>
      <trkpt lat="50.678792" lon="8.836162">
        <ele>202.876789</ele>
        <time>2026-05-04T13:36:00.892Z</time>
      </trkpt>
      <trkpt lat="50.678932" lon="8.836475">
        <ele>202.912177</ele>
        <time>2026-05-04T13:36:03.682Z</time>
      </trkpt>
      <trkpt lat="50.679020" lon="8.836754">
        <ele>202.940963</ele>
        <time>2026-05-04T13:36:06.008Z</time>
      </trkpt>
      <trkpt lat="50.679157" lon="8.837348">
        <ele>203.011301</ele>
        <time>2026-05-04T13:36:10.963Z</time>
      </trkpt>
      <trkpt lat="50.679247" lon="8.838229">
        <ele>203.322496</ele>
        <time>2026-05-04T13:36:18.456Z</time>
      </trkpt>
      <trkpt lat="50.679376" lon="8.839692">
        <ele>203.837598</ele>
        <time>2026-05-04T13:36:31.310Z</time>
      </trkpt>
      <trkpt lat="50.679400" lon="8.840171">
        <ele>204.019227</ele>
        <time>2026-05-04T13:36:35.861Z</time>
      </trkpt>
      <trkpt lat="50.679368" lon="8.840559">
        <ele>204.250436</ele>
        <time>2026-05-04T13:36:39.524Z</time>
      </trkpt>
      <trkpt lat="50.679242" lon="8.841036">
        <ele>204.555813</ele>
        <time>2026-05-04T13:36:44.302Z</time>
      </trkpt>
      <trkpt lat="50.679099" lon="8.841380">
        <ele>204.798926</ele>
        <time>2026-05-04T13:36:48.048Z</time>
      </trkpt>
      <trkpt lat="50.678934" lon="8.841698">
        <ele>205.041798</ele>
        <time>2026-05-04T13:36:51.841Z</time>
      </trkpt>
      <trkpt lat="50.678624" lon="8.842326">
        <ele>205.512209</ele>
        <time>2026-05-04T13:36:59.504Z</time>
      </trkpt>
      <trkpt lat="50.678497" lon="8.842718">
        <ele>205.777599</ele>
        <time>2026-05-04T13:37:03.766Z</time>
      </trkpt>
      <trkpt lat="50.678428" lon="8.843016">
        <ele>205.973978</ele>
        <time>2026-05-04T13:37:06.847Z</time>
      </trkpt>
      <trkpt lat="50.678383" lon="8.843332">
        <ele>206.174449</ele>
        <time>2026-05-04T13:37:10.005Z</time>
      </trkpt>
      <trkpt lat="50.678341" lon="8.844017">
        <ele>206.600420</ele>
        <time>2026-05-04T13:37:16.967Z</time>
      </trkpt>
      <trkpt lat="50.678283" lon="8.845819">
        <ele>207.577717</ele>
        <time>2026-05-04T13:37:33.650Z</time>
      </trkpt>
      <trkpt lat="50.678314" lon="8.846261">
        <ele>207.724157</ele>
        <time>2026-05-04T13:37:37.315Z</time>
      </trkpt>
      <trkpt lat="50.678427" lon="8.846951">
        <ele>207.958840</ele>
        <time>2026-05-04T13:37:43.179Z</time>
      </trkpt>
      <trkpt lat="50.678550" lon="8.847509">
        <ele>208.153390</ele>
        <time>2026-05-04T13:37:47.952Z</time>
      </trkpt>
      <trkpt lat="50.678694" lon="8.848302">
        <ele>208.504353</ele>
        <time>2026-05-04T13:37:54.708Z</time>
      </trkpt>
      <trkpt lat="50.678721" lon="8.848516">
        <ele>208.656224</ele>
        <time>2026-05-04T13:37:56.710Z</time>
      </trkpt>
      <trkpt lat="50.678699" lon="8.848804">
        <ele>208.858127</ele>
        <time>2026-05-04T13:37:59.520Z</time>
      </trkpt>
      <trkpt lat="50.678610" lon="8.849210">
        <ele>209.157140</ele>
        <time>2026-05-04T13:38:03.838Z</time>
      </trkpt>
      <trkpt lat="50.678485" lon="8.849568">
        <ele>209.441636</ele>
        <time>2026-05-04T13:38:08.025Z</time>
      </trkpt>
      <trkpt lat="50.678435" lon="8.849687">
        <ele>209.541016</ele>
        <time>2026-05-04T13:38:09.481Z</time>
      </trkpt>
      <trkpt lat="50.678266" lon="8.850162">
        <ele>209.920172</ele>
        <time>2026-05-04T13:38:14.974Z</time>
      </trkpt>
      <trkpt lat="50.677638" lon="8.851839">
        <ele>211.606234</ele>
        <time>2026-05-04T13:38:34.827Z</time>
      </trkpt>
      <trkpt lat="50.677542" lon="8.852037">
        <ele>211.840301</ele>
        <time>2026-05-04T13:38:37.399Z</time>
      </trkpt>
      <trkpt lat="50.677378" lon="8.852270">
        <ele>212.167248</ele>
        <time>2026-05-04T13:38:41.004Z</time>
      </trkpt>
      <trkpt lat="50.676561" lon="8.853211">
        <ele>213.541577</ele>
        <time>2026-05-04T13:38:58.905Z</time>
      </trkpt>
      <trkpt lat="50.676094" lon="8.853762">
        <ele>214.245647</ele>
        <time>2026-05-04T13:39:08.499Z</time>
      </trkpt>
      <trkpt lat="50.675883" lon="8.854242">
        <ele>214.692642</ele>
        <time>2026-05-04T13:39:13.917Z</time>
      </trkpt>
      <trkpt lat="50.675850" lon="8.854399">
        <ele>214.819210</ele>
        <time>2026-05-04T13:39:15.358Z</time>
      </trkpt>
      <trkpt lat="50.675829" lon="8.854688">
        <ele>215.041794</ele>
        <time>2026-05-04T13:39:17.896Z</time>
      </trkpt>
      <trkpt lat="50.675866" lon="8.855332">
        <ele>215.491488</ele>
        <time>2026-05-04T13:39:23.405Z</time>
      </trkpt>
      <trkpt lat="50.675939" lon="8.856213">
        <ele>216.088593</ele>
        <time>2026-05-04T13:39:30.616Z</time>
      </trkpt>
      <trkpt lat="50.675914" lon="8.856572">
        <ele>216.331307</ele>
        <time>2026-05-04T13:39:33.748Z</time>
      </trkpt>
      <trkpt lat="50.675830" lon="8.857329">
        <ele>216.847781</ele>
        <time>2026-05-04T13:39:41.680Z</time>
      </trkpt>
      <trkpt lat="50.675772" lon="8.857554">
        <ele>217.011021</ele>
        <time>2026-05-04T13:39:44.448Z</time>
      </trkpt>
      <trkpt lat="50.675766" lon="8.857580">
        <ele>217.029616</ele>
        <time>2026-05-04T13:39:44.775Z</time>
      </trkpt>
      <trkpt lat="50.675604" lon="8.858040">
        <ele>217.810044</ele>
        <time>2026-05-04T13:39:51.461Z</time>
      </trkpt>
      <trkpt lat="50.675607" lon="8.858166">
        <ele>218.011514</ele>
        <time>2026-05-04T13:39:53.198Z</time>
      </trkpt>
      <trkpt lat="50.675714" lon="8.858829">
        <ele>219.104701</ele>
        <time>2026-05-04T13:40:03.177Z</time>
      </trkpt>
      <trkpt lat="50.675708" lon="8.859030">
        <ele>219.426224</ele>
        <time>2026-05-04T13:40:06.043Z</time>
      </trkpt>
      <trkpt lat="50.675650" lon="8.859266">
        <ele>219.830680</ele>
        <time>2026-05-04T13:40:09.505Z</time>
      </trkpt>
      <trkpt lat="50.675637" lon="8.859315">
        <ele>219.915559</ele>
        <time>2026-05-04T13:40:10.223Z</time>
      </trkpt>
      <trkpt lat="50.675424" lon="8.860156">
        <ele>221.362698</ele>
        <time>2026-05-04T13:40:21.281Z</time>
      </trkpt>
      <trkpt lat="50.675348" lon="8.860382">
        <ele>221.719651</ele>
        <time>2026-05-04T13:40:23.973Z</time>
      </trkpt>
      <trkpt lat="50.675050" lon="8.860694">
        <ele>222.334281</ele>
        <time>2026-05-04T13:40:29.936Z</time>
      </trkpt>
      <trkpt lat="50.674773" lon="8.861062">
        <ele>222.956596</ele>
        <time>2026-05-04T13:40:36.285Z</time>
      </trkpt>
      <trkpt lat="50.674596" lon="8.861354">
        <ele>223.396685</ele>
        <time>2026-05-04T13:40:40.587Z</time>
      </trkpt>
      <trkpt lat="50.674537" lon="8.861628">
        <ele>223.711867</ele>
        <time>2026-05-04T13:40:43.515Z</time>
      </trkpt>
      <trkpt lat="50.674538" lon="8.861813">
        <ele>223.913365</ele>
        <time>2026-05-04T13:40:45.392Z</time>
      </trkpt>
      <trkpt lat="50.674562" lon="8.861907">
        <ele>224.023741</ele>
        <time>2026-05-04T13:40:46.468Z</time>
      </trkpt>
      <trkpt lat="50.674631" lon="8.862023">
        <ele>224.197017</ele>
        <time>2026-05-04T13:40:48.093Z</time>
      </trkpt>
      <trkpt lat="50.674820" lon="8.862307">
        <ele>224.645553</ele>
        <time>2026-05-04T13:40:52.545Z</time>
      </trkpt>
      <trkpt lat="50.674890" lon="8.862464">
        <ele>224.851370</ele>
        <time>2026-05-04T13:40:54.739Z</time>
      </trkpt>
      <trkpt lat="50.674918" lon="8.862596">
        <ele>224.999785</ele>
        <time>2026-05-04T13:40:56.339Z</time>
      </trkpt>
      <trkpt lat="50.674933" lon="8.862863">
        <ele>225.285580</ele>
        <time>2026-05-04T13:40:59.620Z</time>
      </trkpt>
      <trkpt lat="50.675004" lon="8.863755">
        <ele>226.244112</ele>
        <time>2026-05-04T13:41:10.914Z</time>
      </trkpt>
      <trkpt lat="50.675006" lon="8.863798">
        <ele>226.290082</ele>
        <time>2026-05-04T13:41:11.430Z</time>
      </trkpt>
      <trkpt lat="50.675050" lon="8.864492">
        <ele>227.033725</ele>
        <time>2026-05-04T13:41:18.554Z</time>
      </trkpt>
      <trkpt lat="50.675030" lon="8.864856">
        <ele>227.423281</ele>
        <time>2026-05-04T13:41:21.906Z</time>
      </trkpt>
      <trkpt lat="50.674716" lon="8.865957">
        <ele>228.492592</ele>
        <time>2026-05-04T13:41:33.776Z</time>
      </trkpt>
      <trkpt lat="50.674569" lon="8.866271">
        <ele>228.816675</ele>
        <time>2026-05-04T13:41:37.774Z</time>
      </trkpt>
      <trkpt lat="50.674301" lon="8.866673">
        <ele>229.301054</ele>
        <time>2026-05-04T13:41:43.930Z</time>
      </trkpt>
      <trkpt lat="50.673620" lon="8.867658">
        <ele>230.357614</ele>
        <time>2026-05-04T13:41:59.225Z</time>
      </trkpt>
      <trkpt lat="50.672808" lon="8.868757">
        <ele>231.257307</ele>
        <time>2026-05-04T13:42:14.726Z</time>
      </trkpt>
      <trkpt lat="50.672441" lon="8.869296">
        <ele>231.663339</ele>
        <time>2026-05-04T13:42:21.028Z</time>
      </trkpt>
      <trkpt lat="50.672404" lon="8.869345">
        <ele>231.696419</ele>
        <time>2026-05-04T13:42:21.700Z</time>
      </trkpt>
      <trkpt lat="50.672030" lon="8.869849">
        <ele>232.033235</ele>
        <time>2026-05-04T13:42:28.312Z</time>
      </trkpt>
      <trkpt lat="50.671997" lon="8.869884">
        <ele>232.060465</ele>
        <time>2026-05-04T13:42:28.866Z</time>
      </trkpt>
      <trkpt lat="50.671457" lon="8.870469">
        <ele>232.509037</ele>
        <time>2026-05-04T13:42:38.209Z</time>
      </trkpt>
      <trkpt lat="50.671078" lon="8.870903">
        <ele>232.831198</ele>
        <time>2026-05-04T13:42:44.955Z</time>
      </trkpt>
      <trkpt lat="50.670829" lon="8.871172">
        <ele>233.133888</ele>
        <time>2026-05-04T13:42:49.399Z</time>
      </trkpt>
      <trkpt lat="50.669896" lon="8.872291">
        <ele>234.309400</ele>
        <time>2026-05-04T13:43:07.069Z</time>
      </trkpt>
      <trkpt lat="50.669180" lon="8.873152">
        <ele>235.645097</ele>
        <time>2026-05-04T13:43:21.294Z</time>
      </trkpt>
      <trkpt lat="50.669128" lon="8.873207">
        <ele>235.754602</ele>
        <time>2026-05-04T13:43:22.305Z</time>
      </trkpt>
      <trkpt lat="50.668650" lon="8.873729">
        <ele>236.771457</ele>
        <time>2026-05-04T13:43:32.264Z</time>
      </trkpt>
      <trkpt lat="50.668564" lon="8.873782">
        <ele>236.932956</ele>
        <time>2026-05-04T13:43:33.914Z</time>
      </trkpt>
      <trkpt lat="50.668381" lon="8.873842">
        <ele>237.259897</ele>
        <time>2026-05-04T13:43:37.270Z</time>
      </trkpt>
      <trkpt lat="50.667825" lon="8.873864">
        <ele>238.569736</ele>
        <time>2026-05-04T13:43:48.158Z</time>
      </trkpt>
      <trkpt lat="50.667640" lon="8.873868">
        <ele>239.132588</ele>
        <time>2026-05-04T13:43:52.239Z</time>
      </trkpt>
      <trkpt lat="50.667614" lon="8.873869">
        <ele>239.211708</ele>
        <time>2026-05-04T13:43:52.808Z</time>
      </trkpt>
      <trkpt lat="50.667481" lon="8.873874">
        <ele>239.616430</ele>
        <time>2026-05-04T13:43:55.930Z</time>
      </trkpt>
      <trkpt lat="50.667283" lon="8.873951">
        <ele>240.236805</ele>
        <time>2026-05-04T13:44:00.690Z</time>
      </trkpt>
      <trkpt lat="50.667173" lon="8.874057">
        <ele>240.628923</ele>
        <time>2026-05-04T13:44:03.762Z</time>
      </trkpt>
      <trkpt lat="50.666960" lon="8.874345">
        <ele>241.482304</ele>
        <time>2026-05-04T13:44:10.489Z</time>
      </trkpt>
      <trkpt lat="50.666630" lon="8.874852">
        <ele>242.883570</ele>
        <time>2026-05-04T13:44:20.987Z</time>
      </trkpt>
      <trkpt lat="50.666131" lon="8.875609">
        <ele>243.793836</ele>
        <time>2026-05-04T13:44:34.271Z</time>
      </trkpt>
      <trkpt lat="50.666420" lon="8.876226">
        <ele>244.257126</ele>
        <time>2026-05-04T13:44:40.828Z</time>
      </trkpt>
      <trkpt lat="50.666461" lon="8.876313">
        <ele>244.322593</ele>
        <time>2026-05-04T13:44:41.595Z</time>
      </trkpt>
      <trkpt lat="50.666498" lon="8.876525">
        <ele>244.455380</ele>
        <time>2026-05-04T13:44:43.090Z</time>
      </trkpt>
      <trkpt lat="50.666513" lon="8.876899">
        <ele>244.681680</ele>
        <time>2026-05-04T13:44:45.571Z</time>
      </trkpt>
      <trkpt lat="50.666412" lon="8.877793">
        <ele>245.226209</ele>
        <time>2026-05-04T13:44:52.150Z</time>
      </trkpt>
      <trkpt lat="50.666352" lon="8.878132">
        <ele>245.435702</ele>
        <time>2026-05-04T13:44:55.154Z</time>
      </trkpt>
      <trkpt lat="50.666268" lon="8.878439">
        <ele>245.634730</ele>
        <time>2026-05-04T13:44:58.211Z</time>
      </trkpt>
      <trkpt lat="50.665941" lon="8.879177">
        <ele>246.170683</ele>
        <time>2026-05-04T13:45:07.513Z</time>
      </trkpt>
      <trkpt lat="50.665734" lon="8.879512">
        <ele>246.449151</ele>
        <time>2026-05-04T13:45:12.621Z</time>
      </trkpt>
      <trkpt lat="50.665407" lon="8.879923">
        <ele>246.805653</ele>
        <time>2026-05-04T13:45:20.018Z</time>
      </trkpt>
      <trkpt lat="50.664437" lon="8.880872">
        <ele>247.674315</ele>
        <time>2026-05-04T13:45:36.325Z</time>
      </trkpt>
      <trkpt lat="50.664145" lon="8.881315">
        <ele>247.982630</ele>
        <time>2026-05-04T13:45:41.282Z</time>
      </trkpt>
      <trkpt lat="50.663955" lon="8.881674">
        <ele>248.266147</ele>
        <time>2026-05-04T13:45:44.893Z</time>
      </trkpt>
      <trkpt lat="50.663781" lon="8.882130">
        <ele>248.601954</ele>
        <time>2026-05-04T13:45:49.137Z</time>
      </trkpt>
      <trkpt lat="50.663616" lon="8.882763">
        <ele>249.033780</ele>
        <time>2026-05-04T13:45:55.285Z</time>
      </trkpt>
      <trkpt lat="50.663499" lon="8.883427">
        <ele>249.468600</ele>
        <time>2026-05-04T13:46:02.533Z</time>
      </trkpt>
      <trkpt lat="50.663418" lon="8.884108">
        <ele>249.959041</ele>
        <time>2026-05-04T13:46:10.406Z</time>
      </trkpt>
      <trkpt lat="50.663240" lon="8.884793">
        <ele>250.687246</ele>
        <time>2026-05-04T13:46:19.157Z</time>
      </trkpt>
      <trkpt lat="50.663230" lon="8.884829">
        <ele>250.725907</ele>
        <time>2026-05-04T13:46:19.626Z</time>
      </trkpt>
      <trkpt lat="50.663110" lon="8.885155">
        <ele>251.096717</ele>
        <time>2026-05-04T13:46:24.059Z</time>
      </trkpt>
      <trkpt lat="50.662837" lon="8.885728">
        <ele>251.801796</ele>
        <time>2026-05-04T13:46:31.967Z</time>
      </trkpt>
      <trkpt lat="50.661990" lon="8.886953">
        <ele>252.720658</ele>
        <time>2026-05-04T13:46:48.232Z</time>
      </trkpt>
      <trkpt lat="50.661696" lon="8.887501">
        <ele>252.806209</ele>
        <time>2026-05-04T13:46:53.775Z</time>
      </trkpt>
      <trkpt lat="50.661562" lon="8.887903">
        <ele>252.860333</ele>
        <time>2026-05-04T13:46:57.166Z</time>
      </trkpt>
      <trkpt lat="50.661300" lon="8.888511">
        <ele>252.911153</ele>
        <time>2026-05-04T13:47:02.672Z</time>
      </trkpt>
      <trkpt lat="50.661024" lon="8.888962">
        <ele>252.654359</ele>
        <time>2026-05-04T13:47:06.748Z</time>
      </trkpt>
      <trkpt lat="50.660759" lon="8.889302">
        <ele>252.433624</ele>
        <time>2026-05-04T13:47:10.145Z</time>
      </trkpt>
      <trkpt lat="50.660430" lon="8.889602">
        <ele>252.188055</ele>
        <time>2026-05-04T13:47:13.982Z</time>
      </trkpt>
      <trkpt lat="50.660504" lon="8.889787">
        <ele>252.098444</ele>
        <time>2026-05-04T13:47:15.356Z</time>
      </trkpt>
      <trkpt lat="50.660391" lon="8.889913">
        <ele>252.009021</ele>
        <time>2026-05-04T13:47:16.748Z</time>
      </trkpt>
      <trkpt lat="50.660273" lon="8.890034">
        <ele>251.918073</ele>
        <time>2026-05-04T13:47:18.181Z</time>
      </trkpt>
      <trkpt lat="50.660013" lon="8.890236">
        <ele>251.753814</ele>
        <time>2026-05-04T13:47:21.120Z</time>
      </trkpt>
      <trkpt lat="50.659937" lon="8.890295">
        <ele>251.726156</ele>
        <time>2026-05-04T13:47:21.976Z</time>
      </trkpt>
      <trkpt lat="50.659060" lon="8.890849">
        <ele>251.417689</ele>
        <time>2026-05-04T13:47:32.064Z</time>
      </trkpt>
      <trkpt lat="50.658941" lon="8.890916">
        <ele>251.376432</ele>
        <time>2026-05-04T13:47:33.470Z</time>
      </trkpt>
      <trkpt lat="50.658573" lon="8.890981">
        <ele>251.255521</ele>
        <time>2026-05-04T13:47:37.539Z</time>
      </trkpt>
      <trkpt lat="50.658265" lon="8.891059">
        <ele>251.271050</ele>
        <time>2026-05-04T13:47:41.170Z</time>
      </trkpt>
      <trkpt lat="50.656683" lon="8.892051">
        <ele>252.512246</ele>
        <time>2026-05-04T13:48:05.711Z</time>
      </trkpt>
      <trkpt lat="50.656321" lon="8.892259">
        <ele>252.872993</ele>
        <time>2026-05-04T13:48:11.960Z</time>
      </trkpt>
      <trkpt lat="50.655909" lon="8.892420">
        <ele>253.270433</ele>
        <time>2026-05-04T13:48:18.855Z</time>
      </trkpt>
      <trkpt lat="50.654956" lon="8.892966">
        <ele>254.189117</ele>
        <time>2026-05-04T13:48:33.740Z</time>
      </trkpt>
      <trkpt lat="50.654901" lon="8.892976">
        <ele>254.198647</ele>
        <time>2026-05-04T13:48:34.448Z</time>
      </trkpt>
      <trkpt lat="50.654783" lon="8.892998">
        <ele>254.219099</ele>
        <time>2026-05-04T13:48:35.928Z</time>
      </trkpt>
      <trkpt lat="50.654540" lon="8.893114">
        <ele>254.262798</ele>
        <time>2026-05-04T13:48:39.015Z</time>
      </trkpt>
      <trkpt lat="50.654399" lon="8.893247">
        <ele>254.291076</ele>
        <time>2026-05-04T13:48:40.954Z</time>
      </trkpt>
      <trkpt lat="50.653179" lon="8.893575">
        <ele>254.521059</ele>
        <time>2026-05-04T13:48:55.452Z</time>
      </trkpt>
      <trkpt lat="50.650922" lon="8.894117">
        <ele>255.433079</ele>
        <time>2026-05-04T13:49:26.118Z</time>
      </trkpt>
      <trkpt lat="50.650115" lon="8.894434">
        <ele>255.739602</ele>
        <time>2026-05-04T13:49:36.983Z</time>
      </trkpt>
      <trkpt lat="50.649952" lon="8.894510">
        <ele>255.802249</ele>
        <time>2026-05-04T13:49:39.151Z</time>
      </trkpt>
      <trkpt lat="50.649407" lon="8.894948">
        <ele>255.983411</ele>
        <time>2026-05-04T13:49:46.882Z</time>
      </trkpt>
      <trkpt lat="50.648472" lon="8.895699">
        <ele>256.244730</ele>
        <time>2026-05-04T13:50:00.172Z</time>
      </trkpt>
      <trkpt lat="50.647652" lon="8.896413">
        <ele>256.580242</ele>
        <time>2026-05-04T13:50:11.764Z</time>
      </trkpt>
      <trkpt lat="50.647490" lon="8.896554">
        <ele>256.660235</ele>
        <time>2026-05-04T13:50:14.161Z</time>
      </trkpt>
      <trkpt lat="50.647658" lon="8.897109">
        <ele>256.828824</ele>
        <time>2026-05-04T13:50:19.341Z</time>
      </trkpt>
      <trkpt lat="50.647706" lon="8.897243">
        <ele>256.871013</ele>
        <time>2026-05-04T13:50:22.424Z</time>
      </trkpt>
      <trkpt lat="50.647748" lon="8.897367">
        <ele>256.909550</ele>
        <time>2026-05-04T13:50:23.666Z</time>
      </trkpt>
      <trkpt lat="50.647296" lon="8.897915">
        <ele>257.174180</ele>
        <time>2026-05-04T13:50:31.676Z</time>
      </trkpt>
      <trkpt lat="50.646696" lon="8.898556">
        <ele>257.631980</ele>
        <time>2026-05-04T13:50:42.374Z</time>
      </trkpt>
      <trkpt lat="50.646202" lon="8.899177">
        <ele>258.031052</ele>
        <time>2026-05-04T13:50:51.115Z</time>
      </trkpt>
      <trkpt lat="50.645883" lon="8.899423">
        <ele>258.254666</ele>
        <time>2026-05-04T13:50:55.762Z</time>
      </trkpt>
      <trkpt lat="50.645487" lon="8.899557">
        <ele>258.438581</ele>
        <time>2026-05-04T13:51:00.821Z</time>
      </trkpt>
      <trkpt lat="50.645268" lon="8.899576">
        <ele>258.538179</ele>
        <time>2026-05-04T13:51:03.522Z</time>
      </trkpt>
      <trkpt lat="50.644730" lon="8.899563">
        <ele>258.782512</ele>
        <time>2026-05-04T13:51:10.267Z</time>
      </trkpt>
      <trkpt lat="50.644720" lon="8.899564">
        <ele>258.787062</ele>
        <time>2026-05-04T13:51:10.401Z</time>
      </trkpt>
      <trkpt lat="50.644272" lon="8.899618">
        <ele>258.991091</ele>
        <time>2026-05-04T13:51:16.741Z</time>
      </trkpt>
      <trkpt lat="50.644150" lon="8.899569">
        <ele>259.048259</ele>
        <time>2026-05-04T13:51:18.626Z</time>
      </trkpt>
      <trkpt lat="50.643993" lon="8.899600">
        <ele>259.113396</ele>
        <time>2026-05-04T13:51:21.018Z</time>
      </trkpt>
      <trkpt lat="50.643681" lon="8.899741">
        <ele>259.241176</ele>
        <time>2026-05-04T13:51:25.712Z</time>
      </trkpt>
      <trkpt lat="50.643248" lon="8.900009">
        <ele>259.424310</ele>
        <time>2026-05-04T13:51:32.251Z</time>
      </trkpt>
      <trkpt lat="50.642997" lon="8.900228">
        <ele>259.537247</ele>
        <time>2026-05-04T13:51:36.337Z</time>
      </trkpt>
      <trkpt lat="50.642618" lon="8.900652">
        <ele>259.720197</ele>
        <time>2026-05-04T13:51:42.032Z</time>
      </trkpt>
      <trkpt lat="50.642244" lon="8.901130">
        <ele>259.603590</ele>
        <time>2026-05-04T13:51:47.080Z</time>
      </trkpt>
      <trkpt lat="50.642141" lon="8.901318">
        <ele>259.521725</ele>
        <time>2026-05-04T13:51:48.645Z</time>
      </trkpt>
      <trkpt lat="50.642036" lon="8.901694">
        <ele>259.386348</ele>
        <time>2026-05-04T13:51:51.219Z</time>
      </trkpt>
      <trkpt lat="50.641976" lon="8.901985">
        <ele>259.285519</ele>
        <time>2026-05-04T13:51:53.214Z</time>
      </trkpt>
      <trkpt lat="50.641933" lon="8.902345">
        <ele>259.164809</ele>
        <time>2026-05-04T13:51:55.605Z</time>
      </trkpt>
      <trkpt lat="50.641902" lon="8.902737">
        <ele>259.034640</ele>
        <time>2026-05-04T13:51:58.179Z</time>
      </trkpt>
      <trkpt lat="50.641906" lon="8.903040">
        <ele>258.934776</ele>
        <time>2026-05-04T13:52:00.138Z</time>
      </trkpt>
      <trkpt lat="50.641940" lon="8.903407">
        <ele>258.844615</ele>
        <time>2026-05-04T13:52:02.690Z</time>
      </trkpt>
      <trkpt lat="50.642038" lon="8.904022">
        <ele>258.854375</ele>
        <time>2026-05-04T13:52:07.449Z</time>
      </trkpt>
      <trkpt lat="50.642303" lon="8.905207">
        <ele>258.873715</ele>
        <time>2026-05-04T13:52:17.329Z</time>
      </trkpt>
      <trkpt lat="50.642321" lon="8.905816">
        <ele>258.883098</ele>
        <time>2026-05-04T13:52:22.152Z</time>
      </trkpt>
      <trkpt lat="50.642162" lon="8.908012">
        <ele>259.086543</ele>
        <time>2026-05-04T13:52:39.128Z</time>
      </trkpt>
      <trkpt lat="50.641684" lon="8.910503">
        <ele>259.543136</ele>
        <time>2026-05-04T13:53:00.366Z</time>
      </trkpt>
      <trkpt lat="50.641605" lon="8.911425">
        <ele>259.740842</ele>
        <time>2026-05-04T13:53:08.491Z</time>
      </trkpt>
      <trkpt lat="50.641615" lon="8.911770">
        <ele>259.745083</ele>
        <time>2026-05-04T13:53:11.332Z</time>
      </trkpt>
      <trkpt lat="50.641681" lon="8.912544">
        <ele>259.598964</ele>
        <time>2026-05-04T13:53:17.142Z</time>
      </trkpt>
      <trkpt lat="50.641674" lon="8.912957">
        <ele>259.521664</ele>
        <time>2026-05-04T13:53:20.015Z</time>
      </trkpt>
      <trkpt lat="50.641637" lon="8.913210">
        <ele>259.473085</ele>
        <time>2026-05-04T13:53:21.776Z</time>
      </trkpt>
      <trkpt lat="50.641448" lon="8.914059">
        <ele>259.304734</ele>
        <time>2026-05-04T13:53:27.539Z</time>
      </trkpt>
      <trkpt lat="50.641253" lon="8.916213">
        <ele>259.203977</ele>
        <time>2026-05-04T13:53:42.132Z</time>
      </trkpt>
      <trkpt lat="50.640945" lon="8.916168">
        <ele>259.192785</ele>
        <time>2026-05-04T13:53:46.456Z</time>
      </trkpt>
      <trkpt lat="50.640872" lon="8.916153">
        <ele>259.190121</ele>
        <time>2026-05-04T13:53:47.540Z</time>
      </trkpt>
      <trkpt lat="50.640323" lon="8.916074">
        <ele>259.486798</ele>
        <time>2026-05-04T13:53:55.817Z</time>
      </trkpt>
      <trkpt lat="50.640313" lon="8.916265">
        <ele>259.603010</ele>
        <time>2026-05-04T13:53:57.724Z</time>
      </trkpt>
      <trkpt lat="50.640182" lon="8.918780">
        <ele>260.999137</ele>
        <time>2026-05-04T13:54:22.014Z</time>
      </trkpt>
      <trkpt lat="50.640160" lon="8.919234">
        <ele>261.115500</ele>
        <time>2026-05-04T13:54:25.887Z</time>
      </trkpt>
      <trkpt lat="50.640047" lon="8.920100">
        <ele>261.341451</ele>
        <time>2026-05-04T13:54:33.102Z</time>
      </trkpt>
      <trkpt lat="50.638927" lon="8.926936">
        <ele>262.709230</ele>
        <time>2026-05-04T13:55:28.733Z</time>
      </trkpt>
      <trkpt lat="50.638848" lon="8.927326">
        <ele>262.997792</ele>
        <time>2026-05-04T13:55:33.315Z</time>
      </trkpt>
      <trkpt lat="50.638643" lon="8.928052">
        <ele>263.557921</ele>
        <time>2026-05-04T13:55:42.103Z</time>
      </trkpt>
      <trkpt lat="50.638419" lon="8.928607">
        <ele>264.021594</ele>
        <time>2026-05-04T13:55:49.231Z</time>
      </trkpt>
      <trkpt lat="50.638271" lon="8.928872">
        <ele>264.270472</ele>
        <time>2026-05-04T13:55:52.894Z</time>
      </trkpt>
      <trkpt lat="50.637250" lon="8.930458">
        <ele>265.107327</ele>
        <time>2026-05-04T13:56:10.266Z</time>
      </trkpt>
      <trkpt lat="50.636232" lon="8.932071">
        <ele>266.664273</ele>
        <time>2026-05-04T13:56:31.771Z</time>
      </trkpt>
      <trkpt lat="50.635564" lon="8.932985">
        <ele>267.975196</ele>
        <time>2026-05-04T13:56:47.903Z</time>
      </trkpt>
      <trkpt lat="50.635534" lon="8.933035">
        <ele>268.039898</ele>
        <time>2026-05-04T13:56:48.704Z</time>
      </trkpt>
      <trkpt lat="50.635156" lon="8.933660">
        <ele>268.828096</ele>
        <time>2026-05-04T13:56:59.108Z</time>
      </trkpt>
      <trkpt lat="50.635087" lon="8.933608">
        <ele>268.938066</ele>
        <time>2026-05-04T13:57:00.435Z</time>
      </trkpt>
      <trkpt lat="50.633809" lon="8.935802">
        <ele>270.509413</ele>
        <time>2026-05-04T13:57:29.285Z</time>
      </trkpt>
      <trkpt lat="50.633648" lon="8.936014">
        <ele>270.468776</ele>
        <time>2026-05-04T13:57:32.006Z</time>
      </trkpt>
      <trkpt lat="50.632789" lon="8.937552">
        <ele>269.516930</ele>
        <time>2026-05-04T13:57:44.394Z</time>
      </trkpt>
      <trkpt lat="50.632606" lon="8.937934">
        <ele>268.943404</ele>
        <time>2026-05-04T13:57:46.986Z</time>
      </trkpt>
      <trkpt lat="50.632440" lon="8.938244">
        <ele>268.457348</ele>
        <time>2026-05-04T13:57:49.167Z</time>
      </trkpt>
      <trkpt lat="50.632218" lon="8.938561">
        <ele>267.891600</ele>
        <time>2026-05-04T13:57:51.731Z</time>
      </trkpt>
      <trkpt lat="50.632137" lon="8.938642">
        <ele>267.710422</ele>
        <time>2026-05-04T13:57:52.563Z</time>
      </trkpt>
      <trkpt lat="50.631931" lon="8.938845">
        <ele>267.251565</ele>
        <time>2026-05-04T13:57:54.652Z</time>
      </trkpt>
      <trkpt lat="50.631760" lon="8.938959">
        <ele>266.900883</ele>
        <time>2026-05-04T13:57:56.281Z</time>
      </trkpt>
      <trkpt lat="50.631420" lon="8.939167">
        <ele>266.661658</ele>
        <time>2026-05-04T13:57:59.627Z</time>
      </trkpt>
      <trkpt lat="50.631330" lon="8.939170">
        <ele>266.602811</ele>
        <time>2026-05-04T13:58:00.516Z</time>
      </trkpt>
      <trkpt lat="50.631274" lon="8.939149">
        <ele>266.565182</ele>
        <time>2026-05-04T13:58:01.085Z</time>
      </trkpt>
      <trkpt lat="50.630635" lon="8.938294">
        <ele>266.017296</ele>
        <time>2026-05-04T13:58:10.094Z</time>
      </trkpt>
      <trkpt lat="50.630460" lon="8.938176">
        <ele>265.892873</ele>
        <time>2026-05-04T13:58:12.347Z</time>
      </trkpt>
      <trkpt lat="50.630373" lon="8.938181">
        <ele>265.835963</ele>
        <time>2026-05-04T13:58:13.378Z</time>
      </trkpt>
      <trkpt lat="50.629109" lon="8.938755">
        <ele>266.166525</ele>
        <time>2026-05-04T13:58:30.142Z</time>
      </trkpt>
      <trkpt lat="50.627770" lon="8.939509">
        <ele>266.912860</ele>
        <time>2026-05-04T13:58:49.735Z</time>
      </trkpt>
      <trkpt lat="50.626431" lon="8.940262">
        <ele>267.866964</ele>
        <time>2026-05-04T13:59:09.730Z</time>
      </trkpt>
      <trkpt lat="50.626369" lon="8.940269">
        <ele>267.913367</ele>
        <time>2026-05-04T13:59:10.610Z</time>
      </trkpt>
      <trkpt lat="50.624426" lon="8.939549">
        <ele>269.526400</ele>
        <time>2026-05-04T13:59:39.165Z</time>
      </trkpt>
      <trkpt lat="50.624345" lon="8.939544">
        <ele>269.602263</ele>
        <time>2026-05-04T13:59:40.330Z</time>
      </trkpt>
      <trkpt lat="50.622703" lon="8.940039">
        <ele>271.433626</ele>
        <time>2026-05-04T14:00:05.744Z</time>
      </trkpt>
      <trkpt lat="50.622346" lon="8.939532">
        <ele>272.095690</ele>
        <time>2026-05-04T14:00:14.031Z</time>
      </trkpt>
      <trkpt lat="50.621899" lon="8.938438">
        <ele>273.313749</ele>
        <time>2026-05-04T14:00:27.668Z</time>
      </trkpt>
      <trkpt lat="50.621682" lon="8.939010">
        <ele>274.202840</ele>
        <time>2026-05-04T14:00:34.935Z</time>
      </trkpt>
      <trkpt lat="50.621589" lon="8.939124">
        <ele>274.450570</ele>
        <time>2026-05-04T14:00:37.030Z</time>
      </trkpt>
      <trkpt lat="50.621146" lon="8.939383">
        <ele>275.444093</ele>
        <time>2026-05-04T14:00:45.633Z</time>
      </trkpt>
      <trkpt lat="50.620349" lon="8.939735">
        <ele>277.272865</ele>
        <time>2026-05-04T14:01:02.375Z</time>
      </trkpt>
      <trkpt lat="50.620033" lon="8.939875">
        <ele>278.152117</ele>
        <time>2026-05-04T14:01:09.384Z</time>
      </trkpt>
      <trkpt lat="50.620024" lon="8.939862">
        <ele>278.184817</ele>
        <time>2026-05-04T14:01:09.675Z</time>
      </trkpt>
      <trkpt lat="50.619405" lon="8.939166">
        <ele>280.221567</ele>
        <time>2026-05-04T14:01:27.825Z</time>
      </trkpt>
      <trkpt lat="50.619253" lon="8.938944">
        <ele>280.776655</ele>
        <time>2026-05-04T14:01:31.743Z</time>
      </trkpt>
      <trkpt lat="50.619012" lon="8.938594">
        <ele>281.654471</ele>
        <time>2026-05-04T14:01:38.289Z</time>
      </trkpt>
      <trkpt lat="50.619026" lon="8.938564">
        <ele>281.749676</ele>
        <time>2026-05-04T14:01:38.781Z</time>
      </trkpt>
      <trkpt lat="50.618532" lon="8.937920">
        <ele>284.912003</ele>
        <time>2026-05-04T14:01:56.922Z</time>
      </trkpt>
      <trkpt lat="50.618455" lon="8.937681">
        <ele>285.750920</ele>
        <time>2026-05-04T14:02:02.157Z</time>
      </trkpt>
      <trkpt lat="50.618412" lon="8.937318">
        <ele>286.906648</ele>
        <time>2026-05-04T14:02:09.881Z</time>
      </trkpt>
      <trkpt lat="50.618361" lon="8.936769">
        <ele>288.643199</ele>
        <time>2026-05-04T14:02:22.626Z</time>
      </trkpt>
      <trkpt lat="50.618329" lon="8.936501">
        <ele>289.496696</ele>
        <time>2026-05-04T14:02:29.255Z</time>
      </trkpt>
      <trkpt lat="50.618210" lon="8.936272">
        <ele>290.423112</ele>
        <time>2026-05-04T14:02:36.356Z</time>
      </trkpt>
      <trkpt lat="50.617874" lon="8.935674">
        <ele>292.826199</ele>
        <time>2026-05-04T14:02:54.700Z</time>
      </trkpt>
      <trkpt lat="50.617652" lon="8.935341">
        <ele>294.276175</ele>
        <time>2026-05-04T14:03:04.927Z</time>
      </trkpt>
      <trkpt lat="50.617024" lon="8.934627">
        <ele>297.939769</ele>
        <time>2026-05-04T14:03:28.371Z</time>
      </trkpt>
      <trkpt lat="50.616804" lon="8.934392">
        <ele>299.105884</ele>
        <time>2026-05-04T14:03:35.332Z</time>
      </trkpt>
      <trkpt lat="50.616208" lon="8.933701">
        <ele>300.245721</ele>
        <time>2026-05-04T14:03:51.907Z</time>
      </trkpt>
      <trkpt lat="50.615628" lon="8.932936">
        <ele>301.410854</ele>
        <time>2026-05-04T14:04:03.627Z</time>
      </trkpt>
      <trkpt lat="50.615395" lon="8.932609">
        <ele>301.850505</ele>
        <time>2026-05-04T14:04:07.692Z</time>
      </trkpt>
      <trkpt lat="50.615023" lon="8.932100">
        <ele>302.080568</ele>
        <time>2026-05-04T14:04:13.864Z</time>
      </trkpt>
      <trkpt lat="50.614925" lon="8.932001">
        <ele>302.134929</ele>
        <time>2026-05-04T14:04:15.324Z</time>
      </trkpt>
      <trkpt lat="50.614771" lon="8.931845">
        <ele>302.220423</ele>
        <time>2026-05-04T14:04:17.636Z</time>
      </trkpt>
      <trkpt lat="50.614472" lon="8.931776">
        <ele>302.361545</ele>
        <time>2026-05-04T14:04:21.499Z</time>
      </trkpt>
      <trkpt lat="50.612629" lon="8.931455">
        <ele>303.470648</ele>
        <time>2026-05-04T14:04:47.546Z</time>
      </trkpt>
      <trkpt lat="50.610408" lon="8.931064">
        <ele>304.103703</ele>
        <time>2026-05-04T14:05:18.585Z</time>
      </trkpt>
      <trkpt lat="50.610189" lon="8.930993">
        <ele>303.966360</ele>
        <time>2026-05-04T14:05:20.670Z</time>
      </trkpt>
      <trkpt lat="50.609447" lon="8.930634">
        <ele>301.420842</ele>
        <time>2026-05-04T14:05:27.185Z</time>
      </trkpt>
      <trkpt lat="50.608505" lon="8.930171">
        <ele>298.161112</ele>
        <time>2026-05-04T14:05:34.793Z</time>
      </trkpt>
      <trkpt lat="50.608177" lon="8.929995">
        <ele>296.417444</ele>
        <time>2026-05-04T14:05:37.421Z</time>
      </trkpt>
      <trkpt lat="50.607557" lon="8.929498">
        <ele>292.916899</ele>
        <time>2026-05-04T14:05:42.668Z</time>
      </trkpt>
      <trkpt lat="50.606113" lon="8.928373">
        <ele>284.936156</ele>
        <time>2026-05-04T14:05:54.710Z</time>
      </trkpt>
      <trkpt lat="50.605600" lon="8.927633">
        <ele>281.536814</ele>
        <time>2026-05-04T14:06:00.004Z</time>
      </trkpt>
      <trkpt lat="50.605567" lon="8.927592">
        <ele>281.331416</ele>
        <time>2026-05-04T14:06:00.332Z</time>
      </trkpt>
      <trkpt lat="50.604792" lon="8.926386">
        <ele>276.396942</ele>
        <time>2026-05-04T14:06:08.767Z</time>
      </trkpt>
      <trkpt lat="50.604539" lon="8.926019">
        <ele>274.865569</ele>
        <time>2026-05-04T14:06:11.419Z</time>
      </trkpt>
      <trkpt lat="50.604096" lon="8.925653">
        <ele>272.638116</ele>
        <time>2026-05-04T14:06:15.216Z</time>
      </trkpt>
      <trkpt lat="50.603832" lon="8.925529">
        <ele>271.588220</ele>
        <time>2026-05-04T14:06:17.301Z</time>
      </trkpt>
      <trkpt lat="50.603603" lon="8.925493">
        <ele>270.751039</ele>
        <time>2026-05-04T14:06:19.049Z</time>
      </trkpt>
      <trkpt lat="50.603331" lon="8.925503">
        <ele>269.761302</ele>
        <time>2026-05-04T14:06:21.124Z</time>
      </trkpt>
      <trkpt lat="50.603054" lon="8.925375">
        <ele>268.711202</ele>
        <time>2026-05-04T14:06:23.346Z</time>
      </trkpt>
      <trkpt lat="50.602932" lon="8.925262">
        <ele>268.196389</ele>
        <time>2026-05-04T14:06:24.459Z</time>
      </trkpt>
      <trkpt lat="50.602187" lon="8.924554">
        <ele>265.627675</ele>
        <time>2026-05-04T14:06:31.861Z</time>
      </trkpt>
      <trkpt lat="50.602088" lon="8.924401">
        <ele>265.497885</ele>
        <time>2026-05-04T14:06:33.213Z</time>
      </trkpt>
      <trkpt lat="50.601789" lon="8.923343">
        <ele>264.809912</ele>
        <time>2026-05-04T14:06:41.100Z</time>
      </trkpt>
      <trkpt lat="50.601507" lon="8.922339">
        <ele>264.157711</ele>
        <time>2026-05-04T14:06:48.955Z</time>
      </trkpt>
      <trkpt lat="50.601330" lon="8.922018">
        <ele>263.313672</ele>
        <time>2026-05-04T14:06:51.639Z</time>
      </trkpt>
      <trkpt lat="50.601194" lon="8.921968">
        <ele>262.868352</ele>
        <time>2026-05-04T14:06:52.922Z</time>
      </trkpt>
      <trkpt lat="50.600922" lon="8.921945">
        <ele>261.999764</ele>
        <time>2026-05-04T14:06:55.296Z</time>
      </trkpt>
      <trkpt lat="50.600454" lon="8.922035">
        <ele>260.496354</ele>
        <time>2026-05-04T14:06:59.104Z</time>
      </trkpt>
      <trkpt lat="50.600251" lon="8.922125">
        <ele>259.823897</ele>
        <time>2026-05-04T14:07:00.736Z</time>
      </trkpt>
      <trkpt lat="50.599688" lon="8.922374">
        <ele>257.785971</ele>
        <time>2026-05-04T14:07:05.124Z</time>
      </trkpt>
      <trkpt lat="50.599022" lon="8.922567">
        <ele>254.806482</ele>
        <time>2026-05-04T14:07:10.050Z</time>
      </trkpt>
      <trkpt lat="50.598618" lon="8.922732">
        <ele>252.970166</ele>
        <time>2026-05-04T14:07:13.175Z</time>
      </trkpt>
      <trkpt lat="50.598479" lon="8.922794">
        <ele>252.334541</ele>
        <time>2026-05-04T14:07:14.296Z</time>
      </trkpt>
      <trkpt lat="50.598411" lon="8.922788">
        <ele>252.034879</ele>
        <time>2026-05-04T14:07:14.834Z</time>
      </trkpt>
      <trkpt lat="50.598359" lon="8.922726">
        <ele>251.747947</ele>
        <time>2026-05-04T14:07:15.362Z</time>
      </trkpt>
      <trkpt lat="50.598283" lon="8.922531">
        <ele>251.108876</ele>
        <time>2026-05-04T14:07:16.583Z</time>
      </trkpt>
      <trkpt lat="50.598062" lon="8.922223">
        <ele>250.749551</ele>
        <time>2026-05-04T14:07:19.315Z</time>
      </trkpt>
      <trkpt lat="50.597887" lon="8.922033">
        <ele>251.085166</ele>
        <time>2026-05-04T14:07:21.664Z</time>
      </trkpt>
      <trkpt lat="50.597758" lon="8.921947">
        <ele>251.306361</ele>
        <time>2026-05-04T14:07:23.769Z</time>
      </trkpt>
      <trkpt lat="50.597571" lon="8.922047">
        <ele>251.618205</ele>
        <time>2026-05-04T14:07:27.546Z</time>
      </trkpt>
      <trkpt lat="50.597555" lon="8.922061">
        <ele>251.647106</ele>
        <time>2026-05-04T14:07:27.934Z</time>
      </trkpt>
      <trkpt lat="50.597487" lon="8.922130">
        <ele>251.774833</ele>
        <time>2026-05-04T14:07:29.667Z</time>
      </trkpt>
      <trkpt lat="50.597421" lon="8.922225">
        <ele>251.916006</ele>
        <time>2026-05-04T14:07:31.630Z</time>
      </trkpt>
      <trkpt lat="50.597376" lon="8.922362">
        <ele>252.070627</ele>
        <time>2026-05-04T14:07:33.741Z</time>
      </trkpt>
      <trkpt lat="50.597361" lon="8.922409">
        <ele>252.123358</ele>
        <time>2026-05-04T14:07:34.490Z</time>
      </trkpt>
      <trkpt lat="50.597342" lon="8.922497">
        <ele>252.216530</ele>
        <time>2026-05-04T14:07:35.816Z</time>
      </trkpt>
      <trkpt lat="50.597316" lon="8.922655">
        <ele>252.380140</ele>
        <time>2026-05-04T14:07:38.111Z</time>
      </trkpt>
      <trkpt lat="50.597152" lon="8.922423">
        <ele>252.728203</ele>
        <time>2026-05-04T14:07:43.075Z</time>
      </trkpt>
      <trkpt lat="50.597042" lon="8.922274">
        <ele>252.957287</ele>
        <time>2026-05-04T14:07:46.384Z</time>
      </trkpt>
      <trkpt lat="50.596908" lon="8.922195">
        <ele>253.183220</ele>
        <time>2026-05-04T14:07:49.645Z</time>
      </trkpt>
      <trkpt lat="50.596555" lon="8.921022">
        <ele>254.825448</ele>
        <time>2026-05-04T14:08:05.453Z</time>
      </trkpt>
      <trkpt lat="50.596285" lon="8.920371">
        <ele>255.837567</ele>
        <time>2026-05-04T14:08:13.608Z</time>
      </trkpt>
      <trkpt lat="50.596077" lon="8.919831">
        <ele>256.659670</ele>
        <time>2026-05-04T14:08:20.480Z</time>
      </trkpt>
      <trkpt lat="50.596064" lon="8.919802">
        <ele>256.705878</ele>
        <time>2026-05-04T14:08:20.836Z</time>
      </trkpt>
      <trkpt lat="50.595674" lon="8.918942">
        <ele>258.241217</ele>
        <time>2026-05-04T14:08:33.219Z</time>
      </trkpt>
      <trkpt lat="50.595656" lon="8.918902">
        <ele>258.314724</ele>
        <time>2026-05-04T14:08:33.905Z</time>
      </trkpt>
      <trkpt lat="50.594255" lon="8.915441">
        <ele>264.865470</ele>
        <time>2026-05-04T14:09:26.099Z</time>
      </trkpt>
      <trkpt lat="50.594026" lon="8.914859">
        <ele>266.019683</ele>
        <time>2026-05-04T14:09:34.876Z</time>
      </trkpt>
      <trkpt lat="50.593924" lon="8.914674">
        <ele>266.636520</ele>
        <time>2026-05-04T14:09:38.207Z</time>
      </trkpt>
      <trkpt lat="50.593721" lon="8.914519">
        <ele>267.557598</ele>
        <time>2026-05-04T14:09:43.151Z</time>
      </trkpt>
      <trkpt lat="50.593461" lon="8.914622">
        <ele>268.652227</ele>
        <time>2026-05-04T14:09:49.293Z</time>
      </trkpt>
      <trkpt lat="50.593054" lon="8.914778">
        <ele>270.362485</ele>
        <time>2026-05-04T14:09:59.531Z</time>
      </trkpt>
      <trkpt lat="50.592089" lon="8.915311">
        <ele>274.006168</ele>
        <time>2026-05-04T14:10:28.953Z</time>
      </trkpt>
      <trkpt lat="50.591905" lon="8.915363">
        <ele>274.413603</ele>
        <time>2026-05-04T14:10:33.864Z</time>
      </trkpt>
      <trkpt lat="50.591298" lon="8.915356">
        <ele>275.736607</ele>
        <time>2026-05-04T14:10:47.220Z</time>
      </trkpt>
      <trkpt lat="50.591181" lon="8.915404">
        <ele>276.000118</ele>
        <time>2026-05-04T14:10:49.446Z</time>
      </trkpt>
      <trkpt lat="50.591122" lon="8.915413">
        <ele>276.129311</ele>
        <time>2026-05-04T14:10:50.398Z</time>
      </trkpt>
      <trkpt lat="50.590528" lon="8.913161">
        <ele>275.359097</ele>
        <time>2026-05-04T14:11:05.087Z</time>
      </trkpt>
      <trkpt lat="50.590451" lon="8.912835">
        <ele>274.927865</ele>
        <time>2026-05-04T14:11:06.897Z</time>
      </trkpt>
      <trkpt lat="50.590381" lon="8.912442">
        <ele>274.421820</ele>
        <time>2026-05-04T14:11:09.016Z</time>
      </trkpt>
      <trkpt lat="50.590323" lon="8.911852">
        <ele>273.640426</ele>
        <time>2026-05-04T14:11:12.136Z</time>
      </trkpt>
      <trkpt lat="50.590272" lon="8.910204">
        <ele>270.912766</ele>
        <time>2026-05-04T14:11:20.786Z</time>
      </trkpt>
      <trkpt lat="50.590162" lon="8.907003">
        <ele>267.160624</ele>
        <time>2026-05-04T14:11:38.419Z</time>
      </trkpt>
      <trkpt lat="50.590105" lon="8.907011">
        <ele>267.077334</ele>
        <time>2026-05-04T14:11:39.002Z</time>
      </trkpt>
      <trkpt lat="50.589979" lon="8.907085">
        <ele>266.881613</ele>
        <time>2026-05-04T14:11:40.411Z</time>
      </trkpt>
      <trkpt lat="50.589937" lon="8.907147">
        <ele>266.797834</ele>
        <time>2026-05-04T14:11:41.032Z</time>
      </trkpt>
      <trkpt lat="50.588084" lon="8.909906">
        <ele>267.244851</ele>
        <time>2026-05-04T14:12:17.632Z</time>
      </trkpt>
      <trkpt lat="50.587996" lon="8.910198">
        <ele>267.122013</ele>
        <time>2026-05-04T14:12:20.253Z</time>
      </trkpt>
      <trkpt lat="50.587695" lon="8.911594">
        <ele>266.561722</ele>
        <time>2026-05-04T14:12:29.496Z</time>
      </trkpt>
      <trkpt lat="50.587263" lon="8.913466">
        <ele>263.672155</ele>
        <time>2026-05-04T14:12:39.821Z</time>
      </trkpt>
      <trkpt lat="50.587101" lon="8.913905">
        <ele>262.884631</ele>
        <time>2026-05-04T14:12:42.494Z</time>
      </trkpt>
      <trkpt lat="50.586817" lon="8.914464">
        <ele>262.048076</ele>
        <time>2026-05-04T14:12:46.490Z</time>
      </trkpt>
      <trkpt lat="50.586236" lon="8.915162">
        <ele>261.749181</ele>
        <time>2026-05-04T14:12:54.240Z</time>
      </trkpt>
      <trkpt lat="50.585775" lon="8.915881">
        <ele>261.483804</ele>
        <time>2026-05-04T14:13:03.199Z</time>
      </trkpt>
      <trkpt lat="50.584557" lon="8.918090">
        <ele>259.342716</ele>
        <time>2026-05-04T14:13:23.281Z</time>
      </trkpt>
      <trkpt lat="50.583858" lon="8.919219">
        <ele>253.946956</ele>
        <time>2026-05-04T14:13:30.800Z</time>
      </trkpt>
      <trkpt lat="50.583710" lon="8.919360">
        <ele>252.808509</ele>
        <time>2026-05-04T14:13:32.038Z</time>
      </trkpt>
      <trkpt lat="50.583321" lon="8.919610">
        <ele>250.043270</ele>
        <time>2026-05-04T14:13:35.009Z</time>
      </trkpt>
      <trkpt lat="50.583034" lon="8.919910">
        <ele>247.776125</ele>
        <time>2026-05-04T14:13:37.431Z</time>
      </trkpt>
      <trkpt lat="50.582277" lon="8.921045">
        <ele>238.456362</ele>
        <time>2026-05-04T14:13:44.679Z</time>
      </trkpt>
      <trkpt lat="50.581956" lon="8.921376">
        <ele>234.955455</ele>
        <time>2026-05-04T14:13:47.339Z</time>
      </trkpt>
      <trkpt lat="50.581861" lon="8.921452">
        <ele>233.983209</ele>
        <time>2026-05-04T14:13:48.080Z</time>
      </trkpt>
      <trkpt lat="50.581682" lon="8.921519">
        <ele>232.304443</ele>
        <time>2026-05-04T14:13:49.352Z</time>
      </trkpt>
      <trkpt lat="50.580116" lon="8.921585">
        <ele>219.357621</ele>
        <time>2026-05-04T14:14:00.311Z</time>
      </trkpt>
      <trkpt lat="50.579957" lon="8.921624">
        <ele>218.043967</ele>
        <time>2026-05-04T14:14:01.462Z</time>
      </trkpt>
      <trkpt lat="50.579833" lon="8.921761">
        <ele>216.807408</ele>
        <time>2026-05-04T14:14:02.553Z</time>
      </trkpt>
      <trkpt lat="50.579788" lon="8.921870">
        <ele>216.133446</ele>
        <time>2026-05-04T14:14:03.148Z</time>
      </trkpt>
      <trkpt lat="50.579757" lon="8.922113">
        <ele>215.475873</ele>
        <time>2026-05-04T14:14:04.290Z</time>
      </trkpt>
      <trkpt lat="50.579767" lon="8.922383">
        <ele>214.765855</ele>
        <time>2026-05-04T14:14:05.553Z</time>
      </trkpt>
      <trkpt lat="50.579778" lon="8.923003">
        <ele>213.137574</ele>
        <time>2026-05-04T14:14:08.517Z</time>
      </trkpt>
      <trkpt lat="50.579718" lon="8.923335">
        <ele>212.231384</ele>
        <time>2026-05-04T14:14:10.231Z</time>
      </trkpt>
      <trkpt lat="50.579598" lon="8.923574">
        <ele>211.431514</ele>
        <time>2026-05-04T14:14:11.767Z</time>
      </trkpt>
      <trkpt lat="50.579312" lon="8.923924">
        <ele>209.934085</ele>
        <time>2026-05-04T14:14:14.722Z</time>
      </trkpt>
      <trkpt lat="50.579059" lon="8.924210">
        <ele>208.668875</ele>
        <time>2026-05-04T14:14:17.428Z</time>
      </trkpt>
      <trkpt lat="50.578870" lon="8.924330">
        <ele>208.335280</ele>
        <time>2026-05-04T14:14:19.334Z</time>
      </trkpt>
      <trkpt lat="50.578167" lon="8.924566">
        <ele>207.158604</ele>
        <time>2026-05-04T14:14:26.231Z</time>
      </trkpt>
      <trkpt lat="50.578133" lon="8.924589">
        <ele>207.098027</ele>
        <time>2026-05-04T14:14:26.583Z</time>
      </trkpt>
      <trkpt lat="50.578046" lon="8.924693">
        <ele>206.919221</ele>
        <time>2026-05-04T14:14:27.611Z</time>
      </trkpt>
      <trkpt lat="50.577979" lon="8.924846">
        <ele>206.726020</ele>
        <time>2026-05-04T14:14:28.722Z</time>
      </trkpt>
      <trkpt lat="50.577790" lon="8.924764">
        <ele>206.405097</ele>
        <time>2026-05-04T14:14:30.518Z</time>
      </trkpt>
      <trkpt lat="50.577311" lon="8.924809">
        <ele>205.592979</ele>
        <time>2026-05-04T14:14:34.792Z</time>
      </trkpt>
      <trkpt lat="50.577064" lon="8.924721">
        <ele>205.086184</ele>
        <time>2026-05-04T14:14:36.986Z</time>
      </trkpt>
      <trkpt lat="50.576974" lon="8.924599">
        <ele>204.848532</ele>
        <time>2026-05-04T14:14:37.996Z</time>
      </trkpt>
      <trkpt lat="50.576833" lon="8.924165">
        <ele>204.228990</ele>
        <time>2026-05-04T14:14:40.595Z</time>
      </trkpt>
      <trkpt lat="50.576674" lon="8.924033">
        <ele>203.869283</ele>
        <time>2026-05-04T14:14:42.107Z</time>
      </trkpt>
      <trkpt lat="50.576573" lon="8.924000">
        <ele>203.662854</ele>
        <time>2026-05-04T14:14:42.987Z</time>
      </trkpt>
      <trkpt lat="50.576017" lon="8.923996">
        <ele>202.550163</ele>
        <time>2026-05-04T14:14:47.862Z</time>
      </trkpt>
      <trkpt lat="50.575683" lon="8.923955">
        <ele>202.173206</ele>
        <time>2026-05-04T14:14:50.875Z</time>
      </trkpt>
      <trkpt lat="50.575660" lon="8.924041">
        <ele>202.188525</ele>
        <time>2026-05-04T14:14:51.419Z</time>
      </trkpt>
      <trkpt lat="50.575531" lon="8.924028">
        <ele>202.221940</ele>
        <time>2026-05-04T14:14:52.597Z</time>
      </trkpt>
      <trkpt lat="50.574626" lon="8.924232">
        <ele>202.458266</ele>
        <time>2026-05-04T14:15:03.642Z</time>
      </trkpt>
      <trkpt lat="50.574470" lon="8.924319">
        <ele>202.501046</ele>
        <time>2026-05-04T14:15:06.856Z</time>
      </trkpt>
      <trkpt lat="50.574208" lon="8.924565">
        <ele>202.579899</ele>
        <time>2026-05-04T14:15:12.581Z</time>
      </trkpt>
      <trkpt lat="50.573923" lon="8.924861">
        <ele>202.801390</ele>
        <time>2026-05-04T14:15:18.560Z</time>
      </trkpt>
      <trkpt lat="50.573877" lon="8.924905">
        <ele>202.844462</ele>
        <time>2026-05-04T14:15:19.462Z</time>
      </trkpt>
      <trkpt lat="50.573816" lon="8.924962">
        <ele>202.901226</ele>
        <time>2026-05-04T14:15:20.596Z</time>
      </trkpt>
      <trkpt lat="50.573582" lon="8.925192">
        <ele>203.121975</ele>
        <time>2026-05-04T14:15:25.078Z</time>
      </trkpt>
      <trkpt lat="50.573424" lon="8.924764">
        <ele>203.373578</ele>
        <time>2026-05-04T14:15:30.087Z</time>
      </trkpt>
      <trkpt lat="50.572960" lon="8.924008">
        <ele>203.907907</ele>
        <time>2026-05-04T14:15:38.602Z</time>
      </trkpt>
      <trkpt lat="50.572345" lon="8.923024">
        <ele>204.110903</ele>
        <time>2026-05-04T14:15:47.914Z</time>
      </trkpt>
      <trkpt lat="50.571688" lon="8.921945">
        <ele>204.200825</ele>
        <time>2026-05-04T14:16:01.331Z</time>
      </trkpt>
      <trkpt lat="50.571432" lon="8.921471">
        <ele>204.132538</ele>
        <time>2026-05-04T14:16:05.906Z</time>
      </trkpt>
      <trkpt lat="50.570728" lon="8.920040">
        <ele>203.760421</ele>
        <time>2026-05-04T14:16:17.026Z</time>
      </trkpt>
      <trkpt lat="50.570205" lon="8.919136">
        <ele>204.862179</ele>
        <time>2026-05-04T14:16:27.252Z</time>
      </trkpt>
      <trkpt lat="50.569978" lon="8.918747">
        <ele>205.947378</ele>
        <time>2026-05-04T14:16:33.925Z</time>
      </trkpt>
      <trkpt lat="50.569800" lon="8.918501">
        <ele>206.713438</ele>
        <time>2026-05-04T14:16:39.441Z</time>
      </trkpt>
      <trkpt lat="50.569622" lon="8.918364">
        <ele>207.354272</ele>
        <time>2026-05-04T14:16:44.486Z</time>
      </trkpt>
      <trkpt lat="50.569505" lon="8.918329">
        <ele>207.739469</ele>
        <time>2026-05-04T14:16:47.755Z</time>
      </trkpt>
      <trkpt lat="50.569378" lon="8.918324">
        <ele>208.150369</ele>
        <time>2026-05-04T14:16:51.380Z</time>
      </trkpt>
      <trkpt lat="50.569221" lon="8.918371">
        <ele>208.667270</ele>
        <time>2026-05-04T14:16:56.183Z</time>
      </trkpt>
      <trkpt lat="50.568260" lon="8.918794">
        <ele>212.530563</ele>
        <time>2026-05-04T14:17:24.828Z</time>
      </trkpt>
      <trkpt lat="50.568034" lon="8.918859">
        <ele>213.466874</ele>
        <time>2026-05-04T14:17:30.779Z</time>
      </trkpt>
      <trkpt lat="50.567481" lon="8.918880">
        <ele>215.721295</ele>
        <time>2026-05-04T14:17:43.704Z</time>
      </trkpt>
      <trkpt lat="50.567257" lon="8.918857">
        <ele>216.636152</ele>
        <time>2026-05-04T14:17:48.284Z</time>
      </trkpt>
      <trkpt lat="50.567089" lon="8.918755">
        <ele>216.891648</ele>
        <time>2026-05-04T14:17:51.666Z</time>
      </trkpt>
      <trkpt lat="50.566941" lon="8.918575">
        <ele>217.035771</ele>
        <time>2026-05-04T14:17:55.009Z</time>
      </trkpt>
      <trkpt lat="50.566824" lon="8.918295">
        <ele>217.199828</ele>
        <time>2026-05-04T14:17:58.618Z</time>
      </trkpt>
      <trkpt lat="50.566771" lon="8.918093">
        <ele>217.306810</ele>
        <time>2026-05-04T14:18:00.899Z</time>
      </trkpt>
      <trkpt lat="50.566175" lon="8.915640">
        <ele>216.645031</ele>
        <time>2026-05-04T14:18:20.751Z</time>
      </trkpt>
      <trkpt lat="50.565577" lon="8.913144">
        <ele>210.931902</ele>
        <time>2026-05-04T14:18:33.980Z</time>
      </trkpt>
      <trkpt lat="50.565415" lon="8.912472">
        <ele>208.605767</ele>
        <time>2026-05-04T14:18:37.378Z</time>
      </trkpt>
      <trkpt lat="50.565306" lon="8.912015">
        <ele>207.025957</ele>
        <time>2026-05-04T14:18:39.686Z</time>
      </trkpt>
      <trkpt lat="50.565178" lon="8.911569">
        <ele>205.442080</ele>
        <time>2026-05-04T14:18:41.975Z</time>
      </trkpt>
      <trkpt lat="50.565037" lon="8.911193">
        <ele>204.027593</ele>
        <time>2026-05-04T14:18:44.005Z</time>
      </trkpt>
      <trkpt lat="50.564897" lon="8.910929">
        <ele>202.853901</ele>
        <time>2026-05-04T14:18:45.631Z</time>
      </trkpt>
      <trkpt lat="50.564672" lon="8.910641">
        <ele>201.295873</ele>
        <time>2026-05-04T14:18:47.836Z</time>
      </trkpt>
      <trkpt lat="50.564512" lon="8.910487">
        <ele>200.288293</ele>
        <time>2026-05-04T14:18:49.267Z</time>
      </trkpt>
      <trkpt lat="50.564031" lon="8.910183">
        <ele>197.503504</ele>
        <time>2026-05-04T14:18:53.145Z</time>
      </trkpt>
      <trkpt lat="50.563709" lon="8.909994">
        <ele>195.657133</ele>
        <time>2026-05-04T14:18:55.675Z</time>
      </trkpt>
      <trkpt lat="50.563357" lon="8.909836">
        <ele>193.903955</ele>
        <time>2026-05-04T14:18:58.350Z</time>
      </trkpt>
      <trkpt lat="50.562238" lon="8.909373">
        <ele>189.581434</ele>
        <time>2026-05-04T14:19:07.185Z</time>
      </trkpt>
      <trkpt lat="50.562186" lon="8.909350">
        <ele>189.379641</ele>
        <time>2026-05-04T14:19:07.638Z</time>
      </trkpt>
      <trkpt lat="50.561523" lon="8.909072">
        <ele>187.921326</ele>
        <time>2026-05-04T14:19:13.999Z</time>
      </trkpt>
      <trkpt lat="50.561468" lon="8.909047">
        <ele>187.983836</ele>
        <time>2026-05-04T14:19:14.680Z</time>
      </trkpt>
      <trkpt lat="50.560944" lon="8.908804">
        <ele>188.580319</ele>
        <time>2026-05-04T14:19:23.163Z</time>
      </trkpt>
      <trkpt lat="50.560864" lon="8.908767">
        <ele>188.671365</ele>
        <time>2026-05-04T14:19:24.702Z</time>
      </trkpt>
      <trkpt lat="50.560803" lon="8.908738">
        <ele>188.740944</ele>
        <time>2026-05-04T14:19:25.898Z</time>
      </trkpt>
      <trkpt lat="50.560741" lon="8.908681">
        <ele>188.819344</ele>
        <time>2026-05-04T14:19:27.285Z</time>
      </trkpt>
      <trkpt lat="50.560655" lon="8.908541">
        <ele>188.954434</ele>
        <time>2026-05-04T14:19:29.795Z</time>
      </trkpt>
      <trkpt lat="50.560599" lon="8.908385">
        <ele>189.078727</ele>
        <time>2026-05-04T14:19:32.131Z</time>
      </trkpt>
      <trkpt lat="50.560579" lon="8.907860">
        <ele>189.443553</ele>
        <time>2026-05-04T14:19:38.852Z</time>
      </trkpt>
      <trkpt lat="50.560549" lon="8.907349">
        <ele>189.783295</ele>
        <time>2026-05-04T14:19:44.693Z</time>
      </trkpt>
      <trkpt lat="50.560500" lon="8.907159">
        <ele>189.911472</ele>
        <time>2026-05-04T14:19:46.840Z</time>
      </trkpt>
      <trkpt lat="50.560390" lon="8.906978">
        <ele>190.068044</ele>
        <time>2026-05-04T14:19:49.388Z</time>
      </trkpt>
      <trkpt lat="50.560270" lon="8.906899">
        <ele>190.196028</ele>
        <time>2026-05-04T14:19:51.386Z</time>
      </trkpt>
      <trkpt lat="50.560128" lon="8.906862">
        <ele>190.337650</ele>
        <time>2026-05-04T14:19:53.472Z</time>
      </trkpt>
      <trkpt lat="50.559983" lon="8.906803">
        <ele>190.485013</ele>
        <time>2026-05-04T14:19:55.559Z</time>
      </trkpt>
      <trkpt lat="50.559915" lon="8.906713">
        <ele>190.572429</ele>
        <time>2026-05-04T14:19:56.747Z</time>
      </trkpt>
      <trkpt lat="50.559890" lon="8.906766">
        <ele>190.613692</ele>
        <time>2026-05-04T14:19:57.330Z</time>
      </trkpt>
      <trkpt lat="50.559799" lon="8.906819">
        <ele>190.709164</ele>
        <time>2026-05-04T14:19:58.610Z</time>
      </trkpt>
      <trkpt lat="50.559659" lon="8.906772">
        <ele>190.850015</ele>
        <time>2026-05-04T14:20:00.448Z</time>
      </trkpt>
      <trkpt lat="50.559265" lon="8.906171">
        <ele>191.389853</ele>
        <time>2026-05-04T14:20:06.993Z</time>
      </trkpt>
      <trkpt lat="50.559128" lon="8.906138">
        <ele>191.727962</ele>
        <time>2026-05-04T14:20:08.961Z</time>
      </trkpt>
      <trkpt lat="50.559006" lon="8.906132">
        <ele>192.048231</ele>
        <time>2026-05-04T14:20:11.000Z</time>
      </trkpt>
      <trkpt lat="50.558495" lon="8.906113">
        <ele>193.389408</ele>
        <time>2026-05-04T14:20:20.757Z</time>
      </trkpt>
      <trkpt lat="50.558393" lon="8.906102">
        <ele>193.657671</ele>
        <time>2026-05-04T14:20:22.947Z</time>
      </trkpt>
      <trkpt lat="50.558230" lon="8.906081">
        <ele>194.086794</ele>
        <time>2026-05-04T14:20:26.637Z</time>
      </trkpt>
      <trkpt lat="50.558212" lon="8.906078">
        <ele>194.134288</ele>
        <time>2026-05-04T14:20:27.035Z</time>
      </trkpt>
      <trkpt lat="50.557911" lon="8.906026">
        <ele>194.928818</ele>
        <time>2026-05-04T14:20:34.230Z</time>
      </trkpt>
      <trkpt lat="50.557503" lon="8.905965">
        <ele>196.004179</ele>
        <time>2026-05-04T14:20:44.204Z</time>
      </trkpt>
      <trkpt lat="50.557091" lon="8.905995">
        <ele>196.956606</ele>
        <time>2026-05-04T14:20:54.013Z</time>
      </trkpt>
      <trkpt lat="50.556494" lon="8.906095">
        <ele>198.319357</ele>
        <time>2026-05-04T14:21:05.508Z</time>
      </trkpt>
      <trkpt lat="50.555748" lon="8.906279">
        <ele>200.033329</ele>
        <time>2026-05-04T14:21:18.118Z</time>
      </trkpt>
      <trkpt lat="50.555443" lon="8.906372">
        <ele>200.505648</ele>
        <time>2026-05-04T14:21:22.934Z</time>
      </trkpt>
      <trkpt lat="50.555017" lon="8.906519">
        <ele>201.061670</ele>
        <time>2026-05-04T14:21:30.001Z</time>
      </trkpt>
      <trkpt lat="50.554679" lon="8.906629">
        <ele>201.501713</ele>
        <time>2026-05-04T14:21:35.625Z</time>
      </trkpt>
      <trkpt lat="50.554367" lon="8.906682">
        <ele>201.901803</ele>
        <time>2026-05-04T14:21:40.798Z</time>
      </trkpt>
      <trkpt lat="50.554142" lon="8.906706">
        <ele>202.189322</ele>
        <time>2026-05-04T14:21:44.436Z</time>
      </trkpt>
      <trkpt lat="50.551602" lon="8.906947">
        <ele>204.700406</ele>
        <time>2026-05-04T14:22:22.380Z</time>
      </trkpt>
      <trkpt lat="50.550759" lon="8.906950">
        <ele>205.390071</ele>
        <time>2026-05-04T14:22:33.952Z</time>
      </trkpt>
      <trkpt lat="50.550031" lon="8.906961">
        <ele>205.764817</ele>
        <time>2026-05-04T14:22:44.869Z</time>
      </trkpt>
      <trkpt lat="50.549565" lon="8.907109">
        <ele>205.771042</ele>
        <time>2026-05-04T14:22:52.212Z</time>
      </trkpt>
      <trkpt lat="50.549544" lon="8.907118">
        <ele>205.771327</ele>
        <time>2026-05-04T14:22:52.537Z</time>
      </trkpt>
      <trkpt lat="50.548931" lon="8.907401">
        <ele>205.779691</ele>
        <time>2026-05-04T14:23:00.542Z</time>
      </trkpt>
      <trkpt lat="50.548696" lon="8.907448">
        <ele>205.782793</ele>
        <time>2026-05-04T14:23:02.925Z</time>
      </trkpt>
      <trkpt lat="50.548487" lon="8.907423">
        <ele>205.583219</ele>
        <time>2026-05-04T14:23:04.870Z</time>
      </trkpt>
      <trkpt lat="50.547523" lon="8.907186">
        <ele>202.204130</ele>
        <time>2026-05-04T14:23:12.836Z</time>
      </trkpt>
      <trkpt lat="50.547257" lon="8.907193">
        <ele>201.282771</ele>
        <time>2026-05-04T14:23:14.893Z</time>
      </trkpt>
      <trkpt lat="50.545767" lon="8.908299">
        <ele>194.559891</ele>
        <time>2026-05-04T14:23:27.376Z</time>
      </trkpt>
      <trkpt lat="50.545391" lon="8.908578">
        <ele>192.752028</ele>
        <time>2026-05-04T14:23:30.584Z</time>
      </trkpt>
      <trkpt lat="50.544560" lon="8.906243">
        <ele>188.330641</ele>
        <time>2026-05-04T14:23:44.645Z</time>
      </trkpt>
      <trkpt lat="50.543890" lon="8.904368">
        <ele>186.645743</ele>
        <time>2026-05-04T14:24:00.042Z</time>
      </trkpt>
      <trkpt lat="50.543711" lon="8.903879">
        <ele>186.328954</ele>
        <time>2026-05-04T14:24:04.114Z</time>
      </trkpt>
      <trkpt lat="50.543410" lon="8.903000">
        <ele>185.245176</ele>
        <time>2026-05-04T14:24:09.887Z</time>
      </trkpt>
      <trkpt lat="50.542569" lon="8.903854">
        <ele>182.077017</ele>
        <time>2026-05-04T14:24:17.692Z</time>
      </trkpt>
      <trkpt lat="50.542130" lon="8.904287">
        <ele>180.437043</ele>
        <time>2026-05-04T14:24:21.725Z</time>
      </trkpt>
      <trkpt lat="50.541823" lon="8.904575">
        <ele>180.336769</ele>
        <time>2026-05-04T14:24:24.753Z</time>
      </trkpt>
      <trkpt lat="50.541298" lon="8.905105">
        <ele>180.456550</ele>
        <time>2026-05-04T14:24:31.352Z</time>
      </trkpt>
      <trkpt lat="50.541172" lon="8.905235">
        <ele>180.485483</ele>
        <time>2026-05-04T14:24:33.719Z</time>
      </trkpt>
      <trkpt lat="50.540998" lon="8.905414">
        <ele>180.525404</ele>
        <time>2026-05-04T14:24:37.394Z</time>
      </trkpt>
      <trkpt lat="50.540796" lon="8.905562">
        <ele>180.568193</ele>
        <time>2026-05-04T14:24:41.674Z</time>
      </trkpt>
      <trkpt lat="50.540728" lon="8.905565">
        <ele>180.581256</ele>
        <time>2026-05-04T14:24:42.996Z</time>
      </trkpt>
      <trkpt lat="50.540633" lon="8.905514">
        <ele>180.600532</ele>
        <time>2026-05-04T14:24:45.034Z</time>
      </trkpt>
      <trkpt lat="50.540459" lon="8.905226">
        <ele>180.897633</ele>
        <time>2026-05-04T14:24:50.344Z</time>
      </trkpt>
      <trkpt lat="50.540089" lon="8.904206">
        <ele>182.420069</ele>
        <time>2026-05-04T14:25:06.452Z</time>
      </trkpt>
      <trkpt lat="50.539838" lon="8.903749">
        <ele>183.203046</ele>
        <time>2026-05-04T14:25:13.869Z</time>
      </trkpt>
      <trkpt lat="50.539689" lon="8.903561">
        <ele>183.592605</ele>
        <time>2026-05-04T14:25:17.441Z</time>
      </trkpt>
      <trkpt lat="50.539592" lon="8.903457">
        <ele>183.832021</ele>
        <time>2026-05-04T14:25:19.448Z</time>
      </trkpt>
      <trkpt lat="50.539515" lon="8.903387">
        <ele>184.013406</ele>
        <time>2026-05-04T14:25:20.844Z</time>
      </trkpt>
      <trkpt lat="50.539431" lon="8.903291">
        <ele>184.225165</ele>
        <time>2026-05-04T14:25:22.398Z</time>
      </trkpt>
      <trkpt lat="50.539410" lon="8.903254">
        <ele>184.289471</ele>
        <time>2026-05-04T14:25:22.836Z</time>
      </trkpt>
      <trkpt lat="50.539266" lon="8.902935">
        <ele>183.666386</ele>
        <time>2026-05-04T14:25:25.776Z</time>
      </trkpt>
      <trkpt lat="50.539188" lon="8.902807">
        <ele>183.381576</ele>
        <time>2026-05-04T14:25:26.892Z</time>
      </trkpt>
      <trkpt lat="50.539069" lon="8.902746">
        <ele>183.065295</ele>
        <time>2026-05-04T14:25:28.049Z</time>
      </trkpt>
      <trkpt lat="50.538811" lon="8.902882">
        <ele>182.377688</ele>
        <time>2026-05-04T14:25:30.382Z</time>
      </trkpt>
      <trkpt lat="50.537892" lon="8.903542">
        <ele>179.824801</ele>
        <time>2026-05-04T14:25:38.298Z</time>
      </trkpt>
      <trkpt lat="50.537699" lon="8.903640">
        <ele>179.261674</ele>
        <time>2026-05-04T14:25:39.841Z</time>
      </trkpt>
      <trkpt lat="50.537286" lon="8.903731">
        <ele>178.084922</ele>
        <time>2026-05-04T14:25:43.061Z</time>
      </trkpt>
      <trkpt lat="50.537238" lon="8.903738">
        <ele>177.948898</ele>
        <time>2026-05-04T14:25:43.442Z</time>
      </trkpt>
      <trkpt lat="50.536485" lon="8.903830">
        <ele>175.817728</ele>
        <time>2026-05-04T14:25:49.752Z</time>
      </trkpt>
      <trkpt lat="50.536298" lon="8.903852">
        <ele>175.288589</ele>
        <time>2026-05-04T14:25:51.442Z</time>
      </trkpt>
      <trkpt lat="50.535995" lon="8.903898">
        <ele>174.656782</ele>
        <time>2026-05-04T14:25:54.354Z</time>
      </trkpt>
      <trkpt lat="50.535680" lon="8.903909">
        <ele>174.603701</ele>
        <time>2026-05-04T14:25:57.532Z</time>
      </trkpt>
      <trkpt lat="50.534905" lon="8.903842">
        <ele>174.472940</ele>
        <time>2026-05-04T14:26:06.336Z</time>
      </trkpt>
      <trkpt lat="50.534167" lon="8.903783">
        <ele>174.404149</ele>
        <time>2026-05-04T14:26:16.761Z</time>
      </trkpt>
      <trkpt lat="50.533086" lon="8.903676">
        <ele>174.736575</ele>
        <time>2026-05-04T14:26:31.391Z</time>
      </trkpt>
      <trkpt lat="50.532345" lon="8.903597">
        <ele>174.938148</ele>
        <time>2026-05-04T14:26:40.172Z</time>
      </trkpt>
      <trkpt lat="50.531972" lon="8.903546">
        <ele>174.984666</ele>
        <time>2026-05-04T14:26:44.166Z</time>
      </trkpt>
      <trkpt lat="50.531828" lon="8.903510">
        <ele>175.002782</ele>
        <time>2026-05-04T14:26:45.707Z</time>
      </trkpt>
      <trkpt lat="50.531530" lon="8.903412">
        <ele>175.040608</ele>
        <time>2026-05-04T14:26:49.109Z</time>
      </trkpt>
      <trkpt lat="50.531240" lon="8.903258">
        <ele>175.078636</ele>
        <time>2026-05-04T14:26:52.896Z</time>
      </trkpt>
      <trkpt lat="50.530195" lon="8.902439">
        <ele>176.122572</ele>
        <time>2026-05-04T14:27:09.550Z</time>
      </trkpt>
      <trkpt lat="50.529978" lon="8.902307">
        <ele>176.476242</ele>
        <time>2026-05-04T14:27:13.201Z</time>
      </trkpt>
      <trkpt lat="50.529815" lon="8.902259">
        <ele>176.728326</ele>
        <time>2026-05-04T14:27:15.883Z</time>
      </trkpt>
      <trkpt lat="50.529657" lon="8.902291">
        <ele>176.970489</ele>
        <time>2026-05-04T14:27:18.558Z</time>
      </trkpt>
      <trkpt lat="50.529567" lon="8.902351">
        <ele>177.119079</ele>
        <time>2026-05-04T14:27:20.240Z</time>
      </trkpt>
      <trkpt lat="50.528972" lon="8.902950">
        <ele>178.559688</ele>
        <time>2026-05-04T14:27:34.068Z</time>
      </trkpt>
      <trkpt lat="50.528754" lon="8.903091">
        <ele>179.335117</ele>
        <time>2026-05-04T14:27:39.257Z</time>
      </trkpt>
      <trkpt lat="50.528540" lon="8.903113">
        <ele>180.040635</ele>
        <time>2026-05-04T14:27:44.273Z</time>
      </trkpt>
      <trkpt lat="50.527208" lon="8.903001">
        <ele>183.977151</ele>
        <time>2026-05-04T14:28:16.149Z</time>
      </trkpt>
      <trkpt lat="50.526931" lon="8.902868">
        <ele>184.250910</ele>
        <time>2026-05-04T14:28:22.037Z</time>
      </trkpt>
      <trkpt lat="50.526199" lon="8.902477">
        <ele>184.981637</ele>
        <time>2026-05-04T14:28:33.239Z</time>
      </trkpt>
      <trkpt lat="50.525907" lon="8.902354">
        <ele>185.267375</ele>
        <time>2026-05-04T14:28:36.207Z</time>
      </trkpt>
      <trkpt lat="50.524890" lon="8.902166">
        <ele>185.659434</ele>
        <time>2026-05-04T14:28:45.873Z</time>
      </trkpt>
      <trkpt lat="50.524667" lon="8.902192">
        <ele>185.706341</ele>
        <time>2026-05-04T14:28:48.177Z</time>
      </trkpt>
      <trkpt lat="50.524486" lon="8.902303">
        <ele>185.747093</ele>
        <time>2026-05-04T14:28:50.386Z</time>
      </trkpt>
      <trkpt lat="50.522476" lon="8.904162">
        <ele>190.270130</ele>
        <time>2026-05-04T14:29:35.820Z</time>
      </trkpt>
      <trkpt lat="50.522310" lon="8.904369">
        <ele>190.686621</ele>
        <time>2026-05-04T14:29:41.041Z</time>
      </trkpt>
      <trkpt lat="50.522042" lon="8.904837">
        <ele>191.373565</ele>
        <time>2026-05-04T14:29:50.667Z</time>
      </trkpt>
      <trkpt lat="50.521703" lon="8.905361">
        <ele>192.188917</ele>
        <time>2026-05-04T14:30:00.820Z</time>
      </trkpt>
      <trkpt lat="50.521455" lon="8.905675">
        <ele>192.735063</ele>
        <time>2026-05-04T14:30:06.051Z</time>
      </trkpt>
      <trkpt lat="50.521119" lon="8.906184">
        <ele>193.489948</ele>
        <time>2026-05-04T14:30:11.244Z</time>
      </trkpt>
      <trkpt lat="50.520969" lon="8.906457">
        <ele>192.743071</ele>
        <time>2026-05-04T14:30:13.334Z</time>
      </trkpt>
      <trkpt lat="50.520833" lon="8.906916">
        <ele>191.694851</ele>
        <time>2026-05-04T14:30:16.064Z</time>
      </trkpt>
      <trkpt lat="50.520627" lon="8.907551">
        <ele>190.219205</ele>
        <time>2026-05-04T14:30:19.680Z</time>
      </trkpt>
      <trkpt lat="50.520517" lon="8.907788">
        <ele>189.611811</ele>
        <time>2026-05-04T14:30:21.126Z</time>
      </trkpt>
      <trkpt lat="50.520323" lon="8.908205">
        <ele>188.542226</ele>
        <time>2026-05-04T14:30:23.630Z</time>
      </trkpt>
      <trkpt lat="50.520178" lon="8.907575">
        <ele>187.077255</ele>
        <time>2026-05-04T14:30:26.859Z</time>
      </trkpt>
      <trkpt lat="50.520063" lon="8.907027">
        <ele>185.699328</ele>
        <time>2026-05-04T14:30:29.678Z</time>
      </trkpt>
      <trkpt lat="50.519921" lon="8.906422">
        <ele>184.159438</ele>
        <time>2026-05-04T14:30:32.834Z</time>
      </trkpt>
      <trkpt lat="50.519806" lon="8.905817">
        <ele>182.651655</ele>
        <time>2026-05-04T14:30:35.987Z</time>
      </trkpt>
      <trkpt lat="50.519778" lon="8.905668">
        <ele>182.280661</ele>
        <time>2026-05-04T14:30:36.777Z</time>
      </trkpt>
      <trkpt lat="50.519747" lon="8.905507">
        <ele>181.878987</ele>
        <time>2026-05-04T14:30:37.639Z</time>
      </trkpt>
      <trkpt lat="50.519401" lon="8.903868">
        <ele>178.988784</ele>
        <time>2026-05-04T14:30:47.352Z</time>
      </trkpt>
      <trkpt lat="50.519337" lon="8.903473">
        <ele>178.396139</ele>
        <time>2026-05-04T14:30:49.654Z</time>
      </trkpt>
      <trkpt lat="50.519324" lon="8.903241">
        <ele>178.057527</ele>
        <time>2026-05-04T14:30:50.942Z</time>
      </trkpt>
      <trkpt lat="50.519342" lon="8.902976">
        <ele>177.670051</ele>
        <time>2026-05-04T14:30:52.386Z</time>
      </trkpt>
      <trkpt lat="50.519389" lon="8.902718">
        <ele>177.279852</ele>
        <time>2026-05-04T14:30:53.822Z</time>
      </trkpt>
      <trkpt lat="50.519738" lon="8.901321">
        <ele>175.026370</ele>
        <time>2026-05-04T14:31:01.680Z</time>
      </trkpt>
      <trkpt lat="50.520349" lon="8.898849">
        <ele>172.771392</ele>
        <time>2026-05-04T14:31:16.390Z</time>
      </trkpt>
      <trkpt lat="50.520611" lon="8.897772">
        <ele>173.074469</ele>
        <time>2026-05-04T14:31:27.490Z</time>
      </trkpt>
      <trkpt lat="50.520689" lon="8.897205">
        <ele>173.226939</ele>
        <time>2026-05-04T14:31:34.833Z</time>
      </trkpt>
      <trkpt lat="50.520691" lon="8.896298">
        <ele>174.696108</ele>
        <time>2026-05-04T14:31:47.783Z</time>
      </trkpt>
      <trkpt lat="50.520698" lon="8.894402">
        <ele>178.100771</ele>
        <time>2026-05-04T14:32:13.752Z</time>
      </trkpt>
      <trkpt lat="50.520796" lon="8.892902">
        <ele>180.020698</ele>
        <time>2026-05-04T14:32:30.938Z</time>
      </trkpt>
      <trkpt lat="50.520890" lon="8.889179">
        <ele>184.057932</ele>
        <time>2026-05-04T14:33:12.287Z</time>
      </trkpt>
      <trkpt lat="50.519989" lon="8.889450">
        <ele>184.978763</ele>
        <time>2026-05-04T14:33:26.335Z</time>
      </trkpt>
      <trkpt lat="50.519727" lon="8.889478">
        <ele>185.150766</ele>
        <time>2026-05-04T14:33:29.762Z</time>
      </trkpt>
      <trkpt lat="50.519453" lon="8.889387">
        <ele>185.334191</ele>
        <time>2026-05-04T14:33:33.284Z</time>
      </trkpt>
      <trkpt lat="50.519025" lon="8.889109">
        <ele>185.637492</ele>
        <time>2026-05-04T14:33:39.053Z</time>
      </trkpt>
      <trkpt lat="50.518868" lon="8.888923">
        <ele>185.766235</ele>
        <time>2026-05-04T14:33:41.510Z</time>
      </trkpt>
      <trkpt lat="50.518755" lon="8.888641">
        <ele>185.953951</ele>
        <time>2026-05-04T14:33:44.296Z</time>
      </trkpt>
      <trkpt lat="50.518504" lon="8.887510">
        <ele>186.659029</ele>
        <time>2026-05-04T14:33:56.188Z</time>
      </trkpt>
      <trkpt lat="50.518488" lon="8.887297">
        <ele>186.785271</ele>
        <time>2026-05-04T14:33:58.521Z</time>
      </trkpt>
      <trkpt lat="50.518535" lon="8.886288">
        <ele>187.380749</ele>
        <time>2026-05-04T14:34:08.639Z</time>
      </trkpt>
      <trkpt lat="50.518521" lon="8.885966">
        <ele>187.440067</ele>
        <time>2026-05-04T14:34:11.426Z</time>
      </trkpt>
      <trkpt lat="50.518480" lon="8.885757">
        <ele>187.427415</ele>
        <time>2026-05-04T14:34:13.295Z</time>
      </trkpt>
      <trkpt lat="50.518385" lon="8.885528">
        <ele>187.411598</ele>
        <time>2026-05-04T14:34:15.609Z</time>
      </trkpt>
      <trkpt lat="50.517896" lon="8.884795">
        <ele>187.350141</ele>
        <time>2026-05-04T14:34:23.598Z</time>
      </trkpt>
      <trkpt lat="50.517488" lon="8.883847">
        <ele>187.283417</ele>
        <time>2026-05-04T14:34:30.854Z</time>
      </trkpt>
      <trkpt lat="50.517361" lon="8.883642">
        <ele>187.264877</ele>
        <time>2026-05-04T14:34:32.707Z</time>
      </trkpt>
      <trkpt lat="50.517221" lon="8.883491">
        <ele>187.247582</ele>
        <time>2026-05-04T14:34:34.502Z</time>
      </trkpt>
      <trkpt lat="50.517063" lon="8.883397">
        <ele>187.230373</ele>
        <time>2026-05-04T14:34:36.354Z</time>
      </trkpt>
      <trkpt lat="50.516668" lon="8.883331">
        <ele>187.189904</ele>
        <time>2026-05-04T14:34:40.688Z</time>
      </trkpt>
      <trkpt lat="50.516572" lon="8.883282">
        <ele>187.179622</ele>
        <time>2026-05-04T14:34:41.778Z</time>
      </trkpt>
      <trkpt lat="50.516473" lon="8.883189">
        <ele>187.167874</ele>
        <time>2026-05-04T14:34:43.028Z</time>
      </trkpt>
      <trkpt lat="50.516264" lon="8.882797">
        <ele>187.134735</ele>
        <time>2026-05-04T14:34:46.624Z</time>
      </trkpt>
      <trkpt lat="50.516175" lon="8.882482">
        <ele>187.112406</ele>
        <time>2026-05-04T14:34:49.246Z</time>
      </trkpt>
      <trkpt lat="50.516150" lon="8.882236">
        <ele>187.271737</ele>
        <time>2026-05-04T14:34:51.434Z</time>
      </trkpt>
      <trkpt lat="50.516097" lon="8.880869">
        <ele>188.989994</ele>
        <time>2026-05-04T14:35:08.040Z</time>
      </trkpt>
      <trkpt lat="50.516028" lon="8.879207">
        <ele>190.767335</ele>
        <time>2026-05-04T14:35:30.136Z</time>
      </trkpt>
      <trkpt lat="50.515835" lon="8.874639">
        <ele>191.163444</ele>
        <time>2026-05-04T14:36:04.705Z</time>
      </trkpt>
      <trkpt lat="50.515759" lon="8.874221">
        <ele>191.072582</ele>
        <time>2026-05-04T14:36:07.418Z</time>
      </trkpt>
      <trkpt lat="50.515612" lon="8.873819">
        <ele>190.847325</ele>
        <time>2026-05-04T14:36:10.225Z</time>
      </trkpt>
      <trkpt lat="50.515424" lon="8.873453">
        <ele>190.368346</ele>
        <time>2026-05-04T14:36:13.024Z</time>
      </trkpt>
      <trkpt lat="50.515236" lon="8.873243">
        <ele>189.999162</ele>
        <time>2026-05-04T14:36:15.132Z</time>
      </trkpt>
      <trkpt lat="50.514983" lon="8.873046">
        <ele>189.547180</ele>
        <time>2026-05-04T14:36:17.678Z</time>
      </trkpt>
      <trkpt lat="50.513280" lon="8.872118">
        <ele>186.626419</ele>
        <time>2026-05-04T14:36:33.688Z</time>
      </trkpt>
      <trkpt lat="50.513126" lon="8.871970">
        <ele>186.330534</ele>
        <time>2026-05-04T14:36:35.421Z</time>
      </trkpt>
      <trkpt lat="50.512566" lon="8.871076">
        <ele>184.984159</ele>
        <time>2026-05-04T14:36:42.919Z</time>
      </trkpt>
      <trkpt lat="50.512465" lon="8.870974">
        <ele>184.739937</ele>
        <time>2026-05-04T14:36:44.023Z</time>
      </trkpt>
      <trkpt lat="50.512351" lon="8.870911">
        <ele>184.494086</ele>
        <time>2026-05-04T14:36:45.130Z</time>
      </trkpt>
      <trkpt lat="50.512246" lon="8.870912">
        <ele>184.280449</ele>
        <time>2026-05-04T14:36:46.081Z</time>
      </trkpt>
      <trkpt lat="50.511355" lon="8.871069">
        <ele>182.456270</ele>
        <time>2026-05-04T14:36:53.835Z</time>
      </trkpt>
      <trkpt lat="50.511044" lon="8.871080">
        <ele>181.823348</ele>
        <time>2026-05-04T14:36:56.451Z</time>
      </trkpt>
      <trkpt lat="50.510856" lon="8.871022">
        <ele>181.435109</ele>
        <time>2026-05-04T14:36:58.065Z</time>
      </trkpt>
      <trkpt lat="50.509011" lon="8.869638">
        <ele>177.557839</ele>
        <time>2026-05-04T14:37:16.039Z</time>
      </trkpt>
      <trkpt lat="50.508821" lon="8.869341">
        <ele>177.215305</ele>
        <time>2026-05-04T14:37:18.558Z</time>
      </trkpt>
      <trkpt lat="50.507789" lon="8.867228">
        <ele>175.568444</ele>
        <time>2026-05-04T14:37:35.017Z</time>
      </trkpt>
      <trkpt lat="50.507339" lon="8.865998">
        <ele>175.451482</ele>
        <time>2026-05-04T14:37:44.942Z</time>
      </trkpt>
      <trkpt lat="50.506351" lon="8.863298">
        <ele>176.620734</ele>
        <time>2026-05-04T14:38:14.721Z</time>
      </trkpt>
      <trkpt lat="50.506236" lon="8.863065">
        <ele>176.770452</ele>
        <time>2026-05-04T14:38:17.225Z</time>
      </trkpt>
      <trkpt lat="50.506128" lon="8.862925">
        <ele>176.832263</ele>
        <time>2026-05-04T14:38:19.006Z</time>
      </trkpt>
      <trkpt lat="50.505980" lon="8.862808">
        <ele>176.839066</ele>
        <time>2026-05-04T14:38:21.065Z</time>
      </trkpt>
      <trkpt lat="50.505017" lon="8.862343">
        <ele>176.880433</ele>
        <time>2026-05-04T14:38:34.098Z</time>
      </trkpt>
      <trkpt lat="50.503778" lon="8.861753">
        <ele>175.298831</ele>
        <time>2026-05-04T14:38:47.578Z</time>
      </trkpt>
      <trkpt lat="50.502830" lon="8.861346">
        <ele>173.153179</ele>
        <time>2026-05-04T14:38:55.434Z</time>
      </trkpt>
      <trkpt lat="50.502511" lon="8.861219">
        <ele>172.591224</ele>
        <time>2026-05-04T14:38:57.990Z</time>
      </trkpt>
      <trkpt lat="50.500785" lon="8.860558">
        <ele>170.210426</ele>
        <time>2026-05-04T14:39:15.067Z</time>
      </trkpt>
      <trkpt lat="50.499811" lon="8.860181">
        <ele>170.326855</ele>
        <time>2026-05-04T14:39:29.173Z</time>
      </trkpt>
      <trkpt lat="50.499423" lon="8.860039">
        <ele>170.373095</ele>
        <time>2026-05-04T14:39:34.571Z</time>
      </trkpt>
      <trkpt lat="50.498632" lon="8.859718">
        <ele>169.704295</ele>
        <time>2026-05-04T14:39:43.411Z</time>
      </trkpt>
      <trkpt lat="50.498593" lon="8.859706">
        <ele>169.661903</ele>
        <time>2026-05-04T14:39:43.795Z</time>
      </trkpt>
      <trkpt lat="50.498221" lon="8.859575">
        <ele>169.255245</ele>
        <time>2026-05-04T14:39:47.395Z</time>
      </trkpt>
      <trkpt lat="50.497762" lon="8.859427">
        <ele>168.755423</ele>
        <time>2026-05-04T14:39:51.740Z</time>
      </trkpt>
      <trkpt lat="50.497601" lon="8.859326">
        <ele>168.570510</ele>
        <time>2026-05-04T14:39:53.272Z</time>
      </trkpt>
      <trkpt lat="50.497453" lon="8.859092">
        <ele>168.207801</ele>
        <time>2026-05-04T14:39:55.103Z</time>
      </trkpt>
      <trkpt lat="50.497321" lon="8.858787">
        <ele>167.685442</ele>
        <time>2026-05-04T14:39:57.148Z</time>
      </trkpt>
      <trkpt lat="50.497233" lon="8.858511">
        <ele>167.248281</ele>
        <time>2026-05-04T14:39:58.830Z</time>
      </trkpt>
      <trkpt lat="50.497018" lon="8.857825">
        <ele>166.165400</ele>
        <time>2026-05-04T14:40:02.988Z</time>
      </trkpt>
      <trkpt lat="50.496956" lon="8.857668">
        <ele>165.903731</ele>
        <time>2026-05-04T14:40:03.993Z</time>
      </trkpt>
      <trkpt lat="50.496743" lon="8.857426">
        <ele>165.318721</ele>
        <time>2026-05-04T14:40:06.227Z</time>
      </trkpt>
      <trkpt lat="50.496601" lon="8.857331">
        <ele>164.975193</ele>
        <time>2026-05-04T14:40:07.508Z</time>
      </trkpt>
      <trkpt lat="50.496173" lon="8.857138">
        <ele>164.309527</ele>
        <time>2026-05-04T14:40:11.261Z</time>
      </trkpt>
      <trkpt lat="50.495472" lon="8.856834">
        <ele>163.773875</ele>
        <time>2026-05-04T14:40:17.952Z</time>
      </trkpt>
      <trkpt lat="50.495392" lon="8.856740">
        <ele>163.700303</ele>
        <time>2026-05-04T14:40:18.950Z</time>
      </trkpt>
      <trkpt lat="50.495356" lon="8.856659">
        <ele>163.654002</ele>
        <time>2026-05-04T14:40:19.588Z</time>
      </trkpt>
      <trkpt lat="50.495286" lon="8.856373">
        <ele>163.510408</ele>
        <time>2026-05-04T14:40:21.711Z</time>
      </trkpt>
      <trkpt lat="50.495125" lon="8.855410">
        <ele>163.381927</ele>
        <time>2026-05-04T14:40:30.834Z</time>
      </trkpt>
      <trkpt lat="50.495047" lon="8.854912">
        <ele>163.939981</ele>
        <time>2026-05-04T14:40:36.822Z</time>
      </trkpt>
      <trkpt lat="50.494854" lon="8.853746">
        <ele>165.250948</ele>
        <time>2026-05-04T14:40:51.733Z</time>
      </trkpt>
      <trkpt lat="50.494784" lon="8.853672">
        <ele>165.395236</ele>
        <time>2026-05-04T14:40:53.318Z</time>
      </trkpt>
      <trkpt lat="50.494731" lon="8.853678">
        <ele>165.486125</ele>
        <time>2026-05-04T14:40:54.276Z</time>
      </trkpt>
      <trkpt lat="50.494313" lon="8.853725">
        <ele>166.202921</ele>
        <time>2026-05-04T14:41:01.485Z</time>
      </trkpt>
      <trkpt lat="50.494188" lon="8.853560">
        <ele>166.260737</ele>
        <time>2026-05-04T14:41:04.035Z</time>
      </trkpt>
      <trkpt lat="50.493953" lon="8.853816">
        <ele>166.333408</ele>
        <time>2026-05-04T14:41:08.196Z</time>
      </trkpt>
      <trkpt lat="50.493179" lon="8.854265">
        <ele>166.543104</ele>
        <time>2026-05-04T14:41:18.613Z</time>
      </trkpt>
      <trkpt lat="50.493070" lon="8.854323">
        <ele>166.572352</ele>
        <time>2026-05-04T14:41:19.801Z</time>
      </trkpt>
      <trkpt lat="50.492620" lon="8.854541">
        <ele>166.645576</ele>
        <time>2026-05-04T14:41:24.763Z</time>
      </trkpt>
      <trkpt lat="50.491976" lon="8.854666">
        <ele>166.210802</ele>
        <time>2026-05-04T14:41:31.340Z</time>
      </trkpt>
      <trkpt lat="50.491948" lon="8.854668">
        <ele>166.192022</ele>
        <time>2026-05-04T14:41:31.612Z</time>
      </trkpt>
      <trkpt lat="50.491563" lon="8.854617">
        <ele>165.933147</ele>
        <time>2026-05-04T14:41:35.321Z</time>
      </trkpt>
      <trkpt lat="50.491498" lon="8.854599">
        <ele>165.888925</ele>
        <time>2026-05-04T14:41:35.946Z</time>
      </trkpt>
      <trkpt lat="50.490740" lon="8.854454">
        <ele>165.578417</ele>
        <time>2026-05-04T14:41:43.900Z</time>
      </trkpt>
      <trkpt lat="50.490746" lon="8.854337">
        <ele>165.632315</ele>
        <time>2026-05-04T14:41:44.794Z</time>
      </trkpt>
      <trkpt lat="50.490737" lon="8.854177">
        <ele>165.706069</ele>
        <time>2026-05-04T14:41:46.042Z</time>
      </trkpt>
      <trkpt lat="50.490696" lon="8.854031">
        <ele>165.779349</ele>
        <time>2026-05-04T14:41:47.295Z</time>
      </trkpt>
      <trkpt lat="50.490447" lon="8.853440">
        <ele>166.104834</ele>
        <time>2026-05-04T14:41:53.392Z</time>
      </trkpt>
      <trkpt lat="50.490189" lon="8.852774">
        <ele>166.462879</ele>
        <time>2026-05-04T14:42:01.430Z</time>
      </trkpt>
      <trkpt lat="50.490014" lon="8.852338">
        <ele>166.699594</ele>
        <time>2026-05-04T14:42:06.861Z</time>
      </trkpt>
      <trkpt lat="50.489967" lon="8.852389">
        <ele>166.740814</ele>
        <time>2026-05-04T14:42:08.820Z</time>
      </trkpt>
      <trkpt lat="50.489566" lon="8.851415">
        <ele>167.594642</ele>
        <time>2026-05-04T14:42:20.638Z</time>
      </trkpt>
      <trkpt lat="50.489492" lon="8.851235">
        <ele>167.756090</ele>
        <time>2026-05-04T14:42:22.775Z</time>
      </trkpt>
      <trkpt lat="50.489350" lon="8.850832">
        <ele>168.103139</ele>
        <time>2026-05-04T14:42:27.344Z</time>
      </trkpt>
      <trkpt lat="50.489103" lon="8.850221">
        <ele>168.648493</ele>
        <time>2026-05-04T14:42:34.457Z</time>
      </trkpt>
      <trkpt lat="50.489143" lon="8.850167">
        <ele>168.710929</ele>
        <time>2026-05-04T14:42:35.271Z</time>
      </trkpt>
      <trkpt lat="50.488737" lon="8.849148">
        <ele>169.411466</ele>
        <time>2026-05-04T14:42:46.586Z</time>
      </trkpt>
      <trkpt lat="50.487861" lon="8.847333">
        <ele>170.644336</ele>
        <time>2026-05-04T14:43:07.328Z</time>
      </trkpt>
      <trkpt lat="50.486878" lon="8.845342">
        <ele>172.078802</ele>
        <time>2026-05-04T14:43:30.940Z</time>
      </trkpt>
      <trkpt lat="50.486404" lon="8.844380">
        <ele>173.040642</ele>
        <time>2026-05-04T14:43:42.884Z</time>
      </trkpt>
      <trkpt lat="50.485933" lon="8.843424">
        <ele>173.996457</ele>
        <time>2026-05-04T14:43:55.147Z</time>
      </trkpt>
      <trkpt lat="50.485068" lon="8.841665">
        <ele>176.449463</ele>
        <time>2026-05-04T14:44:19.119Z</time>
      </trkpt>
      <trkpt lat="50.484430" lon="8.840175">
        <ele>178.961896</ele>
        <time>2026-05-04T14:44:41.298Z</time>
      </trkpt>
      <trkpt lat="50.484423" lon="8.840153">
        <ele>179.002525</ele>
        <time>2026-05-04T14:44:41.634Z</time>
      </trkpt>
      <trkpt lat="50.483753" lon="8.838553">
        <ele>182.166362</ele>
        <time>2026-05-04T14:45:07.144Z</time>
      </trkpt>
      <trkpt lat="50.483459" lon="8.837838">
        <ele>183.060816</ele>
        <time>2026-05-04T14:45:17.699Z</time>
      </trkpt>
      <trkpt lat="50.483018" lon="8.836794">
        <ele>184.375128</ele>
        <time>2026-05-04T14:45:31.244Z</time>
      </trkpt>
      <trkpt lat="50.482878" lon="8.836460">
        <ele>184.794621</ele>
        <time>2026-05-04T14:45:35.032Z</time>
      </trkpt>
      <trkpt lat="50.482071" lon="8.834532">
        <ele>185.927347</ele>
        <time>2026-05-04T14:45:54.930Z</time>
      </trkpt>
      <trkpt lat="50.482047" lon="8.834475">
        <ele>185.954644</ele>
        <time>2026-05-04T14:45:55.531Z</time>
      </trkpt>
      <trkpt lat="50.481786" lon="8.833851">
        <ele>186.252882</ele>
        <time>2026-05-04T14:46:02.306Z</time>
      </trkpt>
      <trkpt lat="50.481693" lon="8.833646">
        <ele>186.115689</ele>
        <time>2026-05-04T14:46:04.675Z</time>
      </trkpt>
      <trkpt lat="50.481558" lon="8.833453">
        <ele>185.924421</ele>
        <time>2026-05-04T14:46:07.359Z</time>
      </trkpt>
      <trkpt lat="50.481380" lon="8.833324">
        <ele>185.718991</ele>
        <time>2026-05-04T14:46:10.028Z</time>
      </trkpt>
      <trkpt lat="50.480781" lon="8.833194">
        <ele>185.085265</ele>
        <time>2026-05-04T14:46:16.482Z</time>
      </trkpt>
      <trkpt lat="50.480632" lon="8.833153">
        <ele>184.926733</ele>
        <time>2026-05-04T14:46:17.868Z</time>
      </trkpt>
      <trkpt lat="50.480512" lon="8.833125">
        <ele>184.799591</ele>
        <time>2026-05-04T14:46:18.937Z</time>
      </trkpt>
      <trkpt lat="50.480216" lon="8.833033">
        <ele>184.483366</ele>
        <time>2026-05-04T14:46:21.496Z</time>
      </trkpt>
      <trkpt lat="50.480078" lon="8.832928">
        <ele>184.156486</ele>
        <time>2026-05-04T14:46:22.719Z</time>
      </trkpt>
      <trkpt lat="50.479787" lon="8.832542">
        <ele>182.587181</ele>
        <time>2026-05-04T14:46:25.649Z</time>
      </trkpt>
      <trkpt lat="50.479336" lon="8.832079">
        <ele>180.367167</ele>
        <time>2026-05-04T14:46:29.689Z</time>
      </trkpt>
      <trkpt lat="50.479230" lon="8.831962">
        <ele>179.833355</ele>
        <time>2026-05-04T14:46:30.665Z</time>
      </trkpt>
      <trkpt lat="50.478972" lon="8.831726">
        <ele>178.603132</ele>
        <time>2026-05-04T14:46:32.957Z</time>
      </trkpt>
      <trkpt lat="50.478802" lon="8.831687">
        <ele>177.895139</ele>
        <time>2026-05-04T14:46:34.310Z</time>
      </trkpt>
      <trkpt lat="50.478593" lon="8.831850">
        <ele>176.940131</ele>
        <time>2026-05-04T14:46:36.177Z</time>
      </trkpt>
      <trkpt lat="50.478342" lon="8.831942">
        <ele>176.084219</ele>
        <time>2026-05-04T14:46:38.294Z</time>
      </trkpt>
      <trkpt lat="50.477478" lon="8.832346">
        <ele>173.090655</ele>
        <time>2026-05-04T14:46:45.690Z</time>
      </trkpt>
      <trkpt lat="50.477411" lon="8.832367">
        <ele>172.863774</ele>
        <time>2026-05-04T14:46:46.245Z</time>
      </trkpt>
      <trkpt lat="50.477341" lon="8.832383">
        <ele>172.628866</ele>
        <time>2026-05-04T14:46:46.801Z</time>
      </trkpt>
      <trkpt lat="50.477039" lon="8.832417">
        <ele>171.623393</ele>
        <time>2026-05-04T14:46:49.214Z</time>
      </trkpt>
      <trkpt lat="50.476960" lon="8.832421">
        <ele>171.360909</ele>
        <time>2026-05-04T14:46:49.848Z</time>
      </trkpt>
      <trkpt lat="50.476718" lon="8.832502">
        <ele>170.640448</ele>
        <time>2026-05-04T14:46:51.799Z</time>
      </trkpt>
      <trkpt lat="50.476556" lon="8.832629">
        <ele>170.173008</ele>
        <time>2026-05-04T14:46:53.226Z</time>
      </trkpt>
      <trkpt lat="50.476471" lon="8.832739">
        <ele>169.888695</ele>
        <time>2026-05-04T14:46:54.087Z</time>
      </trkpt>
      <trkpt lat="50.476389" lon="8.832845">
        <ele>169.614539</ele>
        <time>2026-05-04T14:46:54.929Z</time>
      </trkpt>
      <trkpt lat="50.475830" lon="8.833787">
        <ele>167.498181</ele>
        <time>2026-05-04T14:47:01.629Z</time>
      </trkpt>
      <trkpt lat="50.474648" lon="8.835704">
        <ele>165.804329</ele>
        <time>2026-05-04T14:47:19.181Z</time>
      </trkpt>
      <trkpt lat="50.474188" lon="8.836303">
        <ele>165.593625</ele>
        <time>2026-05-04T14:47:26.501Z</time>
      </trkpt>
      <trkpt lat="50.473767" lon="8.836789">
        <ele>165.853968</ele>
        <time>2026-05-04T14:47:33.384Z</time>
      </trkpt>
      <trkpt lat="50.473460" lon="8.837106">
        <ele>166.037041</ele>
        <time>2026-05-04T14:47:38.334Z</time>
      </trkpt>
      <trkpt lat="50.472929" lon="8.837602">
        <ele>166.344896</ele>
        <time>2026-05-04T14:47:46.801Z</time>
      </trkpt>
      <trkpt lat="50.472467" lon="8.837970">
        <ele>166.948074</ele>
        <time>2026-05-04T14:47:54.226Z</time>
      </trkpt>
      <trkpt lat="50.471928" lon="8.838339">
        <ele>167.966444</ele>
        <time>2026-05-04T14:48:03.401Z</time>
      </trkpt>
      <trkpt lat="50.471337" lon="8.838715">
        <ele>169.070848</ele>
        <time>2026-05-04T14:48:14.839Z</time>
      </trkpt>
      <trkpt lat="50.471096" lon="8.838869">
        <ele>169.521485</ele>
        <time>2026-05-04T14:48:19.999Z</time>
      </trkpt>
      <trkpt lat="50.470207" lon="8.839432">
        <ele>173.205100</ele>
        <time>2026-05-04T14:48:42.307Z</time>
      </trkpt>
      <trkpt lat="50.469055" lon="8.840153">
        <ele>178.338847</ele>
        <time>2026-05-04T14:49:15.338Z</time>
      </trkpt>
      <trkpt lat="50.468292" lon="8.840705">
        <ele>182.258742</ele>
        <time>2026-05-04T14:49:38.059Z</time>
      </trkpt>
      <trkpt lat="50.467702" lon="8.841230">
        <ele>185.378705</ele>
        <time>2026-05-04T14:49:56.142Z</time>
      </trkpt>
      <trkpt lat="50.467313" lon="8.841622">
        <ele>187.297950</ele>
        <time>2026-05-04T14:50:08.562Z</time>
      </trkpt>
      <trkpt lat="50.467027" lon="8.841860">
        <ele>188.642015</ele>
        <time>2026-05-04T14:50:17.036Z</time>
      </trkpt>
      <trkpt lat="50.466830" lon="8.841980">
        <ele>189.519481</ele>
        <time>2026-05-04T14:50:22.437Z</time>
      </trkpt>
      <trkpt lat="50.466530" lon="8.842101">
        <ele>190.805756</ele>
        <time>2026-05-04T14:50:30.119Z</time>
      </trkpt>
      <trkpt lat="50.466212" lon="8.842160">
        <ele>192.135557</ele>
        <time>2026-05-04T14:50:37.789Z</time>
      </trkpt>
      <trkpt lat="50.465879" lon="8.842143">
        <ele>192.928572</ele>
        <time>2026-05-04T14:50:45.377Z</time>
      </trkpt>
      <trkpt lat="50.465365" lon="8.841963">
        <ele>193.859505</ele>
        <time>2026-05-04T14:50:56.092Z</time>
      </trkpt>
      <trkpt lat="50.465099" lon="8.841783">
        <ele>194.371499</ele>
        <time>2026-05-04T14:51:01.431Z</time>
      </trkpt>
      <trkpt lat="50.463711" lon="8.840764">
        <ele>194.455319</ele>
        <time>2026-05-04T14:51:20.781Z</time>
      </trkpt>
      <trkpt lat="50.463054" lon="8.840397">
        <ele>193.392660</ele>
        <time>2026-05-04T14:51:26.704Z</time>
      </trkpt>
      <trkpt lat="50.462526" lon="8.840145">
        <ele>191.934143</ele>
        <time>2026-05-04T14:51:31.099Z</time>
      </trkpt>
      <trkpt lat="50.462120" lon="8.839971">
        <ele>190.244048</ele>
        <time>2026-05-04T14:51:34.381Z</time>
      </trkpt>
      <trkpt lat="50.461214" lon="8.839554">
        <ele>186.452570</ele>
        <time>2026-05-04T14:51:41.680Z</time>
      </trkpt>
      <trkpt lat="50.460653" lon="8.839297">
        <ele>184.066110</ele>
        <time>2026-05-04T14:51:46.196Z</time>
      </trkpt>
      <trkpt lat="50.460141" lon="8.839102">
        <ele>181.897948</ele>
        <time>2026-05-04T14:51:50.294Z</time>
      </trkpt>
      <trkpt lat="50.459920" lon="8.839074">
        <ele>180.985480</ele>
        <time>2026-05-04T14:51:52.019Z</time>
      </trkpt>
      <trkpt lat="50.459063" lon="8.838989">
        <ele>177.613480</ele>
        <time>2026-05-04T14:51:58.707Z</time>
      </trkpt>
      <trkpt lat="50.458402" lon="8.838942">
        <ele>175.407912</ele>
        <time>2026-05-04T14:52:03.956Z</time>
      </trkpt>
      <trkpt lat="50.456715" lon="8.838785">
        <ele>170.488508</ele>
        <time>2026-05-04T14:52:17.883Z</time>
      </trkpt>
      <trkpt lat="50.455428" lon="8.838415">
        <ele>167.486912</ele>
        <time>2026-05-04T14:52:29.330Z</time>
      </trkpt>
      <trkpt lat="50.455068" lon="8.838316">
        <ele>166.789328</ele>
        <time>2026-05-04T14:52:32.634Z</time>
      </trkpt>
      <trkpt lat="50.455047" lon="8.838308">
        <ele>166.748083</ele>
        <time>2026-05-04T14:52:32.828Z</time>
      </trkpt>
      <trkpt lat="50.454073" lon="8.838081">
        <ele>164.868657</ele>
        <time>2026-05-04T14:52:41.476Z</time>
      </trkpt>
      <trkpt lat="50.453462" lon="8.837912">
        <ele>163.967894</ele>
        <time>2026-05-04T14:52:47.054Z</time>
      </trkpt>
      <trkpt lat="50.452975" lon="8.837799">
        <ele>163.329385</ele>
        <time>2026-05-04T14:52:51.552Z</time>
      </trkpt>
      <trkpt lat="50.452833" lon="8.838729">
        <ele>162.539585</ele>
        <time>2026-05-04T14:52:57.405Z</time>
      </trkpt>
      <trkpt lat="50.452814" lon="8.838852">
        <ele>162.435061</ele>
        <time>2026-05-04T14:52:58.359Z</time>
      </trkpt>
      <trkpt lat="50.452727" lon="8.839745">
        <ele>161.703835</ele>
        <time>2026-05-04T14:53:04.705Z</time>
      </trkpt>
      <trkpt lat="50.452793" lon="8.840042">
        <ele>161.451096</ele>
        <time>2026-05-04T14:53:06.687Z</time>
      </trkpt>
      <trkpt lat="50.452952" lon="8.840244">
        <ele>161.193036</ele>
        <time>2026-05-04T14:53:08.666Z</time>
      </trkpt>
      <trkpt lat="50.453084" lon="8.840373">
        <ele>160.996857</ele>
        <time>2026-05-04T14:53:10.129Z</time>
      </trkpt>
      <trkpt lat="50.453094" lon="8.840430">
        <ele>160.949354</ele>
        <time>2026-05-04T14:53:10.499Z</time>
      </trkpt>
      <trkpt lat="50.453038" lon="8.840622">
        <ele>160.779679</ele>
        <time>2026-05-04T14:53:11.742Z</time>
      </trkpt>
      <trkpt lat="50.452852" lon="8.840893">
        <ele>160.459531</ele>
        <time>2026-05-04T14:53:14.046Z</time>
      </trkpt>
      <trkpt lat="50.452645" lon="8.841193">
        <ele>160.104107</ele>
        <time>2026-05-04T14:53:16.555Z</time>
      </trkpt>
      <trkpt lat="50.452542" lon="8.841855">
        <ele>159.310077</ele>
        <time>2026-05-04T14:53:20.316Z</time>
      </trkpt>
      <trkpt lat="50.452368" lon="8.842681">
        <ele>158.190500</ele>
        <time>2026-05-04T14:53:25.023Z</time>
      </trkpt>
      <trkpt lat="50.452356" lon="8.842762">
        <ele>158.083483</ele>
        <time>2026-05-04T14:53:25.489Z</time>
      </trkpt>
      <trkpt lat="50.452294" lon="8.843573">
        <ele>157.032371</ele>
        <time>2026-05-04T14:53:30.055Z</time>
      </trkpt>
      <trkpt lat="50.452306" lon="8.845327">
        <ele>155.111887</ele>
        <time>2026-05-04T14:53:40.208Z</time>
      </trkpt>
      <trkpt lat="50.452307" lon="8.845603">
        <ele>154.833579</ele>
        <time>2026-05-04T14:53:41.798Z</time>
      </trkpt>
      <trkpt lat="50.452335" lon="8.846447">
        <ele>153.981379</ele>
        <time>2026-05-04T14:53:46.702Z</time>
      </trkpt>
      <trkpt lat="50.452298" lon="8.847145">
        <ele>153.322991</ele>
        <time>2026-05-04T14:53:50.811Z</time>
      </trkpt>
      <trkpt lat="50.451832" lon="8.850177">
        <ele>150.992681</ele>
        <time>2026-05-04T14:54:09.842Z</time>
      </trkpt>
      <trkpt lat="50.451603" lon="8.851669">
        <ele>150.077110</ele>
        <time>2026-05-04T14:54:19.440Z</time>
      </trkpt>
      <trkpt lat="50.451149" lon="8.854750">
        <ele>148.635995</ele>
        <time>2026-05-04T14:54:39.832Z</time>
      </trkpt>
      <trkpt lat="50.450902" lon="8.856668">
        <ele>148.128981</ele>
        <time>2026-05-04T14:54:54.318Z</time>
      </trkpt>
      <trkpt lat="50.450570" lon="8.859236">
        <ele>147.522154</ele>
        <time>2026-05-04T14:55:11.856Z</time>
      </trkpt>
      <trkpt lat="50.450139" lon="8.861111">
        <ele>147.345689</ele>
        <time>2026-05-04T14:55:25.598Z</time>
      </trkpt>
      <trkpt lat="50.449889" lon="8.862153">
        <ele>147.829373</ele>
        <time>2026-05-04T14:55:35.771Z</time>
      </trkpt>
      <trkpt lat="50.449600" lon="8.863360">
        <ele>148.404279</ele>
        <time>2026-05-04T14:55:48.498Z</time>
      </trkpt>
      <trkpt lat="50.449164" lon="8.865235">
        <ele>149.896345</ele>
        <time>2026-05-04T14:56:07.977Z</time>
      </trkpt>
      <trkpt lat="50.448970" lon="8.866082">
        <ele>150.563876</ele>
        <time>2026-05-04T14:56:17.127Z</time>
      </trkpt>
      <trkpt lat="50.448813" lon="8.867015">
        <ele>151.242104</ele>
        <time>2026-05-04T14:56:27.449Z</time>
      </trkpt>
      <trkpt lat="50.448358" lon="8.870733">
        <ele>152.693841</ele>
        <time>2026-05-04T14:57:02.817Z</time>
      </trkpt>
      <trkpt lat="50.445770" lon="8.869926">
        <ele>149.981119</ele>
        <time>2026-05-04T14:57:37.823Z</time>
      </trkpt>
      <trkpt lat="50.444775" lon="8.869591">
        <ele>148.985680</ele>
        <time>2026-05-04T14:57:51.597Z</time>
      </trkpt>
      <trkpt lat="50.444187" lon="8.869304">
        <ele>148.619482</ele>
        <time>2026-05-04T14:58:00.782Z</time>
      </trkpt>
      <trkpt lat="50.443258" lon="8.868850">
        <ele>148.956598</ele>
        <time>2026-05-04T14:58:17.792Z</time>
      </trkpt>
      <trkpt lat="50.442513" lon="8.871607">
        <ele>149.653222</ele>
        <time>2026-05-04T14:58:44.868Z</time>
      </trkpt>
      <trkpt lat="50.441251" lon="8.876157">
        <ele>148.665094</ele>
        <time>2026-05-04T14:59:19.184Z</time>
      </trkpt>
      <trkpt lat="50.441223" lon="8.876258">
        <ele>148.618387</ele>
        <time>2026-05-04T14:59:19.898Z</time>
      </trkpt>
      <trkpt lat="50.440821" lon="8.877723">
        <ele>147.873279</ele>
        <time>2026-05-04T14:59:29.990Z</time>
      </trkpt>
      <trkpt lat="50.439568" lon="8.882398">
        <ele>143.612862</ele>
        <time>2026-05-04T15:00:00.221Z</time>
      </trkpt>
      <trkpt lat="50.439322" lon="8.883309">
        <ele>142.991074</ele>
        <time>2026-05-04T15:00:06.074Z</time>
      </trkpt>
      <trkpt lat="50.439236" lon="8.883542">
        <ele>142.865014</ele>
        <time>2026-05-04T15:00:07.691Z</time>
      </trkpt>
      <trkpt lat="50.438826" lon="8.884659">
        <ele>142.261520</ele>
        <time>2026-05-04T15:00:16.306Z</time>
      </trkpt>
      <trkpt lat="50.438490" lon="8.884448">
        <ele>141.995548</ele>
        <time>2026-05-04T15:00:20.375Z</time>
      </trkpt>
      <trkpt lat="50.438158" lon="8.884310">
        <ele>141.778578</ele>
        <time>2026-05-04T15:00:24.270Z</time>
      </trkpt>
      <trkpt lat="50.437425" lon="8.884062">
        <ele>141.324771</ele>
        <time>2026-05-04T15:00:32.679Z</time>
      </trkpt>
      <trkpt lat="50.437144" lon="8.883937">
        <ele>141.148011</ele>
        <time>2026-05-04T15:00:35.736Z</time>
      </trkpt>
      <trkpt lat="50.436943" lon="8.884573">
        <ele>140.874326</ele>
        <time>2026-05-04T15:00:40.030Z</time>
      </trkpt>
      <trkpt lat="50.436604" lon="8.885410">
        <ele>139.898349</ele>
        <time>2026-05-04T15:00:45.891Z</time>
      </trkpt>
      <trkpt lat="50.436561" lon="8.885625">
        <ele>139.669568</ele>
        <time>2026-05-04T15:00:47.201Z</time>
      </trkpt>
      <trkpt lat="50.436572" lon="8.885867">
        <ele>139.423259</ele>
        <time>2026-05-04T15:00:48.600Z</time>
      </trkpt>
      <trkpt lat="50.436576" lon="8.885927">
        <ele>139.362013</ele>
        <time>2026-05-04T15:00:48.947Z</time>
      </trkpt>
      <trkpt lat="50.436550" lon="8.886058">
        <ele>139.222712</ele>
        <time>2026-05-04T15:00:49.737Z</time>
      </trkpt>
      <trkpt lat="50.436382" lon="8.886388">
        <ele>138.793821</ele>
        <time>2026-05-04T15:00:52.154Z</time>
      </trkpt>
      <trkpt lat="50.436197" lon="8.886750">
        <ele>138.322634</ele>
        <time>2026-05-04T15:00:54.810Z</time>
      </trkpt>
      <trkpt lat="50.436111" lon="8.886994">
        <ele>138.039519</ele>
        <time>2026-05-04T15:00:56.408Z</time>
      </trkpt>
      <trkpt lat="50.435996" lon="8.887631">
        <ele>137.053693</ele>
        <time>2026-05-04T15:01:00.164Z</time>
      </trkpt>
      <trkpt lat="50.435979" lon="8.888174">
        <ele>136.223034</ele>
        <time>2026-05-04T15:01:03.162Z</time>
      </trkpt>
      <trkpt lat="50.435990" lon="8.888620">
        <ele>135.541073</ele>
        <time>2026-05-04T15:01:05.588Z</time>
      </trkpt>
      <trkpt lat="50.436023" lon="8.888955">
        <ele>135.023136</ele>
        <time>2026-05-04T15:01:07.411Z</time>
      </trkpt>
      <trkpt lat="50.436051" lon="8.889806">
        <ele>133.721149</ele>
        <time>2026-05-04T15:01:11.900Z</time>
      </trkpt>
      <trkpt lat="50.436109" lon="8.890821">
        <ele>132.087772</ele>
        <time>2026-05-04T15:01:17.177Z</time>
      </trkpt>
      <trkpt lat="50.436158" lon="8.891739">
        <ele>130.609082</ele>
        <time>2026-05-04T15:01:22.063Z</time>
      </trkpt>
      <trkpt lat="50.436340" lon="8.893002">
        <ele>128.912114</ele>
        <time>2026-05-04T15:01:29.372Z</time>
      </trkpt>
      <trkpt lat="50.436360" lon="8.893341">
        <ele>128.707201</ele>
        <time>2026-05-04T15:01:31.425Z</time>
      </trkpt>
      <trkpt lat="50.436276" lon="8.893923">
        <ele>128.348023</ele>
        <time>2026-05-04T15:01:35.161Z</time>
      </trkpt>
      <trkpt lat="50.436122" lon="8.894506">
        <ele>127.968143</ele>
        <time>2026-05-04T15:01:39.239Z</time>
      </trkpt>
      <trkpt lat="50.435668" lon="8.895845">
        <ele>127.363760</ele>
        <time>2026-05-04T15:01:49.704Z</time>
      </trkpt>
      <trkpt lat="50.435569" lon="8.896196">
        <ele>127.317337</ele>
        <time>2026-05-04T15:01:52.497Z</time>
      </trkpt>
      <trkpt lat="50.435478" lon="8.896516">
        <ele>127.274957</ele>
        <time>2026-05-04T15:01:55.061Z</time>
      </trkpt>
      <trkpt lat="50.435395" lon="8.896880">
        <ele>127.228201</ele>
        <time>2026-05-04T15:01:57.899Z</time>
      </trkpt>
      <trkpt lat="50.435377" lon="8.896944">
        <ele>127.219741</ele>
        <time>2026-05-04T15:01:58.422Z</time>
      </trkpt>
      <trkpt lat="50.433519" lon="8.903470">
        <ele>126.674793</ele>
        <time>2026-05-04T15:02:50.483Z</time>
      </trkpt>
      <trkpt lat="50.433477" lon="8.903655">
        <ele>126.708392</ele>
        <time>2026-05-04T15:02:51.994Z</time>
      </trkpt>
      <trkpt lat="50.432776" lon="8.906831">
        <ele>127.918761</ele>
        <time>2026-05-04T15:03:29.531Z</time>
      </trkpt>
      <trkpt lat="50.432369" lon="8.909164">
        <ele>129.990621</ele>
        <time>2026-05-04T15:04:02.165Z</time>
      </trkpt>
      <trkpt lat="50.432071" lon="8.910355">
        <ele>131.507337</ele>
        <time>2026-05-04T15:04:21.200Z</time>
      </trkpt>
      <trkpt lat="50.431831" lon="8.911459">
        <ele>132.619975</ele>
        <time>2026-05-04T15:04:37.357Z</time>
      </trkpt>
      <trkpt lat="50.431463" lon="8.913482">
        <ele>133.881300</ele>
        <time>2026-05-04T15:05:01.900Z</time>
      </trkpt>
      <trkpt lat="50.431335" lon="8.914573">
        <ele>134.459616</ele>
        <time>2026-05-04T15:05:15.077Z</time>
      </trkpt>
      <trkpt lat="50.431327" lon="8.914674">
        <ele>134.510252</ele>
        <time>2026-05-04T15:05:16.361Z</time>
      </trkpt>
      <trkpt lat="50.431242" lon="8.915710">
        <ele>135.029940</ele>
        <time>2026-05-04T15:05:29.284Z</time>
      </trkpt>
      <trkpt lat="50.431210" lon="8.916259">
        <ele>135.304219</ele>
        <time>2026-05-04T15:05:36.000Z</time>
      </trkpt>
      <trkpt lat="50.430862" lon="8.915993">
        <ele>135.406353</ele>
        <time>2026-05-04T15:05:41.455Z</time>
      </trkpt>
      <trkpt lat="50.430017" lon="8.915362">
        <ele>135.252241</ele>
        <time>2026-05-04T15:05:52.294Z</time>
      </trkpt>
      <trkpt lat="50.429532" lon="8.914996">
        <ele>135.163612</ele>
        <time>2026-05-04T15:05:57.870Z</time>
      </trkpt>
      <trkpt lat="50.427054" lon="8.913147">
        <ele>133.042754</ele>
        <time>2026-05-04T15:06:24.905Z</time>
      </trkpt>
      <trkpt lat="50.425762" lon="8.912190">
        <ele>133.630923</ele>
        <time>2026-05-04T15:06:40.429Z</time>
      </trkpt>
      <trkpt lat="50.424662" lon="8.911360">
        <ele>136.555445</ele>
        <time>2026-05-04T15:07:05.438Z</time>
      </trkpt>
      <trkpt lat="50.423902" lon="8.910839">
        <ele>139.569708</ele>
        <time>2026-05-04T15:07:32.132Z</time>
      </trkpt>
      <trkpt lat="50.423695" lon="8.910735">
        <ele>140.403547</ele>
        <time>2026-05-04T15:07:38.752Z</time>
      </trkpt>
      <trkpt lat="50.423301" lon="8.910591">
        <ele>141.955550</ele>
        <time>2026-05-04T15:07:50.157Z</time>
      </trkpt>
      <trkpt lat="50.422350" lon="8.910333">
        <ele>141.736461</ele>
        <time>2026-05-04T15:08:03.014Z</time>
      </trkpt>
      <trkpt lat="50.421784" lon="8.910019">
        <ele>139.344588</ele>
        <time>2026-05-04T15:08:07.465Z</time>
      </trkpt>
      <trkpt lat="50.421276" lon="8.909623">
        <ele>137.084639</ele>
        <time>2026-05-04T15:08:11.550Z</time>
      </trkpt>
      <trkpt lat="50.420751" lon="8.909259">
        <ele>134.916486</ele>
        <time>2026-05-04T15:08:15.729Z</time>
      </trkpt>
      <trkpt lat="50.420356" lon="8.909079">
        <ele>133.387516</ele>
        <time>2026-05-04T15:08:18.859Z</time>
      </trkpt>
      <trkpt lat="50.420008" lon="8.908993">
        <ele>132.077960</ele>
        <time>2026-05-04T15:08:21.715Z</time>
      </trkpt>
      <trkpt lat="50.419462" lon="8.908922">
        <ele>130.041362</ele>
        <time>2026-05-04T15:08:26.503Z</time>
      </trkpt>
      <trkpt lat="50.417381" lon="8.908678">
        <ele>130.234434</ele>
        <time>2026-05-04T15:08:52.288Z</time>
      </trkpt>
      <trkpt lat="50.416700" lon="8.908566">
        <ele>131.339330</ele>
        <time>2026-05-04T15:09:03.838Z</time>
      </trkpt>
      <trkpt lat="50.416122" lon="8.908504">
        <ele>132.274181</ele>
        <time>2026-05-04T15:09:14.976Z</time>
      </trkpt>
      <trkpt lat="50.415743" lon="8.908522">
        <ele>132.862024</ele>
        <time>2026-05-04T15:09:22.311Z</time>
      </trkpt>
      <trkpt lat="50.415475" lon="8.908478">
        <ele>133.224858</ele>
        <time>2026-05-04T15:09:27.387Z</time>
      </trkpt>
      <trkpt lat="50.415350" lon="8.908495">
        <ele>133.393803</ele>
        <time>2026-05-04T15:09:29.692Z</time>
      </trkpt>
      <trkpt lat="50.415120" lon="8.908571">
        <ele>133.710291</ele>
        <time>2026-05-04T15:09:33.847Z</time>
      </trkpt>
      <trkpt lat="50.414988" lon="8.908656">
        <ele>133.902412</ele>
        <time>2026-05-04T15:09:36.288Z</time>
      </trkpt>
      <trkpt lat="50.413861" lon="8.909027">
        <ele>135.056199</ele>
        <time>2026-05-04T15:09:53.147Z</time>
      </trkpt>
      <trkpt lat="50.412832" lon="8.909366">
        <ele>134.535202</ele>
        <time>2026-05-04T15:10:04.758Z</time>
      </trkpt>
      <trkpt lat="50.410281" lon="8.910211">
        <ele>131.122366</ele>
        <time>2026-05-04T15:10:28.379Z</time>
      </trkpt>
      <trkpt lat="50.410237" lon="8.910015">
        <ele>130.989556</ele>
        <time>2026-05-04T15:10:29.639Z</time>
      </trkpt>
      <trkpt lat="50.410138" lon="8.909645">
        <ele>130.733089</ele>
        <time>2026-05-04T15:10:32.108Z</time>
      </trkpt>
      <trkpt lat="50.410237" lon="8.910015">
        <ele>130.476621</ele>
        <time>2026-05-04T15:10:34.636Z</time>
      </trkpt>
      <trkpt lat="50.410281" lon="8.910211">
        <ele>130.343811</ele>
        <time>2026-05-04T15:10:35.968Z</time>
      </trkpt>
      <trkpt lat="50.410175" lon="8.910246">
        <ele>130.235180</ele>
        <time>2026-05-04T15:10:37.053Z</time>
      </trkpt>
      <trkpt lat="50.409959" lon="8.910316">
        <ele>130.013991</ele>
        <time>2026-05-04T15:10:39.319Z</time>
      </trkpt>
      <trkpt lat="50.408161" lon="8.910921">
        <ele>129.019098</ele>
        <time>2026-05-04T15:10:58.556Z</time>
      </trkpt>
      <trkpt lat="50.406393" lon="8.911509">
        <ele>128.682249</ele>
        <time>2026-05-04T15:11:20.438Z</time>
      </trkpt>
      <trkpt lat="50.405744" lon="8.911588">
        <ele>128.317064</ele>
        <time>2026-05-04T15:11:27.393Z</time>
      </trkpt>
      <trkpt lat="50.405425" lon="8.911541">
        <ele>127.957382</ele>
        <time>2026-05-04T15:11:30.504Z</time>
      </trkpt>
      <trkpt lat="50.405165" lon="8.911459">
        <ele>127.659669</ele>
        <time>2026-05-04T15:11:33.026Z</time>
      </trkpt>
      <trkpt lat="50.404921" lon="8.911331">
        <ele>127.370852</ele>
        <time>2026-05-04T15:11:35.417Z</time>
      </trkpt>
      <trkpt lat="50.404641" lon="8.911128">
        <ele>127.024590</ele>
        <time>2026-05-04T15:11:38.204Z</time>
      </trkpt>
      <trkpt lat="50.404295" lon="8.910745">
        <ele>126.580325</ele>
        <time>2026-05-04T15:11:42.046Z</time>
      </trkpt>
      <trkpt lat="50.403824" lon="8.910054">
        <ele>126.194652</ele>
        <time>2026-05-04T15:11:48.323Z</time>
      </trkpt>
      <trkpt lat="50.402394" lon="8.907744">
        <ele>125.390601</ele>
        <time>2026-05-04T15:12:11.851Z</time>
      </trkpt>
      <trkpt lat="50.401984" lon="8.906997">
        <ele>125.292597</ele>
        <time>2026-05-04T15:12:19.163Z</time>
      </trkpt>
      <trkpt lat="50.401542" lon="8.906123">
        <ele>125.155427</ele>
        <time>2026-05-04T15:12:26.748Z</time>
      </trkpt>
      <trkpt lat="50.401143" lon="8.905393">
        <ele>125.027562</ele>
        <time>2026-05-04T15:12:33.601Z</time>
      </trkpt>
      <trkpt lat="50.400819" lon="8.904958">
        <ele>124.938604</ele>
        <time>2026-05-04T15:12:38.405Z</time>
      </trkpt>
      <trkpt lat="50.400431" lon="8.904644">
        <ele>124.941327</ele>
        <time>2026-05-04T15:12:43.441Z</time>
      </trkpt>
      <trkpt lat="50.398709" lon="8.903817">
        <ele>125.542740</ele>
        <time>2026-05-04T15:13:07.150Z</time>
      </trkpt>
      <trkpt lat="50.398437" lon="8.903660">
        <ele>125.665884</ele>
        <time>2026-05-04T15:13:11.048Z</time>
      </trkpt>
      <trkpt lat="50.397429" lon="8.903002">
        <ele>126.129771</ele>
        <time>2026-05-04T15:13:25.898Z</time>
      </trkpt>
      <trkpt lat="50.397228" lon="8.902943">
        <ele>126.216656</ele>
        <time>2026-05-04T15:13:28.376Z</time>
      </trkpt>
      <trkpt lat="50.396863" lon="8.902919">
        <ele>126.168954</ele>
        <time>2026-05-04T15:13:32.715Z</time>
      </trkpt>
      <trkpt lat="50.396706" lon="8.902865">
        <ele>126.138751</ele>
        <time>2026-05-04T15:13:34.602Z</time>
      </trkpt>
      <trkpt lat="50.396465" lon="8.902727">
        <ele>126.090541</ele>
        <time>2026-05-04T15:13:37.632Z</time>
      </trkpt>
      <trkpt lat="50.395913" lon="8.902397">
        <ele>125.979537</ele>
        <time>2026-05-04T15:13:44.156Z</time>
      </trkpt>
      <trkpt lat="50.395599" lon="8.902213">
        <ele>125.916551</ele>
        <time>2026-05-04T15:13:47.687Z</time>
      </trkpt>
      <trkpt lat="50.395406" lon="8.902098">
        <ele>125.872802</ele>
        <time>2026-05-04T15:13:49.915Z</time>
      </trkpt>
      <trkpt lat="50.395301" lon="8.902034">
        <ele>125.844840</ele>
        <time>2026-05-04T15:13:51.134Z</time>
      </trkpt>
      <trkpt lat="50.395036" lon="8.901865">
        <ele>125.773835</ele>
        <time>2026-05-04T15:13:54.286Z</time>
      </trkpt>
      <trkpt lat="50.394619" lon="8.901496">
        <ele>125.654996</ele>
        <time>2026-05-04T15:13:59.649Z</time>
      </trkpt>
      <trkpt lat="50.393270" lon="8.900043">
        <ele>125.336645</ele>
        <time>2026-05-04T15:14:18.349Z</time>
      </trkpt>
      <trkpt lat="50.393148" lon="8.899911">
        <ele>125.316183</ele>
        <time>2026-05-04T15:14:20.037Z</time>
      </trkpt>
      <trkpt lat="50.392775" lon="8.899519">
        <ele>125.254193</ele>
        <time>2026-05-04T15:14:25.140Z</time>
      </trkpt>
      <trkpt lat="50.392373" lon="8.899209">
        <ele>125.205264</ele>
        <time>2026-05-04T15:14:30.232Z</time>
      </trkpt>
      <trkpt lat="50.391988" lon="8.899070">
        <ele>125.266986</ele>
        <time>2026-05-04T15:14:34.798Z</time>
      </trkpt>
      <trkpt lat="50.391106" lon="8.898924">
        <ele>125.405548</ele>
        <time>2026-05-04T15:14:46.022Z</time>
      </trkpt>
      <trkpt lat="50.390886" lon="8.898847">
        <ele>125.440764</ele>
        <time>2026-05-04T15:14:48.947Z</time>
      </trkpt>
      <trkpt lat="50.390697" lon="8.898733">
        <ele>125.472400</ele>
        <time>2026-05-04T15:14:51.428Z</time>
      </trkpt>
      <trkpt lat="50.390355" lon="8.898414">
        <ele>125.455282</ele>
        <time>2026-05-04T15:14:56.392Z</time>
      </trkpt>
      <trkpt lat="50.390233" lon="8.898245">
        <ele>125.444156</ele>
        <time>2026-05-04T15:14:58.527Z</time>
      </trkpt>
      <trkpt lat="50.390207" lon="8.898209">
        <ele>125.441786</ele>
        <time>2026-05-04T15:14:58.999Z</time>
      </trkpt>
      <trkpt lat="50.390051" lon="8.897910">
        <ele>125.424950</ele>
        <time>2026-05-04T15:15:02.114Z</time>
      </trkpt>
      <trkpt lat="50.389901" lon="8.897529">
        <ele>125.405437</ele>
        <time>2026-05-04T15:15:05.452Z</time>
      </trkpt>
      <trkpt lat="50.389691" lon="8.896853">
        <ele>125.372668</ele>
        <time>2026-05-04T15:15:10.688Z</time>
      </trkpt>
      <trkpt lat="50.389669" lon="8.896674">
        <ele>125.364724</ele>
        <time>2026-05-04T15:15:11.933Z</time>
      </trkpt>
      <trkpt lat="50.389723" lon="8.896434">
        <ele>125.329156</ele>
        <time>2026-05-04T15:15:13.631Z</time>
      </trkpt>
      <trkpt lat="50.390045" lon="8.895815">
        <ele>124.994427</ele>
        <time>2026-05-04T15:15:18.996Z</time>
      </trkpt>
      <trkpt lat="50.390327" lon="8.895265">
        <ele>124.698710</ele>
        <time>2026-05-04T15:15:23.537Z</time>
      </trkpt>
      <trkpt lat="50.390557" lon="8.894808">
        <ele>124.454765</ele>
        <time>2026-05-04T15:15:27.162Z</time>
      </trkpt>
      <trkpt lat="50.390572" lon="8.894779">
        <ele>124.439119</ele>
        <time>2026-05-04T15:15:27.396Z</time>
      </trkpt>
      <trkpt lat="50.390617" lon="8.894686">
        <ele>124.390202</ele>
        <time>2026-05-04T15:15:28.142Z</time>
      </trkpt>
      <trkpt lat="50.390632" lon="8.894655">
        <ele>124.373897</ele>
        <time>2026-05-04T15:15:28.392Z</time>
      </trkpt>
      <trkpt lat="50.390642" lon="8.894635">
        <ele>124.363247</ele>
        <time>2026-05-04T15:15:28.557Z</time>
      </trkpt>
      <trkpt lat="50.391056" lon="8.893759">
        <ele>124.298065</ele>
        <time>2026-05-04T15:15:35.908Z</time>
      </trkpt>
      <trkpt lat="50.391163" lon="8.893547">
        <ele>124.350304</ele>
        <time>2026-05-04T15:15:38.644Z</time>
      </trkpt>
      <trkpt lat="50.391221" lon="8.893427">
        <ele>124.379397</ele>
        <time>2026-05-04T15:15:39.793Z</time>
      </trkpt>
      <trkpt lat="50.391406" lon="8.893050">
        <ele>124.471309</ele>
        <time>2026-05-04T15:15:43.677Z</time>
      </trkpt>
      <trkpt lat="50.391778" lon="8.892276">
        <ele>124.658573</ele>
        <time>2026-05-04T15:15:52.233Z</time>
      </trkpt>
      <trkpt lat="50.391841" lon="8.892128">
        <ele>124.692954</ele>
        <time>2026-05-04T15:15:53.947Z</time>
      </trkpt>
      <trkpt lat="50.391949" lon="8.891863">
        <ele>124.928133</ele>
        <time>2026-05-04T15:15:57.107Z</time>
      </trkpt>
      <trkpt lat="50.392164" lon="8.891315">
        <ele>125.686135</ele>
        <time>2026-05-04T15:16:05.844Z</time>
      </trkpt>
      <trkpt lat="50.392229" lon="8.891150">
        <ele>125.914621</ele>
        <time>2026-05-04T15:16:08.533Z</time>
      </trkpt>
      <trkpt lat="50.392334" lon="8.890852">
        <ele>126.315716</ele>
        <time>2026-05-04T15:16:13.342Z</time>
      </trkpt>
      <trkpt lat="50.392361" lon="8.890709">
        <ele>126.491404</ele>
        <time>2026-05-04T15:16:15.498Z</time>
      </trkpt>
      <trkpt lat="50.392388" lon="8.890448">
        <ele>126.802887</ele>
        <time>2026-05-04T15:16:19.338Z</time>
      </trkpt>
      <trkpt lat="50.392394" lon="8.889957">
        <ele>127.381396</ele>
        <time>2026-05-04T15:16:26.600Z</time>
      </trkpt>
      <trkpt lat="50.392513" lon="8.888354">
        <ele>129.047360</ele>
        <time>2026-05-04T15:16:50.973Z</time>
      </trkpt>
      <trkpt lat="50.392526" lon="8.887940">
        <ele>129.443015</ele>
        <time>2026-05-04T15:16:56.879Z</time>
      </trkpt>
      <trkpt lat="50.392493" lon="8.887463">
        <ele>129.900999</ele>
        <time>2026-05-04T15:17:03.226Z</time>
      </trkpt>
      <trkpt lat="50.392446" lon="8.887405">
        <ele>129.990537</ele>
        <time>2026-05-04T15:17:04.372Z</time>
      </trkpt>
      <trkpt lat="50.392310" lon="8.887238">
        <ele>130.249136</ele>
        <time>2026-05-04T15:17:07.630Z</time>
      </trkpt>
      <trkpt lat="50.391971" lon="8.886933">
        <ele>130.725504</ele>
        <time>2026-05-04T15:17:14.401Z</time>
      </trkpt>
      <trkpt lat="50.391948" lon="8.886914">
        <ele>130.721342</ele>
        <time>2026-05-04T15:17:14.827Z</time>
      </trkpt>
      <trkpt lat="50.391793" lon="8.886788">
        <ele>130.693388</ele>
        <time>2026-05-04T15:17:17.690Z</time>
      </trkpt>
      <trkpt lat="50.391729" lon="8.886737">
        <ele>130.681894</ele>
        <time>2026-05-04T15:17:18.843Z</time>
      </trkpt>
      <trkpt lat="50.391153" lon="8.886326">
        <ele>130.580571</ele>
        <time>2026-05-04T15:17:28.835Z</time>
      </trkpt>
      <trkpt lat="50.391119" lon="8.886301">
        <ele>130.574559</ele>
        <time>2026-05-04T15:17:29.452Z</time>
      </trkpt>
      <trkpt lat="50.390518" lon="8.885821">
        <ele>130.466571</ele>
        <time>2026-05-04T15:17:39.758Z</time>
      </trkpt>
      <trkpt lat="50.389955" lon="8.885400">
        <ele>130.145558</ele>
        <time>2026-05-04T15:17:46.136Z</time>
      </trkpt>
      <trkpt lat="50.389514" lon="8.885149">
        <ele>129.866144</ele>
        <time>2026-05-04T15:17:50.684Z</time>
      </trkpt>
      <trkpt lat="50.388762" lon="8.884972">
        <ele>129.413245</ele>
        <time>2026-05-04T15:17:58.384Z</time>
      </trkpt>
      <trkpt lat="50.388779" lon="8.884868">
        <ele>129.382862</ele>
        <time>2026-05-04T15:17:59.437Z</time>
      </trkpt>
      <trkpt lat="50.389006" lon="8.883494">
        <ele>130.150241</ele>
        <time>2026-05-04T15:18:15.751Z</time>
      </trkpt>
      <trkpt lat="50.389021" lon="8.883416">
        <ele>130.194288</ele>
        <time>2026-05-04T15:18:16.828Z</time>
      </trkpt>
      <trkpt lat="50.389474" lon="8.882608">
        <ele>130.775996</ele>
        <time>2026-05-04T15:18:31.414Z</time>
      </trkpt>
      <trkpt lat="50.390250" lon="8.881336">
        <ele>131.718403</ele>
        <time>2026-05-04T15:18:53.917Z</time>
      </trkpt>
      <trkpt lat="50.390484" lon="8.880887">
        <ele>132.028363</ele>
        <time>2026-05-04T15:19:00.737Z</time>
      </trkpt>
      <trkpt lat="50.390677" lon="8.880567">
        <ele>132.263801</ele>
        <time>2026-05-04T15:19:05.703Z</time>
      </trkpt>
      <trkpt lat="50.391011" lon="8.880011">
        <ele>132.174618</ele>
        <time>2026-05-04T15:19:13.684Z</time>
      </trkpt>
      <trkpt lat="50.391045" lon="8.879953">
        <ele>132.136853</ele>
        <time>2026-05-04T15:19:14.484Z</time>
      </trkpt>
      <trkpt lat="50.391181" lon="8.879741">
        <ele>131.992703</ele>
        <time>2026-05-04T15:19:17.437Z</time>
      </trkpt>
      <trkpt lat="50.391856" lon="8.878674">
        <ele>131.272240</ele>
        <time>2026-05-04T15:19:30.998Z</time>
      </trkpt>
      <trkpt lat="50.392083" lon="8.878314">
        <ele>130.982534</ele>
        <time>2026-05-04T15:19:35.217Z</time>
      </trkpt>
      <trkpt lat="50.391583" lon="8.874911">
        <ele>126.723002</ele>
        <time>2026-05-04T15:20:02.968Z</time>
      </trkpt>
      <trkpt lat="50.391270" lon="8.872723">
        <ele>124.665615</ele>
        <time>2026-05-04T15:20:21.846Z</time>
      </trkpt>
      <trkpt lat="50.391038" lon="8.871096">
        <ele>124.608085</ele>
        <time>2026-05-04T15:20:38.303Z</time>
      </trkpt>
      <trkpt lat="50.390958" lon="8.870095">
        <ele>124.576056</ele>
        <time>2026-05-04T15:20:49.948Z</time>
      </trkpt>
      <trkpt lat="50.390834" lon="8.868526">
        <ele>125.325493</ele>
        <time>2026-05-04T15:21:09.178Z</time>
      </trkpt>
      <trkpt lat="50.390645" lon="8.866145">
        <ele>126.207810</ele>
        <time>2026-05-04T15:21:37.338Z</time>
      </trkpt>
      <trkpt lat="50.392479" lon="8.865928">
        <ele>126.870451</ele>
        <time>2026-05-04T15:22:08.254Z</time>
      </trkpt>
      <trkpt lat="50.394340" lon="8.865708">
        <ele>128.596517</ele>
        <time>2026-05-04T15:22:40.614Z</time>
      </trkpt>
      <trkpt lat="50.393740" lon="8.857192">
        <ele>137.660894</ele>
        <time>2026-05-04T15:24:42.174Z</time>
      </trkpt>
      <trkpt lat="50.393542" lon="8.854351">
        <ele>140.057455</ele>
        <time>2026-05-04T15:25:19.820Z</time>
      </trkpt>
      <trkpt lat="50.393146" lon="8.848721">
        <ele>141.916876</ele>
        <time>2026-05-04T15:26:25.263Z</time>
      </trkpt>
      <trkpt lat="50.392858" lon="8.844800">
        <ele>140.356008</ele>
        <time>2026-05-04T15:27:00.577Z</time>
      </trkpt>
      <trkpt lat="50.392713" lon="8.842819">
        <ele>140.223701</ele>
        <time>2026-05-04T15:27:18.856Z</time>
      </trkpt>
      <trkpt lat="50.390790" lon="8.843063">
        <ele>141.412127</ele>
        <time>2026-05-04T15:27:57.260Z</time>
      </trkpt>
      <trkpt lat="50.390740" lon="8.840612">
        <ele>142.246689</ele>
        <time>2026-05-04T15:28:24.756Z</time>
      </trkpt>
      <trkpt lat="50.390690" lon="8.838162">
        <ele>142.724128</ele>
        <time>2026-05-04T15:28:50.795Z</time>
      </trkpt>
      <trkpt lat="50.390559" lon="8.830523">
        <ele>144.072436</ele>
        <time>2026-05-04T15:30:14.743Z</time>
      </trkpt>
      <trkpt lat="50.390569" lon="8.828668">
        <ele>144.145965</ele>
        <time>2026-05-04T15:30:33.309Z</time>
      </trkpt>
      <trkpt lat="50.390588" lon="8.826040">
        <ele>144.748199</ele>
        <time>2026-05-04T15:31:02.456Z</time>
      </trkpt>
      <trkpt lat="50.390717" lon="8.822975">
        <ele>145.858736</ele>
        <time>2026-05-04T15:31:38.552Z</time>
      </trkpt>
      <trkpt lat="50.390937" lon="8.817965">
        <ele>147.213181</ele>
        <time>2026-05-04T15:32:33.245Z</time>
      </trkpt>
      <trkpt lat="50.391157" lon="8.813288">
        <ele>150.067577</ele>
        <time>2026-05-04T15:33:30.953Z</time>
      </trkpt>
      <trkpt lat="50.391135" lon="8.813193">
        <ele>150.153870</ele>
        <time>2026-05-04T15:33:31.983Z</time>
      </trkpt>
      <trkpt lat="50.391140" lon="8.813107">
        <ele>150.227599</ele>
        <time>2026-05-04T15:33:32.859Z</time>
      </trkpt>
      <trkpt lat="50.391219" lon="8.812640">
        <ele>150.640105</ele>
        <time>2026-05-04T15:33:37.754Z</time>
      </trkpt>
      <trkpt lat="50.391228" lon="8.812540">
        <ele>150.726329</ele>
        <time>2026-05-04T15:33:38.780Z</time>
      </trkpt>
      <trkpt lat="50.391324" lon="8.811199">
        <ele>151.931543</ele>
        <time>2026-05-04T15:33:53.265Z</time>
      </trkpt>
      <trkpt lat="50.391386" lon="8.810348">
        <ele>153.247255</ele>
        <time>2026-05-04T15:34:02.918Z</time>
      </trkpt>
      <trkpt lat="50.391520" lon="8.808456">
        <ele>156.171239</ele>
        <time>2026-05-04T15:34:27.829Z</time>
      </trkpt>
      <trkpt lat="50.391535" lon="8.808239">
        <ele>156.504551</ele>
        <time>2026-05-04T15:34:30.897Z</time>
      </trkpt>
      <trkpt lat="50.391535" lon="8.807967">
        <ele>156.919908</ele>
        <time>2026-05-04T15:34:34.676Z</time>
      </trkpt>
      <trkpt lat="50.391433" lon="8.807289">
        <ele>157.983683</ele>
        <time>2026-05-04T15:34:44.063Z</time>
      </trkpt>
      <trkpt lat="50.391492" lon="8.807235">
        <ele>158.147300</ele>
        <time>2026-05-04T15:34:45.493Z</time>
      </trkpt>
      <trkpt lat="50.391532" lon="8.807146">
        <ele>158.313584</ele>
        <time>2026-05-04T15:34:46.903Z</time>
      </trkpt>
      <trkpt lat="50.391538" lon="8.806986">
        <ele>158.558334</ele>
        <time>2026-05-04T15:34:48.999Z</time>
      </trkpt>
      <trkpt lat="50.391993" lon="8.806784">
        <ele>159.690974</ele>
        <time>2026-05-04T15:35:00.352Z</time>
      </trkpt>
      <trkpt lat="50.392191" lon="8.806660">
        <ele>160.201633</ele>
        <time>2026-05-04T15:35:05.004Z</time>
      </trkpt>
      <trkpt lat="50.392902" lon="8.806099">
        <ele>161.206367</ele>
        <time>2026-05-04T15:35:20.187Z</time>
      </trkpt>
      <trkpt lat="50.393229" lon="8.805830">
        <ele>161.608751</ele>
        <time>2026-05-04T15:35:27.063Z</time>
      </trkpt>
      <trkpt lat="50.393727" lon="8.805430">
        <ele>162.218464</ele>
        <time>2026-05-04T15:35:37.546Z</time>
      </trkpt>
      <trkpt lat="50.393877" lon="8.805310">
        <ele>162.401959</ele>
        <time>2026-05-04T15:35:40.851Z</time>
      </trkpt>
      <trkpt lat="50.394156" lon="8.805073">
        <ele>163.257812</ele>
        <time>2026-05-04T15:35:47.474Z</time>
      </trkpt>
      <trkpt lat="50.394536" lon="8.804675">
        <ele>164.516455</ele>
        <time>2026-05-04T15:35:58.296Z</time>
      </trkpt>
      <trkpt lat="50.394605" lon="8.804519">
        <ele>164.849881</ele>
        <time>2026-05-04T15:36:00.865Z</time>
      </trkpt>
      <trkpt lat="50.394698" lon="8.804196">
        <ele>165.472258</ele>
        <time>2026-05-04T15:36:05.714Z</time>
      </trkpt>
      <trkpt lat="50.394798" lon="8.803702">
        <ele>166.382435</ele>
        <time>2026-05-04T15:36:12.970Z</time>
      </trkpt>
      <trkpt lat="50.394890" lon="8.802905">
        <ele>168.231640</ele>
        <time>2026-05-04T15:36:25.315Z</time>
      </trkpt>
      <trkpt lat="50.394968" lon="8.802507">
        <ele>169.678137</ele>
        <time>2026-05-04T15:36:32.445Z</time>
      </trkpt>
      <trkpt lat="50.395176" lon="8.801754">
        <ele>172.529034</ele>
        <time>2026-05-04T15:36:47.788Z</time>
      </trkpt>
      <trkpt lat="50.395245" lon="8.801538">
        <ele>173.368343</ele>
        <time>2026-05-04T15:36:52.537Z</time>
      </trkpt>
      <trkpt lat="50.395378" lon="8.801038">
        <ele>175.250455</ele>
        <time>2026-05-04T15:37:03.297Z</time>
      </trkpt>
      <trkpt lat="50.395552" lon="8.800060">
        <ele>178.714375</ele>
        <time>2026-05-04T15:37:24.675Z</time>
      </trkpt>
      <trkpt lat="50.395694" lon="8.799429">
        <ele>180.947311</ele>
        <time>2026-05-04T15:37:38.652Z</time>
      </trkpt>
      <trkpt lat="50.395920" lon="8.798633">
        <ele>183.855011</ele>
        <time>2026-05-04T15:37:54.545Z</time>
      </trkpt>
      <trkpt lat="50.395963" lon="8.798496">
        <ele>184.364571</ele>
        <time>2026-05-04T15:37:57.068Z</time>
      </trkpt>
      <trkpt lat="50.396065" lon="8.798189">
        <ele>185.519782</ele>
        <time>2026-05-04T15:38:02.555Z</time>
      </trkpt>
      <trkpt lat="50.396242" lon="8.797747">
        <ele>186.884890</ele>
        <time>2026-05-04T15:38:10.392Z</time>
      </trkpt>
      <trkpt lat="50.396253" lon="8.797719">
        <ele>186.933540</ele>
        <time>2026-05-04T15:38:10.843Z</time>
      </trkpt>
      <trkpt lat="50.396645" lon="8.796637">
        <ele>188.774414</ele>
        <time>2026-05-04T15:38:26.964Z</time>
      </trkpt>
      <trkpt lat="50.396798" lon="8.795933">
        <ele>189.874596</ele>
        <time>2026-05-04T15:38:35.494Z</time>
      </trkpt>
      <trkpt lat="50.396820" lon="8.795739">
        <ele>190.166058</ele>
        <time>2026-05-04T15:38:37.707Z</time>
      </trkpt>
      <trkpt lat="50.397000" lon="8.793529">
        <ele>191.072799</ele>
        <time>2026-05-04T15:38:58.940Z</time>
      </trkpt>
      <trkpt lat="50.397248" lon="8.791672">
        <ele>190.114349</ele>
        <time>2026-05-04T15:39:10.665Z</time>
      </trkpt>
      <trkpt lat="50.397357" lon="8.790859">
        <ele>189.075474</ele>
        <time>2026-05-04T15:39:15.213Z</time>
      </trkpt>
      <trkpt lat="50.397495" lon="8.789829">
        <ele>187.759350</ele>
        <time>2026-05-04T15:39:20.815Z</time>
      </trkpt>
      <trkpt lat="50.397594" lon="8.789088">
        <ele>187.151726</ele>
        <time>2026-05-04T15:39:24.908Z</time>
      </trkpt>
      <trkpt lat="50.397658" lon="8.788605">
        <ele>186.766537</ele>
        <time>2026-05-04T15:39:27.714Z</time>
      </trkpt>
      <trkpt lat="50.397813" lon="8.787730">
        <ele>186.057447</ele>
        <time>2026-05-04T15:39:33.281Z</time>
      </trkpt>
      <trkpt lat="50.398039" lon="8.786931">
        <ele>185.662277</ele>
        <time>2026-05-04T15:39:40.091Z</time>
      </trkpt>
      <trkpt lat="50.398313" lon="8.786246">
        <ele>186.350999</ele>
        <time>2026-05-04T15:39:47.873Z</time>
      </trkpt>
      <trkpt lat="50.398851" lon="8.785120">
        <ele>187.549427</ele>
        <time>2026-05-04T15:40:03.412Z</time>
      </trkpt>
      <trkpt lat="50.399414" lon="8.783481">
        <ele>189.624761</ele>
        <time>2026-05-04T15:40:24.803Z</time>
      </trkpt>
      <trkpt lat="50.399573" lon="8.783120">
        <ele>190.148506</ele>
        <time>2026-05-04T15:40:29.781Z</time>
      </trkpt>
      <trkpt lat="50.400490" lon="8.781478">
        <ele>193.047235</ele>
        <time>2026-05-04T15:40:54.468Z</time>
      </trkpt>
      <trkpt lat="50.401718" lon="8.779376">
        <ele>197.665044</ele>
        <time>2026-05-04T15:41:31.069Z</time>
      </trkpt>
      <trkpt lat="50.401819" lon="8.779219">
        <ele>198.079170</ele>
        <time>2026-05-04T15:41:34.272Z</time>
      </trkpt>
      <trkpt lat="50.402040" lon="8.778875">
        <ele>198.985935</ele>
        <time>2026-05-04T15:41:41.417Z</time>
      </trkpt>
      <trkpt lat="50.403060" lon="8.777632">
        <ele>201.902126</ele>
        <time>2026-05-04T15:42:09.008Z</time>
      </trkpt>
      <trkpt lat="50.403267" lon="8.777363">
        <ele>202.382212</ele>
        <time>2026-05-04T15:42:13.523Z</time>
      </trkpt>
      <trkpt lat="50.403463" lon="8.777046">
        <ele>202.884998</ele>
        <time>2026-05-04T15:42:17.840Z</time>
      </trkpt>
      <trkpt lat="50.404055" lon="8.775881">
        <ele>204.691742</ele>
        <time>2026-05-04T15:42:30.600Z</time>
      </trkpt>
      <trkpt lat="50.404330" lon="8.775390">
        <ele>205.537762</ele>
        <time>2026-05-04T15:42:37.062Z</time>
      </trkpt>
      <trkpt lat="50.404767" lon="8.774721">
        <ele>206.777649</ele>
        <time>2026-05-04T15:42:49.001Z</time>
      </trkpt>
      <trkpt lat="50.405591" lon="8.773540">
        <ele>210.950157</ele>
        <time>2026-05-04T15:43:17.326Z</time>
      </trkpt>
      <trkpt lat="50.406996" lon="8.771282">
        <ele>219.102724</ele>
        <time>2026-05-04T15:44:11.729Z</time>
      </trkpt>
      <trkpt lat="50.408223" lon="8.769359">
        <ele>223.235798</ele>
        <time>2026-05-04T15:44:45.312Z</time>
      </trkpt>
      <trkpt lat="50.408819" lon="8.768378">
        <ele>224.350584</ele>
        <time>2026-05-04T15:44:55.720Z</time>
      </trkpt>
      <trkpt lat="50.409742" lon="8.767005">
        <ele>225.549704</ele>
        <time>2026-05-04T15:45:12.144Z</time>
      </trkpt>
      <trkpt lat="50.410361" lon="8.766084">
        <ele>226.290906</ele>
        <time>2026-05-04T15:45:28.810Z</time>
      </trkpt>
      <trkpt lat="50.410674" lon="8.765636">
        <ele>226.610843</ele>
        <time>2026-05-04T15:45:37.176Z</time>
      </trkpt>
      <trkpt lat="50.411807" lon="8.764168">
        <ele>226.251270</ele>
        <time>2026-05-04T15:45:53.730Z</time>
      </trkpt>
      <trkpt lat="50.412379" lon="8.763417">
        <ele>224.268531</ele>
        <time>2026-05-04T15:45:59.737Z</time>
      </trkpt>
      <trkpt lat="50.412864" lon="8.762774">
        <ele>222.577044</ele>
        <time>2026-05-04T15:46:04.693Z</time>
      </trkpt>
      <trkpt lat="50.413093" lon="8.762373">
        <ele>221.567394</ele>
        <time>2026-05-04T15:46:07.409Z</time>
      </trkpt>
      <trkpt lat="50.413300" lon="8.761848">
        <ele>220.409789</ele>
        <time>2026-05-04T15:46:10.600Z</time>
      </trkpt>
      <trkpt lat="50.413507" lon="8.761115">
        <ele>218.906457</ele>
        <time>2026-05-04T15:46:14.906Z</time>
      </trkpt>
      <trkpt lat="50.414026" lon="8.759172">
        <ele>215.436301</ele>
        <time>2026-05-04T15:46:26.365Z</time>
      </trkpt>
      <trkpt lat="50.414517" lon="8.757368">
        <ele>212.884974</ele>
        <time>2026-05-04T15:46:36.861Z</time>
      </trkpt>
      <trkpt lat="50.415204" lon="8.754781">
        <ele>211.123850</ele>
        <time>2026-05-04T15:46:56.289Z</time>
      </trkpt>
      <trkpt lat="50.415304" lon="8.754450">
        <ele>210.699816</ele>
        <time>2026-05-04T15:46:59.100Z</time>
      </trkpt>
      <trkpt lat="50.415903" lon="8.752785">
        <ele>208.486540</ele>
        <time>2026-05-04T15:47:10.187Z</time>
      </trkpt>
      <trkpt lat="50.415967" lon="8.752607">
        <ele>208.133438</ele>
        <time>2026-05-04T15:47:11.217Z</time>
      </trkpt>
      <trkpt lat="50.416530" lon="8.751073">
        <ele>201.003090</ele>
        <time>2026-05-04T15:47:19.451Z</time>
      </trkpt>
      <trkpt lat="50.416738" lon="8.750521">
        <ele>198.420063</ele>
        <time>2026-05-04T15:47:22.336Z</time>
      </trkpt>
      <trkpt lat="50.416919" lon="8.750026">
        <ele>195.907270</ele>
        <time>2026-05-04T15:47:24.908Z</time>
      </trkpt>
      <trkpt lat="50.417048" lon="8.749672">
        <ele>193.828557</ele>
        <time>2026-05-04T15:47:26.751Z</time>
      </trkpt>
      <trkpt lat="50.417150" lon="8.749297">
        <ele>191.750174</ele>
        <time>2026-05-04T15:47:28.588Z</time>
      </trkpt>
      <trkpt lat="50.417222" lon="8.748949">
        <ele>189.885130</ele>
        <time>2026-05-04T15:47:30.249Z</time>
      </trkpt>
      <trkpt lat="50.417238" lon="8.748851">
        <ele>189.369453</ele>
        <time>2026-05-04T15:47:30.706Z</time>
      </trkpt>
      <trkpt lat="50.417306" lon="8.748300">
        <ele>186.508625</ele>
        <time>2026-05-04T15:47:33.240Z</time>
      </trkpt>
      <trkpt lat="50.417403" lon="8.747122">
        <ele>180.182494</ele>
        <time>2026-05-04T15:47:38.560Z</time>
      </trkpt>
      <trkpt lat="50.417448" lon="8.746615">
        <ele>177.233348</ele>
        <time>2026-05-04T15:47:40.832Z</time>
      </trkpt>
      <trkpt lat="50.417511" lon="8.745665">
        <ele>171.730623</ele>
        <time>2026-05-04T15:47:45.036Z</time>
      </trkpt>
      <trkpt lat="50.417515" lon="8.745087">
        <ele>168.400440</ele>
        <time>2026-05-04T15:47:47.588Z</time>
      </trkpt>
      <trkpt lat="50.417492" lon="8.744547">
        <ele>165.500255</ele>
        <time>2026-05-04T15:47:49.991Z</time>
      </trkpt>
      <trkpt lat="50.417476" lon="8.744282">
        <ele>164.302817</ele>
        <time>2026-05-04T15:47:51.178Z</time>
      </trkpt>
      <trkpt lat="50.417434" lon="8.743559">
        <ele>161.036923</ele>
        <time>2026-05-04T15:47:54.445Z</time>
      </trkpt>
      <trkpt lat="50.417435" lon="8.742808">
        <ele>157.658550</ele>
        <time>2026-05-04T15:47:57.908Z</time>
      </trkpt>
      <trkpt lat="50.417447" lon="8.742261">
        <ele>155.196419</ele>
        <time>2026-05-04T15:48:00.479Z</time>
      </trkpt>
      <trkpt lat="50.417459" lon="8.741864">
        <ele>153.466316</ele>
        <time>2026-05-04T15:48:02.362Z</time>
      </trkpt>
      <trkpt lat="50.417467" lon="8.741598">
        <ele>152.676944</ele>
        <time>2026-05-04T15:48:03.631Z</time>
      </trkpt>
      <trkpt lat="50.417472" lon="8.741406">
        <ele>152.107331</ele>
        <time>2026-05-04T15:48:04.550Z</time>
      </trkpt>
      <trkpt lat="50.417441" lon="8.741012">
        <ele>150.930542</ele>
        <time>2026-05-04T15:48:06.460Z</time>
      </trkpt>
      <trkpt lat="50.417400" lon="8.740816">
        <ele>150.319038</ele>
        <time>2026-05-04T15:48:07.456Z</time>
      </trkpt>
      <trkpt lat="50.417345" lon="8.740556">
        <ele>149.506967</ele>
        <time>2026-05-04T15:48:08.780Z</time>
      </trkpt>
      <trkpt lat="50.417307" lon="8.740408">
        <ele>149.033977</ele>
        <time>2026-05-04T15:48:09.566Z</time>
      </trkpt>
      <trkpt lat="50.417145" lon="8.739834">
        <ele>147.173049</ele>
        <time>2026-05-04T15:48:12.642Z</time>
      </trkpt>
      <trkpt lat="50.417031" lon="8.739381">
        <ele>145.729294</ele>
        <time>2026-05-04T15:48:15.008Z</time>
      </trkpt>
      <trkpt lat="50.416987" lon="8.738990">
        <ele>144.918124</ele>
        <time>2026-05-04T15:48:16.993Z</time>
      </trkpt>
      <trkpt lat="50.416824" lon="8.739049">
        <ele>144.572402</ele>
        <time>2026-05-04T15:48:18.346Z</time>
      </trkpt>
      <trkpt lat="50.416657" lon="8.739112">
        <ele>144.217426</ele>
        <time>2026-05-04T15:48:19.750Z</time>
      </trkpt>
      <trkpt lat="50.416527" lon="8.739220">
        <ele>143.913427</ele>
        <time>2026-05-04T15:48:20.971Z</time>
      </trkpt>
      <trkpt lat="50.416382" lon="8.739010">
        <ele>143.505641</ele>
        <time>2026-05-04T15:48:25.813Z</time>
      </trkpt>
      <trkpt lat="50.416286" lon="8.738860">
        <ele>143.225664</ele>
        <time>2026-05-04T15:48:29.203Z</time>
      </trkpt>
      <trkpt lat="50.416162" lon="8.738655">
        <ele>142.853425</ele>
        <time>2026-05-04T15:48:31.537Z</time>
      </trkpt>
      <trkpt lat="50.416143" lon="8.738613">
        <ele>142.785592</ele>
        <time>2026-05-04T15:48:31.850Z</time>
      </trkpt>
      <trkpt lat="50.415947" lon="8.738236">
        <ele>142.144820</ele>
        <time>2026-05-04T15:48:34.851Z</time>
      </trkpt>
      <trkpt lat="50.415795" lon="8.737925">
        <ele>141.628648</ele>
        <time>2026-05-04T15:48:37.364Z</time>
      </trkpt>
      <trkpt lat="50.415687" lon="8.737802">
        <ele>141.530040</ele>
        <time>2026-05-04T15:48:38.825Z</time>
      </trkpt>
      <trkpt lat="50.415571" lon="8.737751">
        <ele>141.595333</ele>
        <time>2026-05-04T15:48:40.248Z</time>
      </trkpt>
      <trkpt lat="50.415400" lon="8.737753">
        <ele>141.688018</ele>
        <time>2026-05-04T15:48:42.369Z</time>
      </trkpt>
      <trkpt lat="50.415288" lon="8.737768">
        <ele>141.748943</ele>
        <time>2026-05-04T15:48:43.801Z</time>
      </trkpt>
      <trkpt lat="50.415179" lon="8.737785">
        <ele>141.808313</ele>
        <time>2026-05-04T15:48:45.172Z</time>
      </trkpt>
      <trkpt lat="50.415151" lon="8.737790">
        <ele>141.823587</ele>
        <time>2026-05-04T15:48:45.526Z</time>
      </trkpt>
      <trkpt lat="50.415077" lon="8.737802">
        <ele>141.863909</ele>
        <time>2026-05-04T15:48:46.449Z</time>
      </trkpt>
      <trkpt lat="50.415050" lon="8.737809">
        <ele>141.878741</ele>
        <time>2026-05-04T15:48:46.805Z</time>
      </trkpt>
      <trkpt lat="50.414973" lon="8.737199">
        <ele>142.093514</ele>
        <time>2026-05-04T15:48:52.154Z</time>
      </trkpt>
      <trkpt lat="50.414829" lon="8.736063">
        <ele>142.494257</ele>
        <time>2026-05-04T15:49:03.986Z</time>
      </trkpt>
      <trkpt lat="50.414780" lon="8.735013">
        <ele>142.867972</ele>
        <time>2026-05-04T15:49:14.762Z</time>
      </trkpt>
      <trkpt lat="50.414728" lon="8.734029">
        <ele>143.218460</ele>
        <time>2026-05-04T15:49:23.022Z</time>
      </trkpt>
      <trkpt lat="50.414787" lon="8.733814">
        <ele>143.301554</ele>
        <time>2026-05-04T15:49:36.282Z</time>
      </trkpt>
      <trkpt lat="50.414794" lon="8.733785">
        <ele>143.312562</ele>
        <time>2026-05-04T15:49:37.998Z</time>
      </trkpt>
      <trkpt lat="50.414800" lon="8.733765">
        <ele>143.320408</ele>
        <time>2026-05-04T15:49:38.208Z</time>
      </trkpt>
      <trkpt lat="50.415042" lon="8.733218">
        <ele>143.465168</ele>
        <time>2026-05-04T15:49:44.789Z</time>
      </trkpt>
      <trkpt lat="50.415127" lon="8.733073">
        <ele>143.461242</ele>
        <time>2026-05-04T15:49:46.647Z</time>
      </trkpt>
      <trkpt lat="50.415475" lon="8.732477">
        <ele>143.445135</ele>
        <time>2026-05-04T15:49:54.048Z</time>
      </trkpt>
      <trkpt lat="50.416119" lon="8.730620">
        <ele>143.552790</ele>
        <time>2026-05-04T15:50:17.094Z</time>
      </trkpt>
      <trkpt lat="50.416520" lon="8.729494">
        <ele>143.884000</ele>
        <time>2026-05-04T15:50:31.808Z</time>
      </trkpt>
      <trkpt lat="50.416963" lon="8.728359">
        <ele>144.232377</ele>
        <time>2026-05-04T15:50:46.510Z</time>
      </trkpt>
      <trkpt lat="50.417130" lon="8.727825">
        <ele>144.396712</ele>
        <time>2026-05-04T15:50:53.145Z</time>
      </trkpt>
      <trkpt lat="50.417139" lon="8.727784">
        <ele>144.408692</ele>
        <time>2026-05-04T15:50:53.632Z</time>
      </trkpt>
      <trkpt lat="50.417227" lon="8.727035">
        <ele>144.619100</ele>
        <time>2026-05-04T15:51:02.146Z</time>
      </trkpt>
      <trkpt lat="50.417278" lon="8.726604">
        <ele>144.740205</ele>
        <time>2026-05-04T15:51:07.043Z</time>
      </trkpt>
      <trkpt lat="50.417377" lon="8.725765">
        <ele>144.976416</ele>
        <time>2026-05-04T15:51:16.510Z</time>
      </trkpt>
      <trkpt lat="50.417400" lon="8.725371">
        <ele>145.086644</ele>
        <time>2026-05-04T15:51:20.959Z</time>
      </trkpt>
      <trkpt lat="50.417386" lon="8.724701">
        <ele>145.273405</ele>
        <time>2026-05-04T15:51:28.488Z</time>
      </trkpt>
      <trkpt lat="50.417325" lon="8.724041">
        <ele>145.459204</ele>
        <time>2026-05-04T15:51:35.892Z</time>
      </trkpt>
      <trkpt lat="50.417203" lon="8.723305">
        <ele>145.671078</ele>
        <time>2026-05-04T15:51:44.382Z</time>
      </trkpt>
      <trkpt lat="50.416728" lon="8.721576">
        <ele>146.632924</ele>
        <time>2026-05-04T15:52:06.318Z</time>
      </trkpt>
      <trkpt lat="50.415904" lon="8.717876">
        <ele>149.238400</ele>
        <time>2026-05-04T15:52:55.923Z</time>
      </trkpt>
      <trkpt lat="50.415861" lon="8.717596">
        <ele>149.342732</ele>
        <time>2026-05-04T15:52:59.550Z</time>
      </trkpt>
      <trkpt lat="50.415832" lon="8.716481">
        <ele>149.746970</ele>
        <time>2026-05-04T15:53:12.999Z</time>
      </trkpt>
      <trkpt lat="50.415794" lon="8.715862">
        <ele>149.972236</ele>
        <time>2026-05-04T15:53:19.527Z</time>
      </trkpt>
      <trkpt lat="50.415729" lon="8.715285">
        <ele>150.184492</ele>
        <time>2026-05-04T15:53:25.586Z</time>
      </trkpt>
      <trkpt lat="50.415646" lon="8.714484">
        <ele>150.515663</ele>
        <time>2026-05-04T15:53:34.140Z</time>
      </trkpt>
      <trkpt lat="50.415772" lon="8.711123">
        <ele>152.221010</ele>
        <time>2026-05-04T15:54:05.616Z</time>
      </trkpt>
      <trkpt lat="50.415897" lon="8.708152">
        <ele>154.579285</ele>
        <time>2026-05-04T15:54:35.098Z</time>
      </trkpt>
      <trkpt lat="50.416012" lon="8.705339">
        <ele>157.763109</ele>
        <time>2026-05-04T15:55:06.634Z</time>
      </trkpt>
      <trkpt lat="50.415990" lon="8.703984">
        <ele>159.569325</ele>
        <time>2026-05-04T15:55:23.502Z</time>
      </trkpt>
      <trkpt lat="50.415869" lon="8.702300">
        <ele>161.821854</ele>
        <time>2026-05-04T15:55:44.696Z</time>
      </trkpt>
      <trkpt lat="50.415674" lon="8.699505">
        <ele>164.747425</ele>
        <time>2026-05-04T15:56:15.497Z</time>
      </trkpt>
      <trkpt lat="50.415612" lon="8.698642">
        <ele>165.446559</ele>
        <time>2026-05-04T15:56:23.593Z</time>
      </trkpt>
      <trkpt lat="50.415539" lon="8.697365">
        <ele>166.252636</ele>
        <time>2026-05-04T15:56:34.983Z</time>
      </trkpt>
      <trkpt lat="50.415563" lon="8.696280">
        <ele>166.846370</ele>
        <time>2026-05-04T15:56:45.204Z</time>
      </trkpt>
      <trkpt lat="50.415573" lon="8.695707">
        <ele>167.159856</ele>
        <time>2026-05-04T15:56:50.694Z</time>
      </trkpt>
      <trkpt lat="50.415444" lon="8.694181">
        <ele>167.941899</ele>
        <time>2026-05-04T15:57:05.046Z</time>
      </trkpt>
      <trkpt lat="50.414956" lon="8.692374">
        <ele>168.919825</ele>
        <time>2026-05-04T15:57:22.772Z</time>
      </trkpt>
      <trkpt lat="50.414811" lon="8.691834">
        <ele>169.209926</ele>
        <time>2026-05-04T15:57:28.003Z</time>
      </trkpt>
      <trkpt lat="50.414613" lon="8.691116">
        <ele>169.597242</ele>
        <time>2026-05-04T15:57:35.081Z</time>
      </trkpt>
      <trkpt lat="50.414581" lon="8.690943">
        <ele>169.686424</ele>
        <time>2026-05-04T15:57:36.740Z</time>
      </trkpt>
      <trkpt lat="50.414554" lon="8.690683">
        <ele>169.816840</ele>
        <time>2026-05-04T15:57:39.183Z</time>
      </trkpt>
      <trkpt lat="50.414531" lon="8.690409">
        <ele>169.953660</ele>
        <time>2026-05-04T15:57:41.767Z</time>
      </trkpt>
      <trkpt lat="50.414538" lon="8.688575">
        <ele>170.123498</ele>
        <time>2026-05-04T15:57:59.242Z</time>
      </trkpt>
      <trkpt lat="50.414551" lon="8.686898">
        <ele>170.123498</ele>
        <time>2026-05-04T15:58:15.160Z</time>
      </trkpt>
      <trkpt lat="50.414540" lon="8.686798">
        <ele>170.123498</ele>
        <time>2026-05-04T15:58:16.076Z</time>
      </trkpt>
    </trkseg>
  </trk>
</gpx>